<?xml version="1.0" encoding="UTF-8"?>
<gpx version="1.1" creator="https://www.youtrack.es" xsi:schemaLocation="http://www.topografix.com/GPX/1/1 http://www.topografix.com/GPX/1/1/gpx.xsd http://www.garmin.com/xmlschemas/GpxExtensions/v3 http://www.garmin.com/xmlschemas/GpxExtensionsv3.xsd http://www.garmin.com/xmlschemas/TrackPointExtension/v1 http://www.garmin.com/xmlschemas/TrackPointExtensionv1.xsd" xmlns:gpxtpx="http://www.garmin.com/xmlschemas/TrackPointExtension/v1" xmlns:gpxx="http://www.garmin.com/xmlschemas/GpxExtensions/v3" xmlns:xsi="http://www.w3.org/2001/XMLSchema-instance">
  <metadata>
    <author>
      <name>Isaac Nadal</name>
      <email id="isaacnadal1976" domain="gmail.com"/>
    </author>
    <link href="https://www.youtrack.es">
      <text>YouTrack.es</text>
    </link>
    <time>2026-05-10T13:43:23Z</time>
  </metadata>
  <trk>
    <src>https://www.youtrack.es</src>
    <link href="https://www.youtrack.es/ruta/15161-espata-2020">
      <text>YouTrack.es</text>
    </link>
    <trkseg>
      <trkpt lat="42.682258000" lon="-0.536923000">
        <ele>962.5</ele>
        <time>2020-08-19T05:12:17Z</time>
      </trkpt>
      <trkpt lat="42.682319000" lon="-0.536840000">
        <ele>961.9</ele>
        <time>2020-08-19T05:12:19Z</time>
      </trkpt>
      <trkpt lat="42.682361000" lon="-0.536735000">
        <ele>961.2</ele>
        <time>2020-08-19T05:12:28Z</time>
      </trkpt>
      <trkpt lat="42.682383000" lon="-0.536615000">
        <ele>960.7</ele>
        <time>2020-08-19T05:12:35Z</time>
      </trkpt>
      <trkpt lat="42.682407000" lon="-0.536493000">
        <ele>960.2</ele>
        <time>2020-08-19T05:12:55Z</time>
      </trkpt>
      <trkpt lat="42.682424000" lon="-0.536379000">
        <ele>959.7</ele>
        <time>2020-08-19T05:13:03Z</time>
      </trkpt>
      <trkpt lat="42.682439000" lon="-0.536270000">
        <ele>958.8</ele>
        <time>2020-08-19T05:13:09Z</time>
      </trkpt>
      <trkpt lat="42.682447000" lon="-0.536160000">
        <ele>957.8</ele>
        <time>2020-08-19T05:13:14Z</time>
      </trkpt>
      <trkpt lat="42.682445000" lon="-0.536048000">
        <ele>956.9</ele>
        <time>2020-08-19T05:13:20Z</time>
      </trkpt>
      <trkpt lat="42.682448000" lon="-0.535930000">
        <ele>956.2</ele>
        <time>2020-08-19T05:13:27Z</time>
      </trkpt>
      <trkpt lat="42.682460000" lon="-0.535810000">
        <ele>955.6</ele>
        <time>2020-08-19T05:13:35Z</time>
      </trkpt>
      <trkpt lat="42.682441000" lon="-0.535695000">
        <ele>955.2</ele>
        <time>2020-08-19T05:13:42Z</time>
      </trkpt>
      <trkpt lat="42.682429000" lon="-0.535574000">
        <ele>954.9</ele>
        <time>2020-08-19T05:13:49Z</time>
      </trkpt>
      <trkpt lat="42.682427000" lon="-0.535451000">
        <ele>954.8</ele>
        <time>2020-08-19T05:13:56Z</time>
      </trkpt>
      <trkpt lat="42.682418000" lon="-0.535336000">
        <ele>954.9</ele>
        <time>2020-08-19T05:14:03Z</time>
      </trkpt>
      <trkpt lat="42.682405000" lon="-0.535220000">
        <ele>955.1</ele>
        <time>2020-08-19T05:14:09Z</time>
      </trkpt>
      <trkpt lat="42.682432000" lon="-0.535101000">
        <ele>955.4</ele>
        <time>2020-08-19T05:14:15Z</time>
      </trkpt>
      <trkpt lat="42.682475000" lon="-0.534998000">
        <ele>955.5</ele>
        <time>2020-08-19T05:14:22Z</time>
      </trkpt>
      <trkpt lat="42.682502000" lon="-0.534891000">
        <ele>955.8</ele>
        <time>2020-08-19T05:14:28Z</time>
      </trkpt>
      <trkpt lat="42.682518000" lon="-0.534770000">
        <ele>956.0</ele>
        <time>2020-08-19T05:14:34Z</time>
      </trkpt>
      <trkpt lat="42.682531000" lon="-0.534649000">
        <ele>956.2</ele>
        <time>2020-08-19T05:14:41Z</time>
      </trkpt>
      <trkpt lat="42.682542000" lon="-0.534520000">
        <ele>956.4</ele>
        <time>2020-08-19T05:14:47Z</time>
      </trkpt>
      <trkpt lat="42.682526000" lon="-0.534402000">
        <ele>956.5</ele>
        <time>2020-08-19T05:14:53Z</time>
      </trkpt>
      <trkpt lat="42.682527000" lon="-0.534288000">
        <ele>956.5</ele>
        <time>2020-08-19T05:15:00Z</time>
      </trkpt>
      <trkpt lat="42.682514000" lon="-0.534179000">
        <ele>956.5</ele>
        <time>2020-08-19T05:15:07Z</time>
      </trkpt>
      <trkpt lat="42.682503000" lon="-0.534062000">
        <ele>956.2</ele>
        <time>2020-08-19T05:15:13Z</time>
      </trkpt>
      <trkpt lat="42.682519000" lon="-0.533930000">
        <ele>955.7</ele>
        <time>2020-08-19T05:15:19Z</time>
      </trkpt>
      <trkpt lat="42.682528000" lon="-0.533806000">
        <ele>955.3</ele>
        <time>2020-08-19T05:15:25Z</time>
      </trkpt>
      <trkpt lat="42.682532000" lon="-0.533687000">
        <ele>954.9</ele>
        <time>2020-08-19T05:15:31Z</time>
      </trkpt>
      <trkpt lat="42.682531000" lon="-0.533562000">
        <ele>954.5</ele>
        <time>2020-08-19T05:15:37Z</time>
      </trkpt>
      <trkpt lat="42.682529000" lon="-0.533447000">
        <ele>954.4</ele>
        <time>2020-08-19T05:15:43Z</time>
      </trkpt>
      <trkpt lat="42.682520000" lon="-0.533321000">
        <ele>954.3</ele>
        <time>2020-08-19T05:15:50Z</time>
      </trkpt>
      <trkpt lat="42.682526000" lon="-0.533201000">
        <ele>954.2</ele>
        <time>2020-08-19T05:15:56Z</time>
      </trkpt>
      <trkpt lat="42.682554000" lon="-0.533096000">
        <ele>954.2</ele>
        <time>2020-08-19T05:16:02Z</time>
      </trkpt>
      <trkpt lat="42.682569000" lon="-0.532979000">
        <ele>954.3</ele>
        <time>2020-08-19T05:16:09Z</time>
      </trkpt>
      <trkpt lat="42.682546000" lon="-0.532858000">
        <ele>954.4</ele>
        <time>2020-08-19T05:16:19Z</time>
      </trkpt>
      <trkpt lat="42.682555000" lon="-0.532734000">
        <ele>954.5</ele>
        <time>2020-08-19T05:16:26Z</time>
      </trkpt>
      <trkpt lat="42.682531000" lon="-0.532621000">
        <ele>954.8</ele>
        <time>2020-08-19T05:16:32Z</time>
      </trkpt>
      <trkpt lat="42.682509000" lon="-0.532505000">
        <ele>955.0</ele>
        <time>2020-08-19T05:16:38Z</time>
      </trkpt>
      <trkpt lat="42.682482000" lon="-0.532386000">
        <ele>955.2</ele>
        <time>2020-08-19T05:16:45Z</time>
      </trkpt>
      <trkpt lat="42.682444000" lon="-0.532284000">
        <ele>955.4</ele>
        <time>2020-08-19T05:16:51Z</time>
      </trkpt>
      <trkpt lat="42.682378000" lon="-0.532202000">
        <ele>955.5</ele>
        <time>2020-08-19T05:16:58Z</time>
      </trkpt>
      <trkpt lat="42.682309000" lon="-0.532137000">
        <ele>955.5</ele>
        <time>2020-08-19T05:17:04Z</time>
      </trkpt>
      <trkpt lat="42.682228000" lon="-0.532073000">
        <ele>955.5</ele>
        <time>2020-08-19T05:17:11Z</time>
      </trkpt>
      <trkpt lat="42.682153000" lon="-0.531992000">
        <ele>955.5</ele>
        <time>2020-08-19T05:17:17Z</time>
      </trkpt>
      <trkpt lat="42.682109000" lon="-0.531898000">
        <ele>955.5</ele>
        <time>2020-08-19T05:17:23Z</time>
      </trkpt>
      <trkpt lat="42.682078000" lon="-0.531786000">
        <ele>955.5</ele>
        <time>2020-08-19T05:17:29Z</time>
      </trkpt>
      <trkpt lat="42.682069000" lon="-0.531672000">
        <ele>955.6</ele>
        <time>2020-08-19T05:17:35Z</time>
      </trkpt>
      <trkpt lat="42.682065000" lon="-0.531555000">
        <ele>955.7</ele>
        <time>2020-08-19T05:17:41Z</time>
      </trkpt>
      <trkpt lat="42.682066000" lon="-0.531433000">
        <ele>955.9</ele>
        <time>2020-08-19T05:17:48Z</time>
      </trkpt>
      <trkpt lat="42.682083000" lon="-0.531308000">
        <ele>956.2</ele>
        <time>2020-08-19T05:17:55Z</time>
      </trkpt>
      <trkpt lat="42.682115000" lon="-0.531185000">
        <ele>956.5</ele>
        <time>2020-08-19T05:18:01Z</time>
      </trkpt>
      <trkpt lat="42.682135000" lon="-0.531070000">
        <ele>956.9</ele>
        <time>2020-08-19T05:18:06Z</time>
      </trkpt>
      <trkpt lat="42.682154000" lon="-0.530955000">
        <ele>957.4</ele>
        <time>2020-08-19T05:18:11Z</time>
      </trkpt>
      <trkpt lat="42.682169000" lon="-0.530839000">
        <ele>957.7</ele>
        <time>2020-08-19T05:18:18Z</time>
      </trkpt>
      <trkpt lat="42.682175000" lon="-0.530727000">
        <ele>958.1</ele>
        <time>2020-08-19T05:18:25Z</time>
      </trkpt>
      <trkpt lat="42.682190000" lon="-0.530614000">
        <ele>958.5</ele>
        <time>2020-08-19T05:18:32Z</time>
      </trkpt>
      <trkpt lat="42.682185000" lon="-0.530497000">
        <ele>959.0</ele>
        <time>2020-08-19T05:18:39Z</time>
      </trkpt>
      <trkpt lat="42.682205000" lon="-0.530379000">
        <ele>959.5</ele>
        <time>2020-08-19T05:18:45Z</time>
      </trkpt>
      <trkpt lat="42.682226000" lon="-0.530272000">
        <ele>960.0</ele>
        <time>2020-08-19T05:18:51Z</time>
      </trkpt>
      <trkpt lat="42.682250000" lon="-0.530153000">
        <ele>960.6</ele>
        <time>2020-08-19T05:18:57Z</time>
      </trkpt>
      <trkpt lat="42.682268000" lon="-0.530039000">
        <ele>961.3</ele>
        <time>2020-08-19T05:19:03Z</time>
      </trkpt>
      <trkpt lat="42.682257000" lon="-0.529929000">
        <ele>961.8</ele>
        <time>2020-08-19T05:19:09Z</time>
      </trkpt>
      <trkpt lat="42.682263000" lon="-0.529807000">
        <ele>962.5</ele>
        <time>2020-08-19T05:19:16Z</time>
      </trkpt>
      <trkpt lat="42.682277000" lon="-0.529694000">
        <ele>963.0</ele>
        <time>2020-08-19T05:19:22Z</time>
      </trkpt>
      <trkpt lat="42.682356000" lon="-0.529668000">
        <ele>963.6</ele>
        <time>2020-08-19T05:19:31Z</time>
      </trkpt>
      <trkpt lat="42.682362000" lon="-0.529549000">
        <ele>964.3</ele>
        <time>2020-08-19T05:19:39Z</time>
      </trkpt>
      <trkpt lat="42.682313000" lon="-0.529405000">
        <ele>964.9</ele>
        <time>2020-08-19T05:19:41Z</time>
      </trkpt>
      <trkpt lat="42.682321000" lon="-0.529291000">
        <ele>965.5</ele>
        <time>2020-08-19T05:19:48Z</time>
      </trkpt>
      <trkpt lat="42.682332000" lon="-0.529174000">
        <ele>966.1</ele>
        <time>2020-08-19T05:19:54Z</time>
      </trkpt>
      <trkpt lat="42.682315000" lon="-0.529065000">
        <ele>966.6</ele>
        <time>2020-08-19T05:20:17Z</time>
      </trkpt>
      <trkpt lat="42.682338000" lon="-0.528956000">
        <ele>967.2</ele>
        <time>2020-08-19T05:22:02Z</time>
      </trkpt>
      <trkpt lat="42.682322000" lon="-0.528843000">
        <ele>967.7</ele>
        <time>2020-08-19T05:22:11Z</time>
      </trkpt>
      <trkpt lat="42.682327000" lon="-0.528730000">
        <ele>968.4</ele>
        <time>2020-08-19T05:22:22Z</time>
      </trkpt>
      <trkpt lat="42.682329000" lon="-0.528607000">
        <ele>969.0</ele>
        <time>2020-08-19T05:22:32Z</time>
      </trkpt>
      <trkpt lat="42.682351000" lon="-0.528494000">
        <ele>969.8</ele>
        <time>2020-08-19T05:22:40Z</time>
      </trkpt>
      <trkpt lat="42.682371000" lon="-0.528384000">
        <ele>970.7</ele>
        <time>2020-08-19T05:22:47Z</time>
      </trkpt>
      <trkpt lat="42.682379000" lon="-0.528264000">
        <ele>971.6</ele>
        <time>2020-08-19T05:22:56Z</time>
      </trkpt>
      <trkpt lat="42.682379000" lon="-0.528152000">
        <ele>972.5</ele>
        <time>2020-08-19T05:23:06Z</time>
      </trkpt>
      <trkpt lat="42.682386000" lon="-0.528029000">
        <ele>973.5</ele>
        <time>2020-08-19T05:23:14Z</time>
      </trkpt>
      <trkpt lat="42.682412000" lon="-0.527921000">
        <ele>974.6</ele>
        <time>2020-08-19T05:23:21Z</time>
      </trkpt>
      <trkpt lat="42.682433000" lon="-0.527798000">
        <ele>975.7</ele>
        <time>2020-08-19T05:23:29Z</time>
      </trkpt>
      <trkpt lat="42.682458000" lon="-0.527689000">
        <ele>976.7</ele>
        <time>2020-08-19T05:23:35Z</time>
      </trkpt>
      <trkpt lat="42.682478000" lon="-0.527574000">
        <ele>977.7</ele>
        <time>2020-08-19T05:23:43Z</time>
      </trkpt>
      <trkpt lat="42.682501000" lon="-0.527454000">
        <ele>978.7</ele>
        <time>2020-08-19T05:23:51Z</time>
      </trkpt>
      <trkpt lat="42.682523000" lon="-0.527343000">
        <ele>979.6</ele>
        <time>2020-08-19T05:23:59Z</time>
      </trkpt>
      <trkpt lat="42.682532000" lon="-0.527220000">
        <ele>980.5</ele>
        <time>2020-08-19T05:24:07Z</time>
      </trkpt>
      <trkpt lat="42.682513000" lon="-0.527103000">
        <ele>981.3</ele>
        <time>2020-08-19T05:24:14Z</time>
      </trkpt>
      <trkpt lat="42.682493000" lon="-0.526978000">
        <ele>982.2</ele>
        <time>2020-08-19T05:24:22Z</time>
      </trkpt>
      <trkpt lat="42.682494000" lon="-0.526859000">
        <ele>983.0</ele>
        <time>2020-08-19T05:24:30Z</time>
      </trkpt>
      <trkpt lat="42.682500000" lon="-0.526749000">
        <ele>983.8</ele>
        <time>2020-08-19T05:24:37Z</time>
      </trkpt>
      <trkpt lat="42.682489000" lon="-0.526629000">
        <ele>984.6</ele>
        <time>2020-08-19T05:24:45Z</time>
      </trkpt>
      <trkpt lat="42.682477000" lon="-0.526511000">
        <ele>985.5</ele>
        <time>2020-08-19T05:24:53Z</time>
      </trkpt>
      <trkpt lat="42.682467000" lon="-0.526399000">
        <ele>986.4</ele>
        <time>2020-08-19T05:25:00Z</time>
      </trkpt>
      <trkpt lat="42.682459000" lon="-0.526285000">
        <ele>987.2</ele>
        <time>2020-08-19T05:25:07Z</time>
      </trkpt>
      <trkpt lat="42.682448000" lon="-0.526164000">
        <ele>988.0</ele>
        <time>2020-08-19T05:25:14Z</time>
      </trkpt>
      <trkpt lat="42.682433000" lon="-0.526042000">
        <ele>988.9</ele>
        <time>2020-08-19T05:25:22Z</time>
      </trkpt>
      <trkpt lat="42.682456000" lon="-0.525933000">
        <ele>989.8</ele>
        <time>2020-08-19T05:25:29Z</time>
      </trkpt>
      <trkpt lat="42.682459000" lon="-0.525815000">
        <ele>990.6</ele>
        <time>2020-08-19T05:25:38Z</time>
      </trkpt>
      <trkpt lat="42.682460000" lon="-0.525690000">
        <ele>991.5</ele>
        <time>2020-08-19T05:25:46Z</time>
      </trkpt>
      <trkpt lat="42.682480000" lon="-0.525580000">
        <ele>992.4</ele>
        <time>2020-08-19T05:25:53Z</time>
      </trkpt>
      <trkpt lat="42.682497000" lon="-0.525464000">
        <ele>993.3</ele>
        <time>2020-08-19T05:26:01Z</time>
      </trkpt>
      <trkpt lat="42.682494000" lon="-0.525342000">
        <ele>994.2</ele>
        <time>2020-08-19T05:26:10Z</time>
      </trkpt>
      <trkpt lat="42.682485000" lon="-0.525219000">
        <ele>995.1</ele>
        <time>2020-08-19T05:26:18Z</time>
      </trkpt>
      <trkpt lat="42.682493000" lon="-0.525104000">
        <ele>996.0</ele>
        <time>2020-08-19T05:26:26Z</time>
      </trkpt>
      <trkpt lat="42.682475000" lon="-0.524989000">
        <ele>996.9</ele>
        <time>2020-08-19T05:26:35Z</time>
      </trkpt>
      <trkpt lat="42.682480000" lon="-0.524877000">
        <ele>997.9</ele>
        <time>2020-08-19T05:26:43Z</time>
      </trkpt>
      <trkpt lat="42.682461000" lon="-0.524760000">
        <ele>998.9</ele>
        <time>2020-08-19T05:26:50Z</time>
      </trkpt>
      <trkpt lat="42.682428000" lon="-0.524653000">
        <ele>1000.0</ele>
        <time>2020-08-19T05:26:58Z</time>
      </trkpt>
      <trkpt lat="42.682401000" lon="-0.524546000">
        <ele>1001.1</ele>
        <time>2020-08-19T05:27:05Z</time>
      </trkpt>
      <trkpt lat="42.682378000" lon="-0.524429000">
        <ele>1002.3</ele>
        <time>2020-08-19T05:27:14Z</time>
      </trkpt>
      <trkpt lat="42.682376000" lon="-0.524313000">
        <ele>1003.5</ele>
        <time>2020-08-19T05:27:22Z</time>
      </trkpt>
      <trkpt lat="42.682356000" lon="-0.524197000">
        <ele>1004.7</ele>
        <time>2020-08-19T05:27:30Z</time>
      </trkpt>
      <trkpt lat="42.682330000" lon="-0.524080000">
        <ele>1006.1</ele>
        <time>2020-08-19T05:27:38Z</time>
      </trkpt>
      <trkpt lat="42.682298000" lon="-0.523979000">
        <ele>1007.6</ele>
        <time>2020-08-19T05:27:47Z</time>
      </trkpt>
      <trkpt lat="42.682282000" lon="-0.523864000">
        <ele>1009.4</ele>
        <time>2020-08-19T05:27:55Z</time>
      </trkpt>
      <trkpt lat="42.682236000" lon="-0.523758000">
        <ele>1011.3</ele>
        <time>2020-08-19T05:28:04Z</time>
      </trkpt>
      <trkpt lat="42.682166000" lon="-0.523685000">
        <ele>1013.2</ele>
        <time>2020-08-19T05:28:14Z</time>
      </trkpt>
      <trkpt lat="42.682093000" lon="-0.523614000">
        <ele>1015.2</ele>
        <time>2020-08-19T05:28:23Z</time>
      </trkpt>
      <trkpt lat="42.682090000" lon="-0.523499000">
        <ele>1017.1</ele>
        <time>2020-08-19T05:28:34Z</time>
      </trkpt>
      <trkpt lat="42.682033000" lon="-0.523414000">
        <ele>1019.3</ele>
        <time>2020-08-19T05:28:46Z</time>
      </trkpt>
      <trkpt lat="42.681959000" lon="-0.523361000">
        <ele>1021.5</ele>
        <time>2020-08-19T05:28:56Z</time>
      </trkpt>
      <trkpt lat="42.681868000" lon="-0.523350000">
        <ele>1023.9</ele>
        <time>2020-08-19T05:29:05Z</time>
      </trkpt>
      <trkpt lat="42.681778000" lon="-0.523359000">
        <ele>1026.4</ele>
        <time>2020-08-19T05:29:16Z</time>
      </trkpt>
      <trkpt lat="42.681695000" lon="-0.523367000">
        <ele>1029.0</ele>
        <time>2020-08-19T05:29:30Z</time>
      </trkpt>
      <trkpt lat="42.681607000" lon="-0.523348000">
        <ele>1031.5</ele>
        <time>2020-08-19T05:29:45Z</time>
      </trkpt>
      <trkpt lat="42.681522000" lon="-0.523356000">
        <ele>1033.9</ele>
        <time>2020-08-19T05:29:56Z</time>
      </trkpt>
      <trkpt lat="42.681439000" lon="-0.523387000">
        <ele>1036.4</ele>
        <time>2020-08-19T05:30:06Z</time>
      </trkpt>
      <trkpt lat="42.681358000" lon="-0.523408000">
        <ele>1039.0</ele>
        <time>2020-08-19T05:30:15Z</time>
      </trkpt>
      <trkpt lat="42.681276000" lon="-0.523430000">
        <ele>1041.6</ele>
        <time>2020-08-19T05:30:27Z</time>
      </trkpt>
      <trkpt lat="42.681213000" lon="-0.523498000">
        <ele>1044.4</ele>
        <time>2020-08-19T05:30:36Z</time>
      </trkpt>
      <trkpt lat="42.681131000" lon="-0.523547000">
        <ele>1046.7</ele>
        <time>2020-08-19T05:30:49Z</time>
      </trkpt>
      <trkpt lat="42.681052000" lon="-0.523579000">
        <ele>1049.1</ele>
        <time>2020-08-19T05:31:00Z</time>
      </trkpt>
      <trkpt lat="42.680969000" lon="-0.523589000">
        <ele>1051.3</ele>
        <time>2020-08-19T05:31:10Z</time>
      </trkpt>
      <trkpt lat="42.680889000" lon="-0.523632000">
        <ele>1053.5</ele>
        <time>2020-08-19T05:31:19Z</time>
      </trkpt>
      <trkpt lat="42.680805000" lon="-0.523669000">
        <ele>1055.6</ele>
        <time>2020-08-19T05:31:27Z</time>
      </trkpt>
      <trkpt lat="42.680736000" lon="-0.523729000">
        <ele>1057.9</ele>
        <time>2020-08-19T05:31:39Z</time>
      </trkpt>
      <trkpt lat="42.680648000" lon="-0.523739000">
        <ele>1060.2</ele>
        <time>2020-08-19T05:31:49Z</time>
      </trkpt>
      <trkpt lat="42.680575000" lon="-0.523803000">
        <ele>1062.4</ele>
        <time>2020-08-19T05:32:01Z</time>
      </trkpt>
      <trkpt lat="42.680488000" lon="-0.523785000">
        <ele>1064.4</ele>
        <time>2020-08-19T05:32:12Z</time>
      </trkpt>
      <trkpt lat="42.680492000" lon="-0.523667000">
        <ele>1066.4</ele>
        <time>2020-08-19T05:32:47Z</time>
      </trkpt>
      <trkpt lat="42.680528000" lon="-0.523559000">
        <ele>1068.4</ele>
        <time>2020-08-19T05:33:07Z</time>
      </trkpt>
      <trkpt lat="42.680564000" lon="-0.523452000">
        <ele>1070.8</ele>
        <time>2020-08-19T05:33:18Z</time>
      </trkpt>
      <trkpt lat="42.680611000" lon="-0.523362000">
        <ele>1073.3</ele>
        <time>2020-08-19T05:33:29Z</time>
      </trkpt>
      <trkpt lat="42.680658000" lon="-0.523264000">
        <ele>1075.9</ele>
        <time>2020-08-19T05:33:40Z</time>
      </trkpt>
      <trkpt lat="42.680694000" lon="-0.523162000">
        <ele>1078.6</ele>
        <time>2020-08-19T05:33:49Z</time>
      </trkpt>
      <trkpt lat="42.680731000" lon="-0.523058000">
        <ele>1081.4</ele>
        <time>2020-08-19T05:34:00Z</time>
      </trkpt>
      <trkpt lat="42.680736000" lon="-0.522947000">
        <ele>1084.1</ele>
        <time>2020-08-19T05:34:11Z</time>
      </trkpt>
      <trkpt lat="42.680762000" lon="-0.522835000">
        <ele>1086.6</ele>
        <time>2020-08-19T05:34:24Z</time>
      </trkpt>
      <trkpt lat="42.680792000" lon="-0.522725000">
        <ele>1089.3</ele>
        <time>2020-08-19T05:34:38Z</time>
      </trkpt>
      <trkpt lat="42.680814000" lon="-0.522615000">
        <ele>1092.0</ele>
        <time>2020-08-19T05:34:51Z</time>
      </trkpt>
      <trkpt lat="42.680840000" lon="-0.522499000">
        <ele>1094.5</ele>
        <time>2020-08-19T05:35:00Z</time>
      </trkpt>
      <trkpt lat="42.680878000" lon="-0.522393000">
        <ele>1097.2</ele>
        <time>2020-08-19T05:35:08Z</time>
      </trkpt>
      <trkpt lat="42.680932000" lon="-0.522305000">
        <ele>1099.3</ele>
        <time>2020-08-19T05:35:17Z</time>
      </trkpt>
      <trkpt lat="42.680980000" lon="-0.522212000">
        <ele>1101.3</ele>
        <time>2020-08-19T05:35:31Z</time>
      </trkpt>
      <trkpt lat="42.681013000" lon="-0.522106000">
        <ele>1103.3</ele>
        <time>2020-08-19T05:35:42Z</time>
      </trkpt>
      <trkpt lat="42.681069000" lon="-0.522019000">
        <ele>1105.0</ele>
        <time>2020-08-19T05:35:54Z</time>
      </trkpt>
      <trkpt lat="42.681108000" lon="-0.521912000">
        <ele>1106.4</ele>
        <time>2020-08-19T05:36:05Z</time>
      </trkpt>
      <trkpt lat="42.681176000" lon="-0.521839000">
        <ele>1107.7</ele>
        <time>2020-08-19T05:36:14Z</time>
      </trkpt>
      <trkpt lat="42.681220000" lon="-0.521741000">
        <ele>1108.9</ele>
        <time>2020-08-19T05:36:22Z</time>
      </trkpt>
      <trkpt lat="42.681267000" lon="-0.521644000">
        <ele>1110.1</ele>
        <time>2020-08-19T05:36:33Z</time>
      </trkpt>
      <trkpt lat="42.681311000" lon="-0.521536000">
        <ele>1111.2</ele>
        <time>2020-08-19T05:36:41Z</time>
      </trkpt>
      <trkpt lat="42.681368000" lon="-0.521456000">
        <ele>1112.3</ele>
        <time>2020-08-19T05:36:48Z</time>
      </trkpt>
      <trkpt lat="42.681413000" lon="-0.521354000">
        <ele>1113.3</ele>
        <time>2020-08-19T05:36:57Z</time>
      </trkpt>
      <trkpt lat="42.681477000" lon="-0.521271000">
        <ele>1114.5</ele>
        <time>2020-08-19T05:37:08Z</time>
      </trkpt>
      <trkpt lat="42.681494000" lon="-0.521151000">
        <ele>1115.6</ele>
        <time>2020-08-19T05:37:16Z</time>
      </trkpt>
      <trkpt lat="42.681492000" lon="-0.521032000">
        <ele>1116.6</ele>
        <time>2020-08-19T05:37:24Z</time>
      </trkpt>
      <trkpt lat="42.681516000" lon="-0.520923000">
        <ele>1117.8</ele>
        <time>2020-08-19T05:37:40Z</time>
      </trkpt>
      <trkpt lat="42.681491000" lon="-0.520810000">
        <ele>1119.5</ele>
        <time>2020-08-19T05:37:53Z</time>
      </trkpt>
      <trkpt lat="42.681489000" lon="-0.520697000">
        <ele>1121.3</ele>
        <time>2020-08-19T05:38:04Z</time>
      </trkpt>
      <trkpt lat="42.681484000" lon="-0.520587000">
        <ele>1123.5</ele>
        <time>2020-08-19T05:38:16Z</time>
      </trkpt>
      <trkpt lat="42.681496000" lon="-0.520471000">
        <ele>1125.8</ele>
        <time>2020-08-19T05:38:29Z</time>
      </trkpt>
      <trkpt lat="42.681454000" lon="-0.520371000">
        <ele>1128.1</ele>
        <time>2020-08-19T05:38:43Z</time>
      </trkpt>
      <trkpt lat="42.681382000" lon="-0.520320000">
        <ele>1130.5</ele>
        <time>2020-08-19T05:38:53Z</time>
      </trkpt>
      <trkpt lat="42.681351000" lon="-0.520212000">
        <ele>1133.0</ele>
        <time>2020-08-19T05:39:10Z</time>
      </trkpt>
      <trkpt lat="42.681307000" lon="-0.520113000">
        <ele>1135.5</ele>
        <time>2020-08-19T05:39:28Z</time>
      </trkpt>
      <trkpt lat="42.681283000" lon="-0.520001000">
        <ele>1138.5</ele>
        <time>2020-08-19T05:39:42Z</time>
      </trkpt>
      <trkpt lat="42.681272000" lon="-0.519883000">
        <ele>1141.5</ele>
        <time>2020-08-19T05:39:54Z</time>
      </trkpt>
      <trkpt lat="42.681280000" lon="-0.519772000">
        <ele>1144.2</ele>
        <time>2020-08-19T05:40:08Z</time>
      </trkpt>
      <trkpt lat="42.681255000" lon="-0.519656000">
        <ele>1146.4</ele>
        <time>2020-08-19T05:40:18Z</time>
      </trkpt>
      <trkpt lat="42.681257000" lon="-0.519544000">
        <ele>1148.3</ele>
        <time>2020-08-19T05:40:26Z</time>
      </trkpt>
      <trkpt lat="42.681179000" lon="-0.519498000">
        <ele>1150.0</ele>
        <time>2020-08-19T05:41:00Z</time>
      </trkpt>
      <trkpt lat="42.681204000" lon="-0.519392000">
        <ele>1151.6</ele>
        <time>2020-08-19T05:43:49Z</time>
      </trkpt>
      <trkpt lat="42.681231000" lon="-0.519285000">
        <ele>1153.2</ele>
        <time>2020-08-19T05:43:57Z</time>
      </trkpt>
      <trkpt lat="42.681247000" lon="-0.519173000">
        <ele>1154.5</ele>
        <time>2020-08-19T05:44:09Z</time>
      </trkpt>
      <trkpt lat="42.681254000" lon="-0.519039000">
        <ele>1155.9</ele>
        <time>2020-08-19T05:44:16Z</time>
      </trkpt>
      <trkpt lat="42.681256000" lon="-0.518924000">
        <ele>1157.4</ele>
        <time>2020-08-19T05:44:21Z</time>
      </trkpt>
      <trkpt lat="42.681270000" lon="-0.518800000">
        <ele>1158.5</ele>
        <time>2020-08-19T05:44:29Z</time>
      </trkpt>
      <trkpt lat="42.681282000" lon="-0.518682000">
        <ele>1159.7</ele>
        <time>2020-08-19T05:44:39Z</time>
      </trkpt>
      <trkpt lat="42.681334000" lon="-0.518585000">
        <ele>1161.4</ele>
        <time>2020-08-19T05:44:48Z</time>
      </trkpt>
      <trkpt lat="42.681281000" lon="-0.518493000">
        <ele>1163.3</ele>
        <time>2020-08-19T05:45:02Z</time>
      </trkpt>
      <trkpt lat="42.681285000" lon="-0.518382000">
        <ele>1165.3</ele>
        <time>2020-08-19T05:45:12Z</time>
      </trkpt>
      <trkpt lat="42.681276000" lon="-0.518263000">
        <ele>1167.3</ele>
        <time>2020-08-19T05:45:19Z</time>
      </trkpt>
      <trkpt lat="42.681284000" lon="-0.518142000">
        <ele>1169.2</ele>
        <time>2020-08-19T05:45:26Z</time>
      </trkpt>
      <trkpt lat="42.681267000" lon="-0.518033000">
        <ele>1171.0</ele>
        <time>2020-08-19T05:45:33Z</time>
      </trkpt>
      <trkpt lat="42.681230000" lon="-0.517930000">
        <ele>1172.7</ele>
        <time>2020-08-19T05:45:40Z</time>
      </trkpt>
      <trkpt lat="42.681205000" lon="-0.517824000">
        <ele>1173.5</ele>
        <time>2020-08-19T05:45:47Z</time>
      </trkpt>
      <trkpt lat="42.681202000" lon="-0.517712000">
        <ele>1174.0</ele>
        <time>2020-08-19T05:45:56Z</time>
      </trkpt>
      <trkpt lat="42.681229000" lon="-0.517605000">
        <ele>1174.3</ele>
        <time>2020-08-19T05:46:03Z</time>
      </trkpt>
      <trkpt lat="42.681256000" lon="-0.517482000">
        <ele>1174.2</ele>
        <time>2020-08-19T05:46:13Z</time>
      </trkpt>
      <trkpt lat="42.681305000" lon="-0.517391000">
        <ele>1173.9</ele>
        <time>2020-08-19T05:46:19Z</time>
      </trkpt>
      <trkpt lat="42.681358000" lon="-0.517299000">
        <ele>1173.8</ele>
        <time>2020-08-19T05:46:29Z</time>
      </trkpt>
      <trkpt lat="42.681399000" lon="-0.517203000">
        <ele>1173.9</ele>
        <time>2020-08-19T05:46:36Z</time>
      </trkpt>
      <trkpt lat="42.681417000" lon="-0.517090000">
        <ele>1173.8</ele>
        <time>2020-08-19T05:46:43Z</time>
      </trkpt>
      <trkpt lat="42.681462000" lon="-0.516987000">
        <ele>1173.9</ele>
        <time>2020-08-19T05:46:51Z</time>
      </trkpt>
      <trkpt lat="42.681476000" lon="-0.516871000">
        <ele>1174.0</ele>
        <time>2020-08-19T05:46:58Z</time>
      </trkpt>
      <trkpt lat="42.681465000" lon="-0.516751000">
        <ele>1174.5</ele>
        <time>2020-08-19T05:47:06Z</time>
      </trkpt>
      <trkpt lat="42.681454000" lon="-0.516636000">
        <ele>1175.5</ele>
        <time>2020-08-19T05:47:15Z</time>
      </trkpt>
      <trkpt lat="42.681493000" lon="-0.516532000">
        <ele>1176.5</ele>
        <time>2020-08-19T05:47:26Z</time>
      </trkpt>
      <trkpt lat="42.681518000" lon="-0.516425000">
        <ele>1177.4</ele>
        <time>2020-08-19T05:47:35Z</time>
      </trkpt>
      <trkpt lat="42.681565000" lon="-0.516326000">
        <ele>1178.5</ele>
        <time>2020-08-19T05:47:44Z</time>
      </trkpt>
      <trkpt lat="42.681594000" lon="-0.516217000">
        <ele>1179.5</ele>
        <time>2020-08-19T05:47:56Z</time>
      </trkpt>
      <trkpt lat="42.681645000" lon="-0.516122000">
        <ele>1180.1</ele>
        <time>2020-08-19T05:48:03Z</time>
      </trkpt>
      <trkpt lat="42.681709000" lon="-0.516042000">
        <ele>1180.4</ele>
        <time>2020-08-19T05:48:12Z</time>
      </trkpt>
      <trkpt lat="42.681773000" lon="-0.515966000">
        <ele>1180.6</ele>
        <time>2020-08-19T05:48:22Z</time>
      </trkpt>
      <trkpt lat="42.681812000" lon="-0.515863000">
        <ele>1180.9</ele>
        <time>2020-08-19T05:48:31Z</time>
      </trkpt>
      <trkpt lat="42.681854000" lon="-0.515755000">
        <ele>1181.3</ele>
        <time>2020-08-19T05:48:40Z</time>
      </trkpt>
      <trkpt lat="42.681888000" lon="-0.515643000">
        <ele>1181.5</ele>
        <time>2020-08-19T05:48:46Z</time>
      </trkpt>
      <trkpt lat="42.681924000" lon="-0.515544000">
        <ele>1181.9</ele>
        <time>2020-08-19T05:48:52Z</time>
      </trkpt>
      <trkpt lat="42.681969000" lon="-0.515450000">
        <ele>1182.5</ele>
        <time>2020-08-19T05:48:58Z</time>
      </trkpt>
      <trkpt lat="42.682000000" lon="-0.515345000">
        <ele>1183.3</ele>
        <time>2020-08-19T05:49:07Z</time>
      </trkpt>
      <trkpt lat="42.682027000" lon="-0.515232000">
        <ele>1183.8</ele>
        <time>2020-08-19T05:49:15Z</time>
      </trkpt>
      <trkpt lat="42.682064000" lon="-0.515131000">
        <ele>1184.5</ele>
        <time>2020-08-19T05:49:22Z</time>
      </trkpt>
      <trkpt lat="42.682097000" lon="-0.515025000">
        <ele>1185.3</ele>
        <time>2020-08-19T05:49:29Z</time>
      </trkpt>
      <trkpt lat="42.682122000" lon="-0.514913000">
        <ele>1186.2</ele>
        <time>2020-08-19T05:49:37Z</time>
      </trkpt>
      <trkpt lat="42.682174000" lon="-0.514815000">
        <ele>1186.9</ele>
        <time>2020-08-19T05:49:51Z</time>
      </trkpt>
      <trkpt lat="42.682218000" lon="-0.514716000">
        <ele>1187.3</ele>
        <time>2020-08-19T05:50:00Z</time>
      </trkpt>
      <trkpt lat="42.682236000" lon="-0.514595000">
        <ele>1187.7</ele>
        <time>2020-08-19T05:50:08Z</time>
      </trkpt>
      <trkpt lat="42.682258000" lon="-0.514486000">
        <ele>1188.5</ele>
        <time>2020-08-19T05:50:16Z</time>
      </trkpt>
      <trkpt lat="42.682260000" lon="-0.514373000">
        <ele>1189.2</ele>
        <time>2020-08-19T05:50:28Z</time>
      </trkpt>
      <trkpt lat="42.682305000" lon="-0.514275000">
        <ele>1189.4</ele>
        <time>2020-08-19T05:50:37Z</time>
      </trkpt>
      <trkpt lat="42.682353000" lon="-0.514176000">
        <ele>1189.5</ele>
        <time>2020-08-19T05:50:47Z</time>
      </trkpt>
      <trkpt lat="42.682355000" lon="-0.514058000">
        <ele>1190.2</ele>
        <time>2020-08-19T05:50:52Z</time>
      </trkpt>
      <trkpt lat="42.682341000" lon="-0.513936000">
        <ele>1191.1</ele>
        <time>2020-08-19T05:50:59Z</time>
      </trkpt>
      <trkpt lat="42.682347000" lon="-0.513824000">
        <ele>1192.3</ele>
        <time>2020-08-19T05:51:06Z</time>
      </trkpt>
      <trkpt lat="42.682371000" lon="-0.513712000">
        <ele>1193.5</ele>
        <time>2020-08-19T05:51:16Z</time>
      </trkpt>
      <trkpt lat="42.682362000" lon="-0.513596000">
        <ele>1195.2</ele>
        <time>2020-08-19T05:51:25Z</time>
      </trkpt>
      <trkpt lat="42.682306000" lon="-0.513512000">
        <ele>1197.3</ele>
        <time>2020-08-19T05:51:32Z</time>
      </trkpt>
      <trkpt lat="42.682251000" lon="-0.513416000">
        <ele>1199.4</ele>
        <time>2020-08-19T05:51:40Z</time>
      </trkpt>
      <trkpt lat="42.682200000" lon="-0.513330000">
        <ele>1201.2</ele>
        <time>2020-08-19T05:51:49Z</time>
      </trkpt>
      <trkpt lat="42.682147000" lon="-0.513243000">
        <ele>1203.0</ele>
        <time>2020-08-19T05:51:59Z</time>
      </trkpt>
      <trkpt lat="42.682098000" lon="-0.513147000">
        <ele>1204.9</ele>
        <time>2020-08-19T05:52:07Z</time>
      </trkpt>
      <trkpt lat="42.682052000" lon="-0.513053000">
        <ele>1206.9</ele>
        <time>2020-08-19T05:52:16Z</time>
      </trkpt>
      <trkpt lat="42.682023000" lon="-0.512937000">
        <ele>1208.5</ele>
        <time>2020-08-19T05:52:25Z</time>
      </trkpt>
      <trkpt lat="42.681986000" lon="-0.512820000">
        <ele>1209.8</ele>
        <time>2020-08-19T05:52:33Z</time>
      </trkpt>
      <trkpt lat="42.681967000" lon="-0.512708000">
        <ele>1211.0</ele>
        <time>2020-08-19T05:52:40Z</time>
      </trkpt>
      <trkpt lat="42.681981000" lon="-0.512598000">
        <ele>1212.2</ele>
        <time>2020-08-19T05:52:50Z</time>
      </trkpt>
      <trkpt lat="42.681962000" lon="-0.512476000">
        <ele>1212.8</ele>
        <time>2020-08-19T05:52:59Z</time>
      </trkpt>
      <trkpt lat="42.681946000" lon="-0.512358000">
        <ele>1213.4</ele>
        <time>2020-08-19T05:53:06Z</time>
      </trkpt>
      <trkpt lat="42.681923000" lon="-0.512237000">
        <ele>1213.7</ele>
        <time>2020-08-19T05:53:14Z</time>
      </trkpt>
      <trkpt lat="42.681863000" lon="-0.512158000">
        <ele>1214.0</ele>
        <time>2020-08-19T05:53:21Z</time>
      </trkpt>
      <trkpt lat="42.681804000" lon="-0.512076000">
        <ele>1214.5</ele>
        <time>2020-08-19T05:53:28Z</time>
      </trkpt>
      <trkpt lat="42.681817000" lon="-0.511952000">
        <ele>1215.5</ele>
        <time>2020-08-19T05:53:33Z</time>
      </trkpt>
      <trkpt lat="42.681764000" lon="-0.511856000">
        <ele>1216.8</ele>
        <time>2020-08-19T05:53:40Z</time>
      </trkpt>
      <trkpt lat="42.681731000" lon="-0.511748000">
        <ele>1218.2</ele>
        <time>2020-08-19T05:53:51Z</time>
      </trkpt>
      <trkpt lat="42.681696000" lon="-0.511631000">
        <ele>1219.2</ele>
        <time>2020-08-19T05:54:01Z</time>
      </trkpt>
      <trkpt lat="42.681636000" lon="-0.511550000">
        <ele>1219.8</ele>
        <time>2020-08-19T05:54:06Z</time>
      </trkpt>
      <trkpt lat="42.681567000" lon="-0.511474000">
        <ele>1220.2</ele>
        <time>2020-08-19T05:54:11Z</time>
      </trkpt>
      <trkpt lat="42.681508000" lon="-0.511388000">
        <ele>1220.9</ele>
        <time>2020-08-19T05:54:19Z</time>
      </trkpt>
      <trkpt lat="42.681484000" lon="-0.511277000">
        <ele>1221.5</ele>
        <time>2020-08-19T05:54:29Z</time>
      </trkpt>
      <trkpt lat="42.681506000" lon="-0.511168000">
        <ele>1222.1</ele>
        <time>2020-08-19T05:54:40Z</time>
      </trkpt>
      <trkpt lat="42.681501000" lon="-0.511052000">
        <ele>1222.8</ele>
        <time>2020-08-19T05:54:49Z</time>
      </trkpt>
      <trkpt lat="42.681488000" lon="-0.510928000">
        <ele>1223.4</ele>
        <time>2020-08-19T05:54:56Z</time>
      </trkpt>
      <trkpt lat="42.681464000" lon="-0.510820000">
        <ele>1223.5</ele>
        <time>2020-08-19T05:55:04Z</time>
      </trkpt>
      <trkpt lat="42.681447000" lon="-0.510705000">
        <ele>1223.5</ele>
        <time>2020-08-19T05:55:12Z</time>
      </trkpt>
      <trkpt lat="42.681427000" lon="-0.510586000">
        <ele>1223.5</ele>
        <time>2020-08-19T05:55:20Z</time>
      </trkpt>
      <trkpt lat="42.681392000" lon="-0.510474000">
        <ele>1223.5</ele>
        <time>2020-08-19T05:55:28Z</time>
      </trkpt>
      <trkpt lat="42.681327000" lon="-0.510395000">
        <ele>1223.7</ele>
        <time>2020-08-19T05:55:38Z</time>
      </trkpt>
      <trkpt lat="42.681303000" lon="-0.510287000">
        <ele>1224.1</ele>
        <time>2020-08-19T05:55:44Z</time>
      </trkpt>
      <trkpt lat="42.681266000" lon="-0.510187000">
        <ele>1224.5</ele>
        <time>2020-08-19T05:55:50Z</time>
      </trkpt>
      <trkpt lat="42.681230000" lon="-0.510068000">
        <ele>1225.2</ele>
        <time>2020-08-19T05:55:57Z</time>
      </trkpt>
      <trkpt lat="42.681235000" lon="-0.509949000">
        <ele>1225.7</ele>
        <time>2020-08-19T05:56:04Z</time>
      </trkpt>
      <trkpt lat="42.681171000" lon="-0.509866000">
        <ele>1226.2</ele>
        <time>2020-08-19T05:56:10Z</time>
      </trkpt>
      <trkpt lat="42.681120000" lon="-0.509773000">
        <ele>1226.4</ele>
        <time>2020-08-19T05:56:16Z</time>
      </trkpt>
      <trkpt lat="42.681084000" lon="-0.509659000">
        <ele>1226.5</ele>
        <time>2020-08-19T05:56:23Z</time>
      </trkpt>
      <trkpt lat="42.681049000" lon="-0.509548000">
        <ele>1226.5</ele>
        <time>2020-08-19T05:56:31Z</time>
      </trkpt>
      <trkpt lat="42.681031000" lon="-0.509435000">
        <ele>1226.5</ele>
        <time>2020-08-19T05:56:38Z</time>
      </trkpt>
      <trkpt lat="42.681015000" lon="-0.509313000">
        <ele>1227.0</ele>
        <time>2020-08-19T05:56:46Z</time>
      </trkpt>
      <trkpt lat="42.681028000" lon="-0.509196000">
        <ele>1227.5</ele>
        <time>2020-08-19T05:56:56Z</time>
      </trkpt>
      <trkpt lat="42.681019000" lon="-0.509086000">
        <ele>1228.0</ele>
        <time>2020-08-19T05:57:07Z</time>
      </trkpt>
      <trkpt lat="42.681003000" lon="-0.508966000">
        <ele>1228.5</ele>
        <time>2020-08-19T05:57:14Z</time>
      </trkpt>
      <trkpt lat="42.681021000" lon="-0.508856000">
        <ele>1228.9</ele>
        <time>2020-08-19T05:57:23Z</time>
      </trkpt>
      <trkpt lat="42.680956000" lon="-0.508934000">
        <ele>1229.5</ele>
        <time>2020-08-19T05:57:34Z</time>
      </trkpt>
      <trkpt lat="42.680924000" lon="-0.508808000">
        <ele>1230.4</ele>
        <time>2020-08-19T05:57:37Z</time>
      </trkpt>
      <trkpt lat="42.680906000" lon="-0.508678000">
        <ele>1231.5</ele>
        <time>2020-08-19T05:57:41Z</time>
      </trkpt>
      <trkpt lat="42.680887000" lon="-0.508570000">
        <ele>1233.4</ele>
        <time>2020-08-19T05:57:46Z</time>
      </trkpt>
      <trkpt lat="42.680858000" lon="-0.508466000">
        <ele>1235.6</ele>
        <time>2020-08-19T05:57:51Z</time>
      </trkpt>
      <trkpt lat="42.680824000" lon="-0.508344000">
        <ele>1238.5</ele>
        <time>2020-08-19T05:57:56Z</time>
      </trkpt>
      <trkpt lat="42.680786000" lon="-0.508239000">
        <ele>1241.3</ele>
        <time>2020-08-19T05:58:00Z</time>
      </trkpt>
      <trkpt lat="42.680757000" lon="-0.508120000">
        <ele>1243.8</ele>
        <time>2020-08-19T05:58:05Z</time>
      </trkpt>
      <trkpt lat="42.680665000" lon="-0.508117000">
        <ele>1246.0</ele>
        <time>2020-08-19T05:58:18Z</time>
      </trkpt>
      <trkpt lat="42.680602000" lon="-0.508188000">
        <ele>1247.9</ele>
        <time>2020-08-19T05:58:25Z</time>
      </trkpt>
      <trkpt lat="42.680535000" lon="-0.508265000">
        <ele>1249.5</ele>
        <time>2020-08-19T05:58:33Z</time>
      </trkpt>
      <trkpt lat="42.680459000" lon="-0.508208000">
        <ele>1250.5</ele>
        <time>2020-08-19T05:58:42Z</time>
      </trkpt>
      <trkpt lat="42.680483000" lon="-0.508069000">
        <ele>1251.8</ele>
        <time>2020-08-19T05:58:46Z</time>
      </trkpt>
      <trkpt lat="42.680508000" lon="-0.507959000">
        <ele>1252.5</ele>
        <time>2020-08-19T05:58:49Z</time>
      </trkpt>
      <trkpt lat="42.680516000" lon="-0.507848000">
        <ele>1252.7</ele>
        <time>2020-08-19T05:58:54Z</time>
      </trkpt>
      <trkpt lat="42.680513000" lon="-0.507694000">
        <ele>1252.4</ele>
        <time>2020-08-19T05:58:58Z</time>
      </trkpt>
      <trkpt lat="42.680541000" lon="-0.507577000">
        <ele>1251.5</ele>
        <time>2020-08-19T05:59:01Z</time>
      </trkpt>
      <trkpt lat="42.680467000" lon="-0.507627000">
        <ele>1250.1</ele>
        <time>2020-08-19T05:59:17Z</time>
      </trkpt>
      <trkpt lat="42.680522000" lon="-0.507246000">
        <ele>1248.7</ele>
        <time>2020-08-19T05:59:21Z</time>
      </trkpt>
      <trkpt lat="42.680540000" lon="-0.507117000">
        <ele>1247.5</ele>
        <time>2020-08-19T05:59:27Z</time>
      </trkpt>
      <trkpt lat="42.680577000" lon="-0.506992000">
        <ele>1246.5</ele>
        <time>2020-08-19T05:59:31Z</time>
      </trkpt>
      <trkpt lat="42.680606000" lon="-0.506861000">
        <ele>1245.6</ele>
        <time>2020-08-19T05:59:35Z</time>
      </trkpt>
      <trkpt lat="42.680656000" lon="-0.506766000">
        <ele>1245.0</ele>
        <time>2020-08-19T05:59:42Z</time>
      </trkpt>
      <trkpt lat="42.680669000" lon="-0.506654000">
        <ele>1244.1</ele>
        <time>2020-08-19T05:59:48Z</time>
      </trkpt>
      <trkpt lat="42.680693000" lon="-0.506548000">
        <ele>1243.4</ele>
        <time>2020-08-19T05:59:54Z</time>
      </trkpt>
      <trkpt lat="42.680705000" lon="-0.506436000">
        <ele>1242.5</ele>
        <time>2020-08-19T06:00:03Z</time>
      </trkpt>
      <trkpt lat="42.680735000" lon="-0.506314000">
        <ele>1241.6</ele>
        <time>2020-08-19T06:00:16Z</time>
      </trkpt>
      <trkpt lat="42.680749000" lon="-0.506187000">
        <ele>1240.6</ele>
        <time>2020-08-19T06:00:19Z</time>
      </trkpt>
      <trkpt lat="42.680665000" lon="-0.506171000">
        <ele>1239.7</ele>
        <time>2020-08-19T06:00:26Z</time>
      </trkpt>
      <trkpt lat="42.680717000" lon="-0.505988000">
        <ele>1238.8</ele>
        <time>2020-08-19T06:00:33Z</time>
      </trkpt>
      <trkpt lat="42.680763000" lon="-0.505897000">
        <ele>1238.2</ele>
        <time>2020-08-19T06:00:41Z</time>
      </trkpt>
      <trkpt lat="42.680811000" lon="-0.505799000">
        <ele>1237.5</ele>
        <time>2020-08-19T06:00:47Z</time>
      </trkpt>
      <trkpt lat="42.680869000" lon="-0.505719000">
        <ele>1237.0</ele>
        <time>2020-08-19T06:00:51Z</time>
      </trkpt>
      <trkpt lat="42.680912000" lon="-0.505616000">
        <ele>1236.6</ele>
        <time>2020-08-19T06:00:56Z</time>
      </trkpt>
      <trkpt lat="42.680922000" lon="-0.505506000">
        <ele>1236.0</ele>
        <time>2020-08-19T06:01:04Z</time>
      </trkpt>
      <trkpt lat="42.680952000" lon="-0.505390000">
        <ele>1235.7</ele>
        <time>2020-08-19T06:01:12Z</time>
      </trkpt>
      <trkpt lat="42.680979000" lon="-0.505286000">
        <ele>1235.5</ele>
        <time>2020-08-19T06:01:19Z</time>
      </trkpt>
      <trkpt lat="42.681015000" lon="-0.505169000">
        <ele>1235.5</ele>
        <time>2020-08-19T06:01:26Z</time>
      </trkpt>
      <trkpt lat="42.681049000" lon="-0.505055000">
        <ele>1235.5</ele>
        <time>2020-08-19T06:01:34Z</time>
      </trkpt>
      <trkpt lat="42.681092000" lon="-0.504938000">
        <ele>1235.7</ele>
        <time>2020-08-19T06:01:41Z</time>
      </trkpt>
      <trkpt lat="42.681113000" lon="-0.504823000">
        <ele>1235.9</ele>
        <time>2020-08-19T06:01:47Z</time>
      </trkpt>
      <trkpt lat="42.681139000" lon="-0.504706000">
        <ele>1236.0</ele>
        <time>2020-08-19T06:01:55Z</time>
      </trkpt>
      <trkpt lat="42.681170000" lon="-0.504599000">
        <ele>1236.0</ele>
        <time>2020-08-19T06:02:01Z</time>
      </trkpt>
      <trkpt lat="42.681181000" lon="-0.504482000">
        <ele>1236.1</ele>
        <time>2020-08-19T06:02:07Z</time>
      </trkpt>
      <trkpt lat="42.681206000" lon="-0.504371000">
        <ele>1236.0</ele>
        <time>2020-08-19T06:02:15Z</time>
      </trkpt>
      <trkpt lat="42.681226000" lon="-0.504251000">
        <ele>1236.0</ele>
        <time>2020-08-19T06:02:24Z</time>
      </trkpt>
      <trkpt lat="42.681255000" lon="-0.504142000">
        <ele>1236.0</ele>
        <time>2020-08-19T06:02:31Z</time>
      </trkpt>
      <trkpt lat="42.681281000" lon="-0.504031000">
        <ele>1236.1</ele>
        <time>2020-08-19T06:02:37Z</time>
      </trkpt>
      <trkpt lat="42.681299000" lon="-0.503910000">
        <ele>1236.5</ele>
        <time>2020-08-19T06:02:44Z</time>
      </trkpt>
      <trkpt lat="42.681328000" lon="-0.503799000">
        <ele>1236.9</ele>
        <time>2020-08-19T06:02:51Z</time>
      </trkpt>
      <trkpt lat="42.681319000" lon="-0.503680000">
        <ele>1237.5</ele>
        <time>2020-08-19T06:03:02Z</time>
      </trkpt>
      <trkpt lat="42.681307000" lon="-0.503552000">
        <ele>1238.3</ele>
        <time>2020-08-19T06:03:09Z</time>
      </trkpt>
      <trkpt lat="42.681294000" lon="-0.503441000">
        <ele>1239.1</ele>
        <time>2020-08-19T06:03:18Z</time>
      </trkpt>
      <trkpt lat="42.681251000" lon="-0.503337000">
        <ele>1240.1</ele>
        <time>2020-08-19T06:03:25Z</time>
      </trkpt>
      <trkpt lat="42.681227000" lon="-0.503219000">
        <ele>1241.1</ele>
        <time>2020-08-19T06:03:33Z</time>
      </trkpt>
      <trkpt lat="42.681208000" lon="-0.503102000">
        <ele>1242.2</ele>
        <time>2020-08-19T06:03:41Z</time>
      </trkpt>
      <trkpt lat="42.681204000" lon="-0.502981000">
        <ele>1243.3</ele>
        <time>2020-08-19T06:03:49Z</time>
      </trkpt>
      <trkpt lat="42.681198000" lon="-0.502861000">
        <ele>1244.3</ele>
        <time>2020-08-19T06:03:57Z</time>
      </trkpt>
      <trkpt lat="42.681184000" lon="-0.502740000">
        <ele>1245.1</ele>
        <time>2020-08-19T06:04:06Z</time>
      </trkpt>
      <trkpt lat="42.681165000" lon="-0.502623000">
        <ele>1245.7</ele>
        <time>2020-08-19T06:04:16Z</time>
      </trkpt>
      <trkpt lat="42.681169000" lon="-0.502507000">
        <ele>1246.2</ele>
        <time>2020-08-19T06:04:23Z</time>
      </trkpt>
      <trkpt lat="42.681166000" lon="-0.502388000">
        <ele>1246.4</ele>
        <time>2020-08-19T06:04:31Z</time>
      </trkpt>
      <trkpt lat="42.681175000" lon="-0.502270000">
        <ele>1246.5</ele>
        <time>2020-08-19T06:04:40Z</time>
      </trkpt>
      <trkpt lat="42.681185000" lon="-0.502158000">
        <ele>1246.7</ele>
        <time>2020-08-19T06:04:51Z</time>
      </trkpt>
      <trkpt lat="42.681206000" lon="-0.502043000">
        <ele>1247.0</ele>
        <time>2020-08-19T06:05:00Z</time>
      </trkpt>
      <trkpt lat="42.681264000" lon="-0.501954000">
        <ele>1247.4</ele>
        <time>2020-08-19T06:05:08Z</time>
      </trkpt>
      <trkpt lat="42.681312000" lon="-0.501861000">
        <ele>1247.9</ele>
        <time>2020-08-19T06:05:16Z</time>
      </trkpt>
      <trkpt lat="42.681317000" lon="-0.501748000">
        <ele>1248.5</ele>
        <time>2020-08-19T06:05:23Z</time>
      </trkpt>
      <trkpt lat="42.681312000" lon="-0.501633000">
        <ele>1249.3</ele>
        <time>2020-08-19T06:05:31Z</time>
      </trkpt>
      <trkpt lat="42.681281000" lon="-0.501526000">
        <ele>1250.1</ele>
        <time>2020-08-19T06:05:39Z</time>
      </trkpt>
      <trkpt lat="42.681239000" lon="-0.501431000">
        <ele>1251.0</ele>
        <time>2020-08-19T06:05:46Z</time>
      </trkpt>
      <trkpt lat="42.681186000" lon="-0.501343000">
        <ele>1252.0</ele>
        <time>2020-08-19T06:05:54Z</time>
      </trkpt>
      <trkpt lat="42.681187000" lon="-0.501221000">
        <ele>1253.2</ele>
        <time>2020-08-19T06:06:02Z</time>
      </trkpt>
      <trkpt lat="42.681217000" lon="-0.501111000">
        <ele>1254.4</ele>
        <time>2020-08-19T06:06:12Z</time>
      </trkpt>
      <trkpt lat="42.681242000" lon="-0.500996000">
        <ele>1255.5</ele>
        <time>2020-08-19T06:06:20Z</time>
      </trkpt>
      <trkpt lat="42.681261000" lon="-0.500888000">
        <ele>1256.4</ele>
        <time>2020-08-19T06:06:27Z</time>
      </trkpt>
      <trkpt lat="42.681269000" lon="-0.500766000">
        <ele>1257.2</ele>
        <time>2020-08-19T06:06:37Z</time>
      </trkpt>
      <trkpt lat="42.681287000" lon="-0.500656000">
        <ele>1257.8</ele>
        <time>2020-08-19T06:06:45Z</time>
      </trkpt>
      <trkpt lat="42.681299000" lon="-0.500533000">
        <ele>1258.4</ele>
        <time>2020-08-19T06:06:54Z</time>
      </trkpt>
      <trkpt lat="42.681330000" lon="-0.500427000">
        <ele>1259.0</ele>
        <time>2020-08-19T06:07:01Z</time>
      </trkpt>
      <trkpt lat="42.681352000" lon="-0.500309000">
        <ele>1259.8</ele>
        <time>2020-08-19T06:07:08Z</time>
      </trkpt>
      <trkpt lat="42.681362000" lon="-0.500185000">
        <ele>1260.7</ele>
        <time>2020-08-19T06:07:16Z</time>
      </trkpt>
      <trkpt lat="42.681392000" lon="-0.500072000">
        <ele>1261.8</ele>
        <time>2020-08-19T06:07:24Z</time>
      </trkpt>
      <trkpt lat="42.681414000" lon="-0.499954000">
        <ele>1263.0</ele>
        <time>2020-08-19T06:07:38Z</time>
      </trkpt>
      <trkpt lat="42.681332000" lon="-0.499956000">
        <ele>1264.3</ele>
        <time>2020-08-19T06:08:09Z</time>
      </trkpt>
      <trkpt lat="42.681289000" lon="-0.499857000">
        <ele>1265.6</ele>
        <time>2020-08-19T06:08:20Z</time>
      </trkpt>
      <trkpt lat="42.681233000" lon="-0.499771000">
        <ele>1267.1</ele>
        <time>2020-08-19T06:08:30Z</time>
      </trkpt>
      <trkpt lat="42.681195000" lon="-0.499674000">
        <ele>1268.5</ele>
        <time>2020-08-19T06:08:41Z</time>
      </trkpt>
      <trkpt lat="42.681176000" lon="-0.499560000">
        <ele>1269.9</ele>
        <time>2020-08-19T06:08:50Z</time>
      </trkpt>
      <trkpt lat="42.681162000" lon="-0.499445000">
        <ele>1271.1</ele>
        <time>2020-08-19T06:09:02Z</time>
      </trkpt>
      <trkpt lat="42.681157000" lon="-0.499327000">
        <ele>1272.2</ele>
        <time>2020-08-19T06:09:11Z</time>
      </trkpt>
      <trkpt lat="42.681144000" lon="-0.499216000">
        <ele>1273.0</ele>
        <time>2020-08-19T06:09:23Z</time>
      </trkpt>
      <trkpt lat="42.681130000" lon="-0.499097000">
        <ele>1273.6</ele>
        <time>2020-08-19T06:09:34Z</time>
      </trkpt>
      <trkpt lat="42.681145000" lon="-0.498979000">
        <ele>1274.1</ele>
        <time>2020-08-19T06:09:45Z</time>
      </trkpt>
      <trkpt lat="42.681221000" lon="-0.498919000">
        <ele>1274.5</ele>
        <time>2020-08-19T06:09:54Z</time>
      </trkpt>
      <trkpt lat="42.681181000" lon="-0.498820000">
        <ele>1274.9</ele>
        <time>2020-08-19T06:10:02Z</time>
      </trkpt>
      <trkpt lat="42.681201000" lon="-0.498703000">
        <ele>1275.5</ele>
        <time>2020-08-19T06:10:12Z</time>
      </trkpt>
      <trkpt lat="42.681210000" lon="-0.498582000">
        <ele>1276.0</ele>
        <time>2020-08-19T06:10:20Z</time>
      </trkpt>
      <trkpt lat="42.681230000" lon="-0.498465000">
        <ele>1276.5</ele>
        <time>2020-08-19T06:10:26Z</time>
      </trkpt>
      <trkpt lat="42.681218000" lon="-0.498352000">
        <ele>1277.3</ele>
        <time>2020-08-19T06:10:34Z</time>
      </trkpt>
      <trkpt lat="42.681178000" lon="-0.498242000">
        <ele>1278.2</ele>
        <time>2020-08-19T06:10:42Z</time>
      </trkpt>
      <trkpt lat="42.681156000" lon="-0.498132000">
        <ele>1279.1</ele>
        <time>2020-08-19T06:10:52Z</time>
      </trkpt>
      <trkpt lat="42.681209000" lon="-0.498035000">
        <ele>1280.2</ele>
        <time>2020-08-19T06:11:03Z</time>
      </trkpt>
      <trkpt lat="42.681239000" lon="-0.497918000">
        <ele>1281.5</ele>
        <time>2020-08-19T06:11:10Z</time>
      </trkpt>
      <trkpt lat="42.681264000" lon="-0.497812000">
        <ele>1282.9</ele>
        <time>2020-08-19T06:11:16Z</time>
      </trkpt>
      <trkpt lat="42.681281000" lon="-0.497698000">
        <ele>1284.5</ele>
        <time>2020-08-19T06:11:22Z</time>
      </trkpt>
      <trkpt lat="42.681290000" lon="-0.497574000">
        <ele>1286.0</ele>
        <time>2020-08-19T06:11:29Z</time>
      </trkpt>
      <trkpt lat="42.681303000" lon="-0.497455000">
        <ele>1287.3</ele>
        <time>2020-08-19T06:11:36Z</time>
      </trkpt>
      <trkpt lat="42.681316000" lon="-0.497337000">
        <ele>1288.7</ele>
        <time>2020-08-19T06:11:46Z</time>
      </trkpt>
      <trkpt lat="42.681303000" lon="-0.497225000">
        <ele>1290.0</ele>
        <time>2020-08-19T06:11:57Z</time>
      </trkpt>
      <trkpt lat="42.681267000" lon="-0.497125000">
        <ele>1290.9</ele>
        <time>2020-08-19T06:12:03Z</time>
      </trkpt>
      <trkpt lat="42.681238000" lon="-0.497015000">
        <ele>1291.7</ele>
        <time>2020-08-19T06:12:21Z</time>
      </trkpt>
      <trkpt lat="42.681266000" lon="-0.496907000">
        <ele>1292.5</ele>
        <time>2020-08-19T06:12:29Z</time>
      </trkpt>
      <trkpt lat="42.681277000" lon="-0.496792000">
        <ele>1293.3</ele>
        <time>2020-08-19T06:12:48Z</time>
      </trkpt>
      <trkpt lat="42.681323000" lon="-0.496700000">
        <ele>1294.1</ele>
        <time>2020-08-19T06:13:09Z</time>
      </trkpt>
      <trkpt lat="42.681381000" lon="-0.496788000">
        <ele>1295.0</ele>
        <time>2020-08-19T06:15:02Z</time>
      </trkpt>
      <trkpt lat="42.681450000" lon="-0.496849000">
        <ele>1296.0</ele>
        <time>2020-08-19T06:15:17Z</time>
      </trkpt>
      <trkpt lat="42.681537000" lon="-0.496850000">
        <ele>1297.0</ele>
        <time>2020-08-19T06:15:36Z</time>
      </trkpt>
      <trkpt lat="42.681583000" lon="-0.496756000">
        <ele>1298.3</ele>
        <time>2020-08-19T06:15:57Z</time>
      </trkpt>
      <trkpt lat="42.681598000" lon="-0.496645000">
        <ele>1299.7</ele>
        <time>2020-08-19T06:16:10Z</time>
      </trkpt>
      <trkpt lat="42.681598000" lon="-0.496533000">
        <ele>1301.5</ele>
        <time>2020-08-19T06:16:23Z</time>
      </trkpt>
      <trkpt lat="42.681627000" lon="-0.496423000">
        <ele>1303.6</ele>
        <time>2020-08-19T06:16:33Z</time>
      </trkpt>
      <trkpt lat="42.681654000" lon="-0.496312000">
        <ele>1306.1</ele>
        <time>2020-08-19T06:16:44Z</time>
      </trkpt>
      <trkpt lat="42.681688000" lon="-0.496212000">
        <ele>1308.7</ele>
        <time>2020-08-19T06:16:55Z</time>
      </trkpt>
      <trkpt lat="42.681752000" lon="-0.496130000">
        <ele>1311.3</ele>
        <time>2020-08-19T06:17:08Z</time>
      </trkpt>
      <trkpt lat="42.681782000" lon="-0.496016000">
        <ele>1313.8</ele>
        <time>2020-08-19T06:17:18Z</time>
      </trkpt>
      <trkpt lat="42.681824000" lon="-0.495921000">
        <ele>1316.3</ele>
        <time>2020-08-19T06:17:30Z</time>
      </trkpt>
      <trkpt lat="42.681863000" lon="-0.495817000">
        <ele>1318.6</ele>
        <time>2020-08-19T06:17:40Z</time>
      </trkpt>
      <trkpt lat="42.681932000" lon="-0.495749000">
        <ele>1321.0</ele>
        <time>2020-08-19T06:17:52Z</time>
      </trkpt>
      <trkpt lat="42.681968000" lon="-0.495645000">
        <ele>1323.2</ele>
        <time>2020-08-19T06:18:07Z</time>
      </trkpt>
      <trkpt lat="42.682008000" lon="-0.495548000">
        <ele>1325.3</ele>
        <time>2020-08-19T06:18:19Z</time>
      </trkpt>
      <trkpt lat="42.682071000" lon="-0.495469000">
        <ele>1327.4</ele>
        <time>2020-08-19T06:18:30Z</time>
      </trkpt>
      <trkpt lat="42.682132000" lon="-0.495389000">
        <ele>1329.5</ele>
        <time>2020-08-19T06:18:41Z</time>
      </trkpt>
      <trkpt lat="42.682180000" lon="-0.495287000">
        <ele>1331.7</ele>
        <time>2020-08-19T06:18:51Z</time>
      </trkpt>
      <trkpt lat="42.682239000" lon="-0.495211000">
        <ele>1334.0</ele>
        <time>2020-08-19T06:19:03Z</time>
      </trkpt>
      <trkpt lat="42.682268000" lon="-0.495104000">
        <ele>1336.5</ele>
        <time>2020-08-19T06:19:12Z</time>
      </trkpt>
      <trkpt lat="42.682298000" lon="-0.494990000">
        <ele>1338.9</ele>
        <time>2020-08-19T06:19:22Z</time>
      </trkpt>
      <trkpt lat="42.682336000" lon="-0.494882000">
        <ele>1341.3</ele>
        <time>2020-08-19T06:19:33Z</time>
      </trkpt>
      <trkpt lat="42.682399000" lon="-0.494808000">
        <ele>1343.8</ele>
        <time>2020-08-19T06:19:45Z</time>
      </trkpt>
      <trkpt lat="42.682461000" lon="-0.494738000">
        <ele>1346.4</ele>
        <time>2020-08-19T06:19:58Z</time>
      </trkpt>
      <trkpt lat="42.682512000" lon="-0.494644000">
        <ele>1349.1</ele>
        <time>2020-08-19T06:20:10Z</time>
      </trkpt>
      <trkpt lat="42.682574000" lon="-0.494573000">
        <ele>1352.0</ele>
        <time>2020-08-19T06:20:22Z</time>
      </trkpt>
      <trkpt lat="42.682646000" lon="-0.494515000">
        <ele>1355.0</ele>
        <time>2020-08-19T06:20:32Z</time>
      </trkpt>
      <trkpt lat="42.682688000" lon="-0.494418000">
        <ele>1358.1</ele>
        <time>2020-08-19T06:20:44Z</time>
      </trkpt>
      <trkpt lat="42.682712000" lon="-0.494311000">
        <ele>1361.0</ele>
        <time>2020-08-19T06:20:58Z</time>
      </trkpt>
      <trkpt lat="42.682764000" lon="-0.494221000">
        <ele>1363.7</ele>
        <time>2020-08-19T06:21:08Z</time>
      </trkpt>
      <trkpt lat="42.682781000" lon="-0.494110000">
        <ele>1366.5</ele>
        <time>2020-08-19T06:21:22Z</time>
      </trkpt>
      <trkpt lat="42.682766000" lon="-0.493995000">
        <ele>1369.2</ele>
        <time>2020-08-19T06:21:34Z</time>
      </trkpt>
      <trkpt lat="42.682790000" lon="-0.493887000">
        <ele>1372.0</ele>
        <time>2020-08-19T06:21:47Z</time>
      </trkpt>
      <trkpt lat="42.682808000" lon="-0.493778000">
        <ele>1374.6</ele>
        <time>2020-08-19T06:21:56Z</time>
      </trkpt>
      <trkpt lat="42.682844000" lon="-0.493673000">
        <ele>1377.2</ele>
        <time>2020-08-19T06:22:08Z</time>
      </trkpt>
      <trkpt lat="42.682813000" lon="-0.493569000">
        <ele>1379.7</ele>
        <time>2020-08-19T06:22:23Z</time>
      </trkpt>
      <trkpt lat="42.682821000" lon="-0.493452000">
        <ele>1382.2</ele>
        <time>2020-08-19T06:22:43Z</time>
      </trkpt>
      <trkpt lat="42.682800000" lon="-0.493335000">
        <ele>1384.4</ele>
        <time>2020-08-19T06:22:54Z</time>
      </trkpt>
      <trkpt lat="42.682777000" lon="-0.493227000">
        <ele>1386.2</ele>
        <time>2020-08-19T06:23:08Z</time>
      </trkpt>
      <trkpt lat="42.682738000" lon="-0.493129000">
        <ele>1388.0</ele>
        <time>2020-08-19T06:23:23Z</time>
      </trkpt>
      <trkpt lat="42.682773000" lon="-0.493020000">
        <ele>1389.9</ele>
        <time>2020-08-19T06:23:36Z</time>
      </trkpt>
      <trkpt lat="42.682779000" lon="-0.492906000">
        <ele>1391.6</ele>
        <time>2020-08-19T06:24:19Z</time>
      </trkpt>
      <trkpt lat="42.682841000" lon="-0.492832000">
        <ele>1393.5</ele>
        <time>2020-08-19T06:30:14Z</time>
      </trkpt>
      <trkpt lat="42.682908000" lon="-0.492760000">
        <ele>1395.2</ele>
        <time>2020-08-19T06:30:25Z</time>
      </trkpt>
      <trkpt lat="42.682972000" lon="-0.492687000">
        <ele>1396.8</ele>
        <time>2020-08-19T06:30:34Z</time>
      </trkpt>
      <trkpt lat="42.682998000" lon="-0.492581000">
        <ele>1398.6</ele>
        <time>2020-08-19T06:30:43Z</time>
      </trkpt>
      <trkpt lat="42.683049000" lon="-0.492483000">
        <ele>1400.5</ele>
        <time>2020-08-19T06:30:52Z</time>
      </trkpt>
      <trkpt lat="42.683099000" lon="-0.492386000">
        <ele>1402.7</ele>
        <time>2020-08-19T06:31:01Z</time>
      </trkpt>
      <trkpt lat="42.683164000" lon="-0.492304000">
        <ele>1405.1</ele>
        <time>2020-08-19T06:31:10Z</time>
      </trkpt>
      <trkpt lat="42.683225000" lon="-0.492232000">
        <ele>1407.4</ele>
        <time>2020-08-19T06:31:21Z</time>
      </trkpt>
      <trkpt lat="42.683278000" lon="-0.492136000">
        <ele>1409.8</ele>
        <time>2020-08-19T06:31:32Z</time>
      </trkpt>
      <trkpt lat="42.683333000" lon="-0.492049000">
        <ele>1412.3</ele>
        <time>2020-08-19T06:31:44Z</time>
      </trkpt>
      <trkpt lat="42.683377000" lon="-0.491952000">
        <ele>1414.8</ele>
        <time>2020-08-19T06:31:53Z</time>
      </trkpt>
      <trkpt lat="42.683429000" lon="-0.491859000">
        <ele>1417.4</ele>
        <time>2020-08-19T06:32:03Z</time>
      </trkpt>
      <trkpt lat="42.683502000" lon="-0.491803000">
        <ele>1420.1</ele>
        <time>2020-08-19T06:32:16Z</time>
      </trkpt>
      <trkpt lat="42.683547000" lon="-0.491706000">
        <ele>1422.8</ele>
        <time>2020-08-19T06:32:26Z</time>
      </trkpt>
      <trkpt lat="42.683595000" lon="-0.491614000">
        <ele>1425.5</ele>
        <time>2020-08-19T06:32:37Z</time>
      </trkpt>
      <trkpt lat="42.683643000" lon="-0.491525000">
        <ele>1428.0</ele>
        <time>2020-08-19T06:32:48Z</time>
      </trkpt>
      <trkpt lat="42.683672000" lon="-0.491419000">
        <ele>1430.1</ele>
        <time>2020-08-19T06:33:00Z</time>
      </trkpt>
      <trkpt lat="42.683704000" lon="-0.491317000">
        <ele>1432.1</ele>
        <time>2020-08-19T06:33:12Z</time>
      </trkpt>
      <trkpt lat="42.683747000" lon="-0.491222000">
        <ele>1434.5</ele>
        <time>2020-08-19T06:33:27Z</time>
      </trkpt>
      <trkpt lat="42.683771000" lon="-0.491115000">
        <ele>1437.1</ele>
        <time>2020-08-19T06:33:41Z</time>
      </trkpt>
      <trkpt lat="42.683812000" lon="-0.491008000">
        <ele>1439.7</ele>
        <time>2020-08-19T06:33:59Z</time>
      </trkpt>
      <trkpt lat="42.683870000" lon="-0.490921000">
        <ele>1442.5</ele>
        <time>2020-08-19T06:34:09Z</time>
      </trkpt>
      <trkpt lat="42.683911000" lon="-0.490824000">
        <ele>1445.4</ele>
        <time>2020-08-19T06:34:22Z</time>
      </trkpt>
      <trkpt lat="42.683932000" lon="-0.490715000">
        <ele>1448.1</ele>
        <time>2020-08-19T06:34:35Z</time>
      </trkpt>
      <trkpt lat="42.683910000" lon="-0.490597000">
        <ele>1450.9</ele>
        <time>2020-08-19T06:34:44Z</time>
      </trkpt>
      <trkpt lat="42.683937000" lon="-0.490484000">
        <ele>1453.6</ele>
        <time>2020-08-19T06:34:56Z</time>
      </trkpt>
      <trkpt lat="42.683965000" lon="-0.490377000">
        <ele>1456.4</ele>
        <time>2020-08-19T06:35:12Z</time>
      </trkpt>
      <trkpt lat="42.684011000" lon="-0.490284000">
        <ele>1459.4</ele>
        <time>2020-08-19T06:35:24Z</time>
      </trkpt>
      <trkpt lat="42.684078000" lon="-0.490218000">
        <ele>1462.5</ele>
        <time>2020-08-19T06:35:44Z</time>
      </trkpt>
      <trkpt lat="42.684134000" lon="-0.490137000">
        <ele>1465.5</ele>
        <time>2020-08-19T06:35:54Z</time>
      </trkpt>
      <trkpt lat="42.684209000" lon="-0.490087000">
        <ele>1468.5</ele>
        <time>2020-08-19T06:36:04Z</time>
      </trkpt>
      <trkpt lat="42.684256000" lon="-0.489991000">
        <ele>1471.3</ele>
        <time>2020-08-19T06:36:18Z</time>
      </trkpt>
      <trkpt lat="42.684309000" lon="-0.489901000">
        <ele>1473.6</ele>
        <time>2020-08-19T06:36:35Z</time>
      </trkpt>
      <trkpt lat="42.684361000" lon="-0.489808000">
        <ele>1475.8</ele>
        <time>2020-08-19T06:36:45Z</time>
      </trkpt>
      <trkpt lat="42.684394000" lon="-0.489705000">
        <ele>1478.1</ele>
        <time>2020-08-19T06:36:57Z</time>
      </trkpt>
      <trkpt lat="42.684452000" lon="-0.489626000">
        <ele>1480.4</ele>
        <time>2020-08-19T06:37:07Z</time>
      </trkpt>
      <trkpt lat="42.684490000" lon="-0.489523000">
        <ele>1482.5</ele>
        <time>2020-08-19T06:37:25Z</time>
      </trkpt>
      <trkpt lat="42.684572000" lon="-0.489492000">
        <ele>1484.5</ele>
        <time>2020-08-19T06:37:34Z</time>
      </trkpt>
      <trkpt lat="42.684643000" lon="-0.489436000">
        <ele>1486.5</ele>
        <time>2020-08-19T06:37:51Z</time>
      </trkpt>
      <trkpt lat="42.684645000" lon="-0.489319000">
        <ele>1488.4</ele>
        <time>2020-08-19T06:38:07Z</time>
      </trkpt>
      <trkpt lat="42.684645000" lon="-0.489203000">
        <ele>1490.4</ele>
        <time>2020-08-19T06:38:25Z</time>
      </trkpt>
      <trkpt lat="42.684699000" lon="-0.489114000">
        <ele>1492.5</ele>
        <time>2020-08-19T06:38:37Z</time>
      </trkpt>
      <trkpt lat="42.684750000" lon="-0.489028000">
        <ele>1494.9</ele>
        <time>2020-08-19T06:38:49Z</time>
      </trkpt>
      <trkpt lat="42.684756000" lon="-0.488911000">
        <ele>1497.7</ele>
        <time>2020-08-19T06:39:01Z</time>
      </trkpt>
      <trkpt lat="42.684771000" lon="-0.488798000">
        <ele>1500.8</ele>
        <time>2020-08-19T06:39:14Z</time>
      </trkpt>
      <trkpt lat="42.684746000" lon="-0.488662000">
        <ele>1504.0</ele>
        <time>2020-08-19T06:39:26Z</time>
      </trkpt>
      <trkpt lat="42.684672000" lon="-0.488603000">
        <ele>1507.2</ele>
        <time>2020-08-19T06:39:30Z</time>
      </trkpt>
      <trkpt lat="42.684613000" lon="-0.488526000">
        <ele>1510.5</ele>
        <time>2020-08-19T06:39:40Z</time>
      </trkpt>
      <trkpt lat="42.684596000" lon="-0.488412000">
        <ele>1513.9</ele>
        <time>2020-08-19T06:40:03Z</time>
      </trkpt>
      <trkpt lat="42.684560000" lon="-0.488310000">
        <ele>1517.0</ele>
        <time>2020-08-19T06:40:15Z</time>
      </trkpt>
      <trkpt lat="42.684532000" lon="-0.488204000">
        <ele>1519.8</ele>
        <time>2020-08-19T06:40:28Z</time>
      </trkpt>
      <trkpt lat="42.684528000" lon="-0.488090000">
        <ele>1522.3</ele>
        <time>2020-08-19T06:40:44Z</time>
      </trkpt>
      <trkpt lat="42.684504000" lon="-0.487980000">
        <ele>1524.4</ele>
        <time>2020-08-19T06:40:55Z</time>
      </trkpt>
      <trkpt lat="42.684522000" lon="-0.487869000">
        <ele>1526.2</ele>
        <time>2020-08-19T06:41:10Z</time>
      </trkpt>
      <trkpt lat="42.684578000" lon="-0.487785000">
        <ele>1527.8</ele>
        <time>2020-08-19T06:41:20Z</time>
      </trkpt>
      <trkpt lat="42.684612000" lon="-0.487677000">
        <ele>1529.2</ele>
        <time>2020-08-19T06:41:32Z</time>
      </trkpt>
      <trkpt lat="42.684629000" lon="-0.487562000">
        <ele>1530.3</ele>
        <time>2020-08-19T06:41:43Z</time>
      </trkpt>
      <trkpt lat="42.684653000" lon="-0.487452000">
        <ele>1531.3</ele>
        <time>2020-08-19T06:41:55Z</time>
      </trkpt>
      <trkpt lat="42.684660000" lon="-0.487341000">
        <ele>1532.2</ele>
        <time>2020-08-19T06:42:06Z</time>
      </trkpt>
      <trkpt lat="42.684671000" lon="-0.487222000">
        <ele>1533.3</ele>
        <time>2020-08-19T06:42:16Z</time>
      </trkpt>
      <trkpt lat="42.684689000" lon="-0.487112000">
        <ele>1534.6</ele>
        <time>2020-08-19T06:42:25Z</time>
      </trkpt>
      <trkpt lat="42.684707000" lon="-0.486997000">
        <ele>1536.2</ele>
        <time>2020-08-19T06:42:34Z</time>
      </trkpt>
      <trkpt lat="42.684746000" lon="-0.486891000">
        <ele>1537.9</ele>
        <time>2020-08-19T06:42:43Z</time>
      </trkpt>
      <trkpt lat="42.684736000" lon="-0.486779000">
        <ele>1539.9</ele>
        <time>2020-08-19T06:49:47Z</time>
      </trkpt>
      <trkpt lat="42.684714000" lon="-0.486672000">
        <ele>1542.1</ele>
        <time>2020-08-19T06:49:59Z</time>
      </trkpt>
      <trkpt lat="42.684707000" lon="-0.486562000">
        <ele>1544.1</ele>
        <time>2020-08-19T06:50:09Z</time>
      </trkpt>
      <trkpt lat="42.684712000" lon="-0.486451000">
        <ele>1546.2</ele>
        <time>2020-08-19T06:50:21Z</time>
      </trkpt>
      <trkpt lat="42.684696000" lon="-0.486338000">
        <ele>1548.5</ele>
        <time>2020-08-19T06:50:32Z</time>
      </trkpt>
      <trkpt lat="42.684700000" lon="-0.486227000">
        <ele>1550.8</ele>
        <time>2020-08-19T06:50:42Z</time>
      </trkpt>
      <trkpt lat="42.684725000" lon="-0.486111000">
        <ele>1553.1</ele>
        <time>2020-08-19T06:50:54Z</time>
      </trkpt>
      <trkpt lat="42.684788000" lon="-0.486028000">
        <ele>1555.3</ele>
        <time>2020-08-19T06:51:04Z</time>
      </trkpt>
      <trkpt lat="42.684793000" lon="-0.485910000">
        <ele>1557.4</ele>
        <time>2020-08-19T06:51:16Z</time>
      </trkpt>
      <trkpt lat="42.684778000" lon="-0.485800000">
        <ele>1559.5</ele>
        <time>2020-08-19T06:51:25Z</time>
      </trkpt>
      <trkpt lat="42.684766000" lon="-0.485687000">
        <ele>1561.4</ele>
        <time>2020-08-19T06:51:37Z</time>
      </trkpt>
      <trkpt lat="42.684780000" lon="-0.485576000">
        <ele>1563.1</ele>
        <time>2020-08-19T06:51:50Z</time>
      </trkpt>
      <trkpt lat="42.684726000" lon="-0.485490000">
        <ele>1564.6</ele>
        <time>2020-08-19T06:52:06Z</time>
      </trkpt>
      <trkpt lat="42.684715000" lon="-0.485381000">
        <ele>1566.3</ele>
        <time>2020-08-19T06:52:17Z</time>
      </trkpt>
      <trkpt lat="42.684672000" lon="-0.485284000">
        <ele>1568.0</ele>
        <time>2020-08-19T06:52:29Z</time>
      </trkpt>
      <trkpt lat="42.684681000" lon="-0.485173000">
        <ele>1569.7</ele>
        <time>2020-08-19T06:52:41Z</time>
      </trkpt>
      <trkpt lat="42.684684000" lon="-0.485057000">
        <ele>1571.5</ele>
        <time>2020-08-19T06:52:52Z</time>
      </trkpt>
      <trkpt lat="42.684704000" lon="-0.484944000">
        <ele>1573.5</ele>
        <time>2020-08-19T06:53:05Z</time>
      </trkpt>
      <trkpt lat="42.684741000" lon="-0.484844000">
        <ele>1575.5</ele>
        <time>2020-08-19T06:53:15Z</time>
      </trkpt>
      <trkpt lat="42.684753000" lon="-0.484721000">
        <ele>1577.5</ele>
        <time>2020-08-19T06:53:26Z</time>
      </trkpt>
      <trkpt lat="42.684777000" lon="-0.484614000">
        <ele>1579.5</ele>
        <time>2020-08-19T06:53:35Z</time>
      </trkpt>
      <trkpt lat="42.684788000" lon="-0.484497000">
        <ele>1581.7</ele>
        <time>2020-08-19T06:53:43Z</time>
      </trkpt>
      <trkpt lat="42.684796000" lon="-0.484386000">
        <ele>1584.1</ele>
        <time>2020-08-19T06:53:51Z</time>
      </trkpt>
      <trkpt lat="42.684801000" lon="-0.484267000">
        <ele>1586.5</ele>
        <time>2020-08-19T06:54:01Z</time>
      </trkpt>
      <trkpt lat="42.684804000" lon="-0.484152000">
        <ele>1589.1</ele>
        <time>2020-08-19T06:54:11Z</time>
      </trkpt>
      <trkpt lat="42.684803000" lon="-0.484036000">
        <ele>1591.5</ele>
        <time>2020-08-19T06:54:20Z</time>
      </trkpt>
      <trkpt lat="42.684810000" lon="-0.483915000">
        <ele>1593.6</ele>
        <time>2020-08-19T06:54:32Z</time>
      </trkpt>
      <trkpt lat="42.684814000" lon="-0.483793000">
        <ele>1595.6</ele>
        <time>2020-08-19T06:54:41Z</time>
      </trkpt>
      <trkpt lat="42.684839000" lon="-0.483680000">
        <ele>1597.4</ele>
        <time>2020-08-19T06:54:50Z</time>
      </trkpt>
      <trkpt lat="42.684858000" lon="-0.483567000">
        <ele>1598.7</ele>
        <time>2020-08-19T06:54:59Z</time>
      </trkpt>
      <trkpt lat="42.684920000" lon="-0.483490000">
        <ele>1600.0</ele>
        <time>2020-08-19T06:55:07Z</time>
      </trkpt>
      <trkpt lat="42.684989000" lon="-0.483425000">
        <ele>1601.0</ele>
        <time>2020-08-19T06:55:16Z</time>
      </trkpt>
      <trkpt lat="42.685067000" lon="-0.483371000">
        <ele>1601.9</ele>
        <time>2020-08-19T06:55:35Z</time>
      </trkpt>
      <trkpt lat="42.685144000" lon="-0.483404000">
        <ele>1602.6</ele>
        <time>2020-08-19T06:55:46Z</time>
      </trkpt>
      <trkpt lat="42.685228000" lon="-0.483442000">
        <ele>1603.4</ele>
        <time>2020-08-19T06:55:55Z</time>
      </trkpt>
      <trkpt lat="42.685308000" lon="-0.483390000">
        <ele>1603.9</ele>
        <time>2020-08-19T06:56:10Z</time>
      </trkpt>
      <trkpt lat="42.685387000" lon="-0.483321000">
        <ele>1604.5</ele>
        <time>2020-08-19T06:56:17Z</time>
      </trkpt>
      <trkpt lat="42.685441000" lon="-0.483221000">
        <ele>1605.3</ele>
        <time>2020-08-19T06:56:24Z</time>
      </trkpt>
      <trkpt lat="42.685511000" lon="-0.483151000">
        <ele>1606.1</ele>
        <time>2020-08-19T06:56:34Z</time>
      </trkpt>
      <trkpt lat="42.685544000" lon="-0.483048000">
        <ele>1607.3</ele>
        <time>2020-08-19T06:56:43Z</time>
      </trkpt>
      <trkpt lat="42.685595000" lon="-0.482962000">
        <ele>1608.6</ele>
        <time>2020-08-19T06:56:52Z</time>
      </trkpt>
      <trkpt lat="42.685611000" lon="-0.482850000">
        <ele>1610.0</ele>
        <time>2020-08-19T06:56:59Z</time>
      </trkpt>
      <trkpt lat="42.685628000" lon="-0.482734000">
        <ele>1611.3</ele>
        <time>2020-08-19T06:57:05Z</time>
      </trkpt>
      <trkpt lat="42.685644000" lon="-0.482622000">
        <ele>1612.5</ele>
        <time>2020-08-19T06:57:15Z</time>
      </trkpt>
      <trkpt lat="42.685638000" lon="-0.482507000">
        <ele>1613.5</ele>
        <time>2020-08-19T06:57:21Z</time>
      </trkpt>
      <trkpt lat="42.685647000" lon="-0.482382000">
        <ele>1614.3</ele>
        <time>2020-08-19T06:57:28Z</time>
      </trkpt>
      <trkpt lat="42.685657000" lon="-0.482266000">
        <ele>1615.1</ele>
        <time>2020-08-19T06:57:36Z</time>
      </trkpt>
      <trkpt lat="42.685722000" lon="-0.482198000">
        <ele>1615.7</ele>
        <time>2020-08-19T06:57:42Z</time>
      </trkpt>
      <trkpt lat="42.685751000" lon="-0.482084000">
        <ele>1616.3</ele>
        <time>2020-08-19T06:57:53Z</time>
      </trkpt>
      <trkpt lat="42.685795000" lon="-0.481986000">
        <ele>1616.5</ele>
        <time>2020-08-19T06:58:01Z</time>
      </trkpt>
      <trkpt lat="42.685824000" lon="-0.481877000">
        <ele>1616.5</ele>
        <time>2020-08-19T06:58:08Z</time>
      </trkpt>
      <trkpt lat="42.685830000" lon="-0.481750000">
        <ele>1616.3</ele>
        <time>2020-08-19T06:58:16Z</time>
      </trkpt>
      <trkpt lat="42.685842000" lon="-0.481628000">
        <ele>1616.0</ele>
        <time>2020-08-19T06:58:23Z</time>
      </trkpt>
      <trkpt lat="42.685861000" lon="-0.481504000">
        <ele>1615.8</ele>
        <time>2020-08-19T06:58:30Z</time>
      </trkpt>
      <trkpt lat="42.685905000" lon="-0.481405000">
        <ele>1615.5</ele>
        <time>2020-08-19T06:58:41Z</time>
      </trkpt>
      <trkpt lat="42.685974000" lon="-0.481327000">
        <ele>1615.4</ele>
        <time>2020-08-19T06:58:51Z</time>
      </trkpt>
      <trkpt lat="42.686015000" lon="-0.481231000">
        <ele>1615.2</ele>
        <time>2020-08-19T06:58:58Z</time>
      </trkpt>
      <trkpt lat="42.686053000" lon="-0.481125000">
        <ele>1615.1</ele>
        <time>2020-08-19T06:59:05Z</time>
      </trkpt>
      <trkpt lat="42.686085000" lon="-0.481019000">
        <ele>1615.2</ele>
        <time>2020-08-19T06:59:14Z</time>
      </trkpt>
      <trkpt lat="42.686102000" lon="-0.480896000">
        <ele>1615.5</ele>
        <time>2020-08-19T06:59:24Z</time>
      </trkpt>
      <trkpt lat="42.686106000" lon="-0.480776000">
        <ele>1615.6</ele>
        <time>2020-08-19T06:59:33Z</time>
      </trkpt>
      <trkpt lat="42.686127000" lon="-0.480657000">
        <ele>1615.8</ele>
        <time>2020-08-19T06:59:41Z</time>
      </trkpt>
      <trkpt lat="42.686116000" lon="-0.480541000">
        <ele>1615.8</ele>
        <time>2020-08-19T06:59:48Z</time>
      </trkpt>
      <trkpt lat="42.686076000" lon="-0.480437000">
        <ele>1615.9</ele>
        <time>2020-08-19T07:00:00Z</time>
      </trkpt>
      <trkpt lat="42.686025000" lon="-0.480345000">
        <ele>1615.9</ele>
        <time>2020-08-19T07:00:08Z</time>
      </trkpt>
      <trkpt lat="42.686069000" lon="-0.480248000">
        <ele>1616.0</ele>
        <time>2020-08-19T07:00:27Z</time>
      </trkpt>
      <trkpt lat="42.686097000" lon="-0.480138000">
        <ele>1616.2</ele>
        <time>2020-08-19T07:00:41Z</time>
      </trkpt>
      <trkpt lat="42.686141000" lon="-0.480045000">
        <ele>1616.5</ele>
        <time>2020-08-19T07:00:48Z</time>
      </trkpt>
      <trkpt lat="42.686150000" lon="-0.479921000">
        <ele>1616.5</ele>
        <time>2020-08-19T07:00:57Z</time>
      </trkpt>
      <trkpt lat="42.686202000" lon="-0.479833000">
        <ele>1616.4</ele>
        <time>2020-08-19T07:01:05Z</time>
      </trkpt>
      <trkpt lat="42.686242000" lon="-0.479729000">
        <ele>1615.9</ele>
        <time>2020-08-19T07:01:14Z</time>
      </trkpt>
      <trkpt lat="42.686254000" lon="-0.479619000">
        <ele>1615.6</ele>
        <time>2020-08-19T07:01:21Z</time>
      </trkpt>
      <trkpt lat="42.686262000" lon="-0.479504000">
        <ele>1615.5</ele>
        <time>2020-08-19T07:01:29Z</time>
      </trkpt>
      <trkpt lat="42.686303000" lon="-0.479407000">
        <ele>1615.5</ele>
        <time>2020-08-19T07:01:36Z</time>
      </trkpt>
      <trkpt lat="42.686355000" lon="-0.479310000">
        <ele>1615.5</ele>
        <time>2020-08-19T07:01:43Z</time>
      </trkpt>
      <trkpt lat="42.686405000" lon="-0.479208000">
        <ele>1615.9</ele>
        <time>2020-08-19T07:01:50Z</time>
      </trkpt>
      <trkpt lat="42.686424000" lon="-0.479088000">
        <ele>1616.5</ele>
        <time>2020-08-19T07:01:58Z</time>
      </trkpt>
      <trkpt lat="42.686441000" lon="-0.478975000">
        <ele>1617.1</ele>
        <time>2020-08-19T07:02:06Z</time>
      </trkpt>
      <trkpt lat="42.686479000" lon="-0.478868000">
        <ele>1617.6</ele>
        <time>2020-08-19T07:02:15Z</time>
      </trkpt>
      <trkpt lat="42.686505000" lon="-0.478759000">
        <ele>1618.0</ele>
        <time>2020-08-19T07:02:26Z</time>
      </trkpt>
      <trkpt lat="42.686501000" lon="-0.478640000">
        <ele>1618.3</ele>
        <time>2020-08-19T07:02:36Z</time>
      </trkpt>
      <trkpt lat="42.686514000" lon="-0.478522000">
        <ele>1618.5</ele>
        <time>2020-08-19T07:02:45Z</time>
      </trkpt>
      <trkpt lat="42.686515000" lon="-0.478404000">
        <ele>1618.5</ele>
        <time>2020-08-19T07:02:51Z</time>
      </trkpt>
      <trkpt lat="42.686546000" lon="-0.478297000">
        <ele>1618.5</ele>
        <time>2020-08-19T07:02:58Z</time>
      </trkpt>
      <trkpt lat="42.686614000" lon="-0.478215000">
        <ele>1618.6</ele>
        <time>2020-08-19T07:03:08Z</time>
      </trkpt>
      <trkpt lat="42.686661000" lon="-0.478112000">
        <ele>1618.8</ele>
        <time>2020-08-19T07:03:18Z</time>
      </trkpt>
      <trkpt lat="42.686740000" lon="-0.478076000">
        <ele>1618.8</ele>
        <time>2020-08-19T07:03:30Z</time>
      </trkpt>
      <trkpt lat="42.686820000" lon="-0.478083000">
        <ele>1618.7</ele>
        <time>2020-08-19T07:03:46Z</time>
      </trkpt>
      <trkpt lat="42.686890000" lon="-0.478011000">
        <ele>1618.5</ele>
        <time>2020-08-19T07:03:56Z</time>
      </trkpt>
      <trkpt lat="42.686873000" lon="-0.477894000">
        <ele>1618.5</ele>
        <time>2020-08-19T07:04:06Z</time>
      </trkpt>
      <trkpt lat="42.686885000" lon="-0.477781000">
        <ele>1618.6</ele>
        <time>2020-08-19T07:04:17Z</time>
      </trkpt>
      <trkpt lat="42.686898000" lon="-0.477669000">
        <ele>1619.1</ele>
        <time>2020-08-19T07:04:26Z</time>
      </trkpt>
      <trkpt lat="42.686924000" lon="-0.477559000">
        <ele>1619.6</ele>
        <time>2020-08-19T07:04:34Z</time>
      </trkpt>
      <trkpt lat="42.686939000" lon="-0.477443000">
        <ele>1620.5</ele>
        <time>2020-08-19T07:04:43Z</time>
      </trkpt>
      <trkpt lat="42.686929000" lon="-0.477326000">
        <ele>1621.5</ele>
        <time>2020-08-19T07:04:54Z</time>
      </trkpt>
      <trkpt lat="42.686931000" lon="-0.477209000">
        <ele>1622.6</ele>
        <time>2020-08-19T07:05:04Z</time>
      </trkpt>
      <trkpt lat="42.686913000" lon="-0.477095000">
        <ele>1623.7</ele>
        <time>2020-08-19T07:05:13Z</time>
      </trkpt>
      <trkpt lat="42.686942000" lon="-0.476982000">
        <ele>1624.9</ele>
        <time>2020-08-19T07:05:21Z</time>
      </trkpt>
      <trkpt lat="42.686955000" lon="-0.476860000">
        <ele>1626.1</ele>
        <time>2020-08-19T07:05:29Z</time>
      </trkpt>
      <trkpt lat="42.686986000" lon="-0.476758000">
        <ele>1627.3</ele>
        <time>2020-08-19T07:05:37Z</time>
      </trkpt>
      <trkpt lat="42.686997000" lon="-0.476643000">
        <ele>1628.5</ele>
        <time>2020-08-19T07:05:43Z</time>
      </trkpt>
      <trkpt lat="42.686999000" lon="-0.476519000">
        <ele>1629.9</ele>
        <time>2020-08-19T07:05:50Z</time>
      </trkpt>
      <trkpt lat="42.687035000" lon="-0.476416000">
        <ele>1631.5</ele>
        <time>2020-08-19T07:05:59Z</time>
      </trkpt>
      <trkpt lat="42.687081000" lon="-0.476324000">
        <ele>1633.5</ele>
        <time>2020-08-19T07:06:12Z</time>
      </trkpt>
      <trkpt lat="42.687143000" lon="-0.476241000">
        <ele>1635.5</ele>
        <time>2020-08-19T07:06:23Z</time>
      </trkpt>
      <trkpt lat="42.687205000" lon="-0.476162000">
        <ele>1637.5</ele>
        <time>2020-08-19T07:06:32Z</time>
      </trkpt>
      <trkpt lat="42.687249000" lon="-0.476069000">
        <ele>1639.6</ele>
        <time>2020-08-19T07:06:42Z</time>
      </trkpt>
      <trkpt lat="42.687315000" lon="-0.476004000">
        <ele>1641.9</ele>
        <time>2020-08-19T07:06:52Z</time>
      </trkpt>
      <trkpt lat="42.687384000" lon="-0.475933000">
        <ele>1644.3</ele>
        <time>2020-08-19T07:07:08Z</time>
      </trkpt>
      <trkpt lat="42.687450000" lon="-0.475870000">
        <ele>1646.8</ele>
        <time>2020-08-19T07:07:25Z</time>
      </trkpt>
      <trkpt lat="42.687514000" lon="-0.475800000">
        <ele>1649.5</ele>
        <time>2020-08-19T07:07:45Z</time>
      </trkpt>
      <trkpt lat="42.687561000" lon="-0.475702000">
        <ele>1652.5</ele>
        <time>2020-08-19T07:08:01Z</time>
      </trkpt>
      <trkpt lat="42.687632000" lon="-0.475642000">
        <ele>1655.4</ele>
        <time>2020-08-19T07:08:17Z</time>
      </trkpt>
      <trkpt lat="42.687686000" lon="-0.475556000">
        <ele>1658.3</ele>
        <time>2020-08-19T07:08:32Z</time>
      </trkpt>
      <trkpt lat="42.687771000" lon="-0.475559000">
        <ele>1661.1</ele>
        <time>2020-08-19T07:08:54Z</time>
      </trkpt>
      <trkpt lat="42.687853000" lon="-0.475541000">
        <ele>1663.8</ele>
        <time>2020-08-19T07:09:16Z</time>
      </trkpt>
      <trkpt lat="42.687934000" lon="-0.475570000">
        <ele>1666.5</ele>
        <time>2020-08-19T07:09:31Z</time>
      </trkpt>
      <trkpt lat="42.687985000" lon="-0.475475000">
        <ele>1669.3</ele>
        <time>2020-08-19T07:09:53Z</time>
      </trkpt>
      <trkpt lat="42.688040000" lon="-0.475392000">
        <ele>1671.9</ele>
        <time>2020-08-19T07:10:13Z</time>
      </trkpt>
      <trkpt lat="42.688048000" lon="-0.475279000">
        <ele>1674.4</ele>
        <time>2020-08-19T07:10:27Z</time>
      </trkpt>
      <trkpt lat="42.688112000" lon="-0.475206000">
        <ele>1676.5</ele>
        <time>2020-08-19T07:10:47Z</time>
      </trkpt>
      <trkpt lat="42.688182000" lon="-0.475141000">
        <ele>1678.5</ele>
        <time>2020-08-19T07:11:06Z</time>
      </trkpt>
      <trkpt lat="42.688249000" lon="-0.475080000">
        <ele>1680.3</ele>
        <time>2020-08-19T07:11:19Z</time>
      </trkpt>
      <trkpt lat="42.688298000" lon="-0.474978000">
        <ele>1681.8</ele>
        <time>2020-08-19T07:11:31Z</time>
      </trkpt>
      <trkpt lat="42.688354000" lon="-0.474890000">
        <ele>1683.2</ele>
        <time>2020-08-19T07:11:43Z</time>
      </trkpt>
      <trkpt lat="42.688390000" lon="-0.474790000">
        <ele>1684.5</ele>
        <time>2020-08-19T07:11:53Z</time>
      </trkpt>
      <trkpt lat="42.688429000" lon="-0.474690000">
        <ele>1686.0</ele>
        <time>2020-08-19T07:12:03Z</time>
      </trkpt>
      <trkpt lat="42.688467000" lon="-0.474585000">
        <ele>1687.0</ele>
        <time>2020-08-19T07:12:11Z</time>
      </trkpt>
      <trkpt lat="42.688485000" lon="-0.474476000">
        <ele>1687.9</ele>
        <time>2020-08-19T07:13:00Z</time>
      </trkpt>
      <trkpt lat="42.688568000" lon="-0.474450000">
        <ele>1688.8</ele>
        <time>2020-08-19T07:15:11Z</time>
      </trkpt>
      <trkpt lat="42.688647000" lon="-0.474406000">
        <ele>1689.6</ele>
        <time>2020-08-19T07:15:19Z</time>
      </trkpt>
      <trkpt lat="42.688726000" lon="-0.474374000">
        <ele>1690.5</ele>
        <time>2020-08-19T07:17:56Z</time>
      </trkpt>
      <trkpt lat="42.688647000" lon="-0.474348000">
        <ele>1691.2</ele>
        <time>2020-08-19T07:23:24Z</time>
      </trkpt>
      <trkpt lat="42.688685000" lon="-0.474239000">
        <ele>1692.0</ele>
        <time>2020-08-19T07:23:52Z</time>
      </trkpt>
      <trkpt lat="42.688742000" lon="-0.474158000">
        <ele>1692.6</ele>
        <time>2020-08-19T07:24:02Z</time>
      </trkpt>
      <trkpt lat="42.688715000" lon="-0.474050000">
        <ele>1693.3</ele>
        <time>2020-08-19T07:24:20Z</time>
      </trkpt>
      <trkpt lat="42.688714000" lon="-0.473936000">
        <ele>1693.7</ele>
        <time>2020-08-19T07:24:30Z</time>
      </trkpt>
      <trkpt lat="42.688688000" lon="-0.473825000">
        <ele>1694.0</ele>
        <time>2020-08-19T07:24:44Z</time>
      </trkpt>
      <trkpt lat="42.688671000" lon="-0.473716000">
        <ele>1694.5</ele>
        <time>2020-08-19T07:24:55Z</time>
      </trkpt>
      <trkpt lat="42.688627000" lon="-0.473614000">
        <ele>1695.3</ele>
        <time>2020-08-19T07:25:06Z</time>
      </trkpt>
      <trkpt lat="42.688576000" lon="-0.473512000">
        <ele>1696.0</ele>
        <time>2020-08-19T07:25:16Z</time>
      </trkpt>
      <trkpt lat="42.688523000" lon="-0.473423000">
        <ele>1696.8</ele>
        <time>2020-08-19T07:25:28Z</time>
      </trkpt>
      <trkpt lat="42.688481000" lon="-0.473327000">
        <ele>1697.7</ele>
        <time>2020-08-19T07:25:39Z</time>
      </trkpt>
      <trkpt lat="42.688446000" lon="-0.473226000">
        <ele>1698.8</ele>
        <time>2020-08-19T07:25:54Z</time>
      </trkpt>
      <trkpt lat="42.688462000" lon="-0.473106000">
        <ele>1699.9</ele>
        <time>2020-08-19T07:26:07Z</time>
      </trkpt>
      <trkpt lat="42.688488000" lon="-0.473000000">
        <ele>1701.3</ele>
        <time>2020-08-19T07:26:17Z</time>
      </trkpt>
      <trkpt lat="42.688483000" lon="-0.472887000">
        <ele>1702.7</ele>
        <time>2020-08-19T07:26:26Z</time>
      </trkpt>
      <trkpt lat="42.688466000" lon="-0.472779000">
        <ele>1704.3</ele>
        <time>2020-08-19T07:26:34Z</time>
      </trkpt>
      <trkpt lat="42.688494000" lon="-0.472672000">
        <ele>1705.9</ele>
        <time>2020-08-19T07:26:42Z</time>
      </trkpt>
      <trkpt lat="42.688519000" lon="-0.472564000">
        <ele>1707.7</ele>
        <time>2020-08-19T07:26:50Z</time>
      </trkpt>
      <trkpt lat="42.688517000" lon="-0.472451000">
        <ele>1709.4</ele>
        <time>2020-08-19T07:26:58Z</time>
      </trkpt>
      <trkpt lat="42.688519000" lon="-0.472335000">
        <ele>1710.9</ele>
        <time>2020-08-19T07:27:08Z</time>
      </trkpt>
      <trkpt lat="42.688481000" lon="-0.472227000">
        <ele>1712.4</ele>
        <time>2020-08-19T07:27:20Z</time>
      </trkpt>
      <trkpt lat="42.688479000" lon="-0.472110000">
        <ele>1714.1</ele>
        <time>2020-08-19T07:27:30Z</time>
      </trkpt>
      <trkpt lat="42.688450000" lon="-0.472003000">
        <ele>1716.0</ele>
        <time>2020-08-19T07:27:40Z</time>
      </trkpt>
      <trkpt lat="42.688441000" lon="-0.471885000">
        <ele>1717.9</ele>
        <time>2020-08-19T07:27:51Z</time>
      </trkpt>
      <trkpt lat="42.688434000" lon="-0.471773000">
        <ele>1719.7</ele>
        <time>2020-08-19T07:28:04Z</time>
      </trkpt>
      <trkpt lat="42.688413000" lon="-0.471656000">
        <ele>1721.5</ele>
        <time>2020-08-19T07:28:13Z</time>
      </trkpt>
      <trkpt lat="42.688404000" lon="-0.471536000">
        <ele>1723.2</ele>
        <time>2020-08-19T07:28:22Z</time>
      </trkpt>
      <trkpt lat="42.688387000" lon="-0.471423000">
        <ele>1724.9</ele>
        <time>2020-08-19T07:28:31Z</time>
      </trkpt>
      <trkpt lat="42.688398000" lon="-0.471304000">
        <ele>1726.5</ele>
        <time>2020-08-19T07:28:40Z</time>
      </trkpt>
      <trkpt lat="42.688394000" lon="-0.471188000">
        <ele>1728.0</ele>
        <time>2020-08-19T07:28:50Z</time>
      </trkpt>
      <trkpt lat="42.688394000" lon="-0.471068000">
        <ele>1729.5</ele>
        <time>2020-08-19T07:29:00Z</time>
      </trkpt>
      <trkpt lat="42.688389000" lon="-0.470949000">
        <ele>1731.1</ele>
        <time>2020-08-19T07:29:11Z</time>
      </trkpt>
      <trkpt lat="42.688397000" lon="-0.470834000">
        <ele>1732.6</ele>
        <time>2020-08-19T07:29:20Z</time>
      </trkpt>
      <trkpt lat="42.688374000" lon="-0.470715000">
        <ele>1733.9</ele>
        <time>2020-08-19T07:29:30Z</time>
      </trkpt>
      <trkpt lat="42.688381000" lon="-0.470595000">
        <ele>1735.1</ele>
        <time>2020-08-19T07:29:40Z</time>
      </trkpt>
      <trkpt lat="42.688355000" lon="-0.470482000">
        <ele>1736.4</ele>
        <time>2020-08-19T07:29:49Z</time>
      </trkpt>
      <trkpt lat="42.688328000" lon="-0.470363000">
        <ele>1737.6</ele>
        <time>2020-08-19T07:29:57Z</time>
      </trkpt>
      <trkpt lat="42.688295000" lon="-0.470254000">
        <ele>1739.1</ele>
        <time>2020-08-19T07:30:10Z</time>
      </trkpt>
      <trkpt lat="42.688292000" lon="-0.470140000">
        <ele>1740.6</ele>
        <time>2020-08-19T07:30:21Z</time>
      </trkpt>
      <trkpt lat="42.688292000" lon="-0.470029000">
        <ele>1742.3</ele>
        <time>2020-08-19T07:30:31Z</time>
      </trkpt>
      <trkpt lat="42.688290000" lon="-0.469917000">
        <ele>1744.0</ele>
        <time>2020-08-19T07:30:44Z</time>
      </trkpt>
      <trkpt lat="42.688307000" lon="-0.469807000">
        <ele>1745.8</ele>
        <time>2020-08-19T07:30:54Z</time>
      </trkpt>
      <trkpt lat="42.688300000" lon="-0.469686000">
        <ele>1747.6</ele>
        <time>2020-08-19T07:31:04Z</time>
      </trkpt>
      <trkpt lat="42.688284000" lon="-0.469561000">
        <ele>1749.2</ele>
        <time>2020-08-19T07:31:14Z</time>
      </trkpt>
      <trkpt lat="42.688253000" lon="-0.469459000">
        <ele>1750.7</ele>
        <time>2020-08-19T07:31:23Z</time>
      </trkpt>
      <trkpt lat="42.688227000" lon="-0.469346000">
        <ele>1752.5</ele>
        <time>2020-08-19T07:31:33Z</time>
      </trkpt>
      <trkpt lat="42.688167000" lon="-0.469267000">
        <ele>1754.3</ele>
        <time>2020-08-19T07:31:45Z</time>
      </trkpt>
      <trkpt lat="42.688132000" lon="-0.469164000">
        <ele>1756.2</ele>
        <time>2020-08-19T07:31:57Z</time>
      </trkpt>
      <trkpt lat="42.688086000" lon="-0.469068000">
        <ele>1757.9</ele>
        <time>2020-08-19T07:32:07Z</time>
      </trkpt>
      <trkpt lat="42.688025000" lon="-0.468995000">
        <ele>1759.4</ele>
        <time>2020-08-19T07:32:19Z</time>
      </trkpt>
      <trkpt lat="42.688000000" lon="-0.468889000">
        <ele>1760.6</ele>
        <time>2020-08-19T07:32:30Z</time>
      </trkpt>
      <trkpt lat="42.687953000" lon="-0.468787000">
        <ele>1761.7</ele>
        <time>2020-08-19T07:32:42Z</time>
      </trkpt>
      <trkpt lat="42.687910000" lon="-0.468690000">
        <ele>1762.8</ele>
        <time>2020-08-19T07:32:52Z</time>
      </trkpt>
      <trkpt lat="42.687854000" lon="-0.468602000">
        <ele>1763.8</ele>
        <time>2020-08-19T07:33:03Z</time>
      </trkpt>
      <trkpt lat="42.687809000" lon="-0.468503000">
        <ele>1764.9</ele>
        <time>2020-08-19T07:33:11Z</time>
      </trkpt>
      <trkpt lat="42.687787000" lon="-0.468397000">
        <ele>1766.0</ele>
        <time>2020-08-19T07:33:19Z</time>
      </trkpt>
      <trkpt lat="42.687765000" lon="-0.468289000">
        <ele>1766.9</ele>
        <time>2020-08-19T07:33:26Z</time>
      </trkpt>
      <trkpt lat="42.687726000" lon="-0.468185000">
        <ele>1767.6</ele>
        <time>2020-08-19T07:33:34Z</time>
      </trkpt>
      <trkpt lat="42.687688000" lon="-0.468074000">
        <ele>1768.4</ele>
        <time>2020-08-19T07:33:43Z</time>
      </trkpt>
      <trkpt lat="42.687655000" lon="-0.467971000">
        <ele>1769.0</ele>
        <time>2020-08-19T07:33:50Z</time>
      </trkpt>
      <trkpt lat="42.687608000" lon="-0.467880000">
        <ele>1769.7</ele>
        <time>2020-08-19T07:33:59Z</time>
      </trkpt>
      <trkpt lat="42.687567000" lon="-0.467783000">
        <ele>1770.5</ele>
        <time>2020-08-19T07:34:08Z</time>
      </trkpt>
      <trkpt lat="42.687491000" lon="-0.467722000">
        <ele>1771.5</ele>
        <time>2020-08-19T07:34:17Z</time>
      </trkpt>
      <trkpt lat="42.687402000" lon="-0.467686000">
        <ele>1772.4</ele>
        <time>2020-08-19T07:34:24Z</time>
      </trkpt>
      <trkpt lat="42.687322000" lon="-0.467723000">
        <ele>1773.4</ele>
        <time>2020-08-19T07:34:32Z</time>
      </trkpt>
      <trkpt lat="42.687251000" lon="-0.467787000">
        <ele>1774.6</ele>
        <time>2020-08-19T07:34:43Z</time>
      </trkpt>
      <trkpt lat="42.687193000" lon="-0.467870000">
        <ele>1776.4</ele>
        <time>2020-08-19T07:34:52Z</time>
      </trkpt>
      <trkpt lat="42.687133000" lon="-0.467962000">
        <ele>1778.3</ele>
        <time>2020-08-19T07:35:00Z</time>
      </trkpt>
      <trkpt lat="42.687072000" lon="-0.468037000">
        <ele>1780.4</ele>
        <time>2020-08-19T07:35:08Z</time>
      </trkpt>
      <trkpt lat="42.687011000" lon="-0.468118000">
        <ele>1782.4</ele>
        <time>2020-08-19T07:35:16Z</time>
      </trkpt>
      <trkpt lat="42.686961000" lon="-0.468208000">
        <ele>1784.4</ele>
        <time>2020-08-19T07:35:26Z</time>
      </trkpt>
      <trkpt lat="42.686903000" lon="-0.468292000">
        <ele>1786.3</ele>
        <time>2020-08-19T07:35:38Z</time>
      </trkpt>
      <trkpt lat="42.686903000" lon="-0.468411000">
        <ele>1788.2</ele>
        <time>2020-08-19T07:35:46Z</time>
      </trkpt>
      <trkpt lat="42.686885000" lon="-0.468532000">
        <ele>1790.0</ele>
        <time>2020-08-19T07:35:55Z</time>
      </trkpt>
      <trkpt lat="42.686881000" lon="-0.468644000">
        <ele>1791.8</ele>
        <time>2020-08-19T07:36:04Z</time>
      </trkpt>
      <trkpt lat="42.686853000" lon="-0.468753000">
        <ele>1793.5</ele>
        <time>2020-08-19T07:36:15Z</time>
      </trkpt>
      <trkpt lat="42.686856000" lon="-0.468865000">
        <ele>1795.0</ele>
        <time>2020-08-19T07:36:27Z</time>
      </trkpt>
      <trkpt lat="42.686842000" lon="-0.468979000">
        <ele>1796.0</ele>
        <time>2020-08-19T07:36:38Z</time>
      </trkpt>
      <trkpt lat="42.686870000" lon="-0.469087000">
        <ele>1796.9</ele>
        <time>2020-08-19T07:36:55Z</time>
      </trkpt>
      <trkpt lat="42.686855000" lon="-0.469196000">
        <ele>1797.6</ele>
        <time>2020-08-19T07:37:14Z</time>
      </trkpt>
      <trkpt lat="42.686808000" lon="-0.469293000">
        <ele>1798.4</ele>
        <time>2020-08-19T07:37:28Z</time>
      </trkpt>
      <trkpt lat="42.686741000" lon="-0.469368000">
        <ele>1799.2</ele>
        <time>2020-08-19T07:37:39Z</time>
      </trkpt>
      <trkpt lat="42.686710000" lon="-0.469481000">
        <ele>1800.2</ele>
        <time>2020-08-19T07:37:50Z</time>
      </trkpt>
      <trkpt lat="42.686651000" lon="-0.469572000">
        <ele>1801.0</ele>
        <time>2020-08-19T07:37:59Z</time>
      </trkpt>
      <trkpt lat="42.686573000" lon="-0.469631000">
        <ele>1801.7</ele>
        <time>2020-08-19T07:38:09Z</time>
      </trkpt>
      <trkpt lat="42.686490000" lon="-0.469634000">
        <ele>1802.6</ele>
        <time>2020-08-19T07:38:20Z</time>
      </trkpt>
      <trkpt lat="42.686407000" lon="-0.469637000">
        <ele>1803.7</ele>
        <time>2020-08-19T07:38:31Z</time>
      </trkpt>
      <trkpt lat="42.686346000" lon="-0.469713000">
        <ele>1804.9</ele>
        <time>2020-08-19T07:38:40Z</time>
      </trkpt>
      <trkpt lat="42.686293000" lon="-0.469812000">
        <ele>1806.3</ele>
        <time>2020-08-19T07:38:48Z</time>
      </trkpt>
      <trkpt lat="42.686243000" lon="-0.469906000">
        <ele>1807.8</ele>
        <time>2020-08-19T07:38:55Z</time>
      </trkpt>
      <trkpt lat="42.686180000" lon="-0.469822000">
        <ele>1809.5</ele>
        <time>2020-08-19T07:42:01Z</time>
      </trkpt>
      <trkpt lat="42.686114000" lon="-0.469756000">
        <ele>1811.3</ele>
        <time>2020-08-19T07:42:14Z</time>
      </trkpt>
      <trkpt lat="42.686080000" lon="-0.469653000">
        <ele>1813.2</ele>
        <time>2020-08-19T07:42:25Z</time>
      </trkpt>
      <trkpt lat="42.686013000" lon="-0.469589000">
        <ele>1815.0</ele>
        <time>2020-08-19T07:42:36Z</time>
      </trkpt>
      <trkpt lat="42.685962000" lon="-0.469490000">
        <ele>1816.8</ele>
        <time>2020-08-19T07:42:48Z</time>
      </trkpt>
      <trkpt lat="42.685931000" lon="-0.469387000">
        <ele>1818.5</ele>
        <time>2020-08-19T07:43:02Z</time>
      </trkpt>
      <trkpt lat="42.685890000" lon="-0.469291000">
        <ele>1820.2</ele>
        <time>2020-08-19T07:43:13Z</time>
      </trkpt>
      <trkpt lat="42.685876000" lon="-0.469180000">
        <ele>1822.0</ele>
        <time>2020-08-19T07:43:26Z</time>
      </trkpt>
      <trkpt lat="42.685865000" lon="-0.469071000">
        <ele>1824.2</ele>
        <time>2020-08-19T07:43:42Z</time>
      </trkpt>
      <trkpt lat="42.685881000" lon="-0.468962000">
        <ele>1826.5</ele>
        <time>2020-08-19T07:43:55Z</time>
      </trkpt>
      <trkpt lat="42.685927000" lon="-0.468866000">
        <ele>1829.0</ele>
        <time>2020-08-19T07:44:10Z</time>
      </trkpt>
      <trkpt lat="42.685910000" lon="-0.468756000">
        <ele>1831.7</ele>
        <time>2020-08-19T07:44:24Z</time>
      </trkpt>
      <trkpt lat="42.685879000" lon="-0.468649000">
        <ele>1834.6</ele>
        <time>2020-08-19T07:44:38Z</time>
      </trkpt>
      <trkpt lat="42.685836000" lon="-0.468549000">
        <ele>1837.8</ele>
        <time>2020-08-19T07:45:05Z</time>
      </trkpt>
      <trkpt lat="42.685782000" lon="-0.468468000">
        <ele>1841.5</ele>
        <time>2020-08-19T07:45:19Z</time>
      </trkpt>
      <trkpt lat="42.685736000" lon="-0.468376000">
        <ele>1845.7</ele>
        <time>2020-08-19T07:45:31Z</time>
      </trkpt>
      <trkpt lat="42.685690000" lon="-0.468279000">
        <ele>1850.9</ele>
        <time>2020-08-19T07:45:43Z</time>
      </trkpt>
      <trkpt lat="42.685613000" lon="-0.468241000">
        <ele>1856.4</ele>
        <time>2020-08-19T07:46:22Z</time>
      </trkpt>
      <trkpt lat="42.685545000" lon="-0.468176000">
        <ele>1862.0</ele>
        <time>2020-08-19T07:46:36Z</time>
      </trkpt>
      <trkpt lat="42.685496000" lon="-0.468075000">
        <ele>1867.4</ele>
        <time>2020-08-19T07:46:48Z</time>
      </trkpt>
      <trkpt lat="42.685448000" lon="-0.467980000">
        <ele>1872.5</ele>
        <time>2020-08-19T07:47:00Z</time>
      </trkpt>
      <trkpt lat="42.685388000" lon="-0.467893000">
        <ele>1877.6</ele>
        <time>2020-08-19T07:47:12Z</time>
      </trkpt>
      <trkpt lat="42.685316000" lon="-0.467837000">
        <ele>1882.5</ele>
        <time>2020-08-19T07:47:25Z</time>
      </trkpt>
      <trkpt lat="42.685254000" lon="-0.467758000">
        <ele>1887.1</ele>
        <time>2020-08-19T07:47:40Z</time>
      </trkpt>
      <trkpt lat="42.685188000" lon="-0.467683000">
        <ele>1891.2</ele>
        <time>2020-08-19T07:47:58Z</time>
      </trkpt>
      <trkpt lat="42.685131000" lon="-0.467602000">
        <ele>1894.9</ele>
        <time>2020-08-19T07:48:13Z</time>
      </trkpt>
      <trkpt lat="42.685105000" lon="-0.467488000">
        <ele>1898.4</ele>
        <time>2020-08-19T07:50:08Z</time>
      </trkpt>
      <trkpt lat="42.685057000" lon="-0.467390000">
        <ele>1901.5</ele>
        <time>2020-08-19T07:50:19Z</time>
      </trkpt>
      <trkpt lat="42.685011000" lon="-0.467495000">
        <ele>1904.1</ele>
        <time>2020-08-19T07:51:17Z</time>
      </trkpt>
      <trkpt lat="42.684960000" lon="-0.467591000">
        <ele>1906.5</ele>
        <time>2020-08-19T07:51:28Z</time>
      </trkpt>
      <trkpt lat="42.684886000" lon="-0.467533000">
        <ele>1909.0</ele>
        <time>2020-08-19T07:51:41Z</time>
      </trkpt>
      <trkpt lat="42.684837000" lon="-0.467436000">
        <ele>1911.5</ele>
        <time>2020-08-19T07:51:57Z</time>
      </trkpt>
      <trkpt lat="42.684770000" lon="-0.467373000">
        <ele>1913.8</ele>
        <time>2020-08-19T07:52:08Z</time>
      </trkpt>
      <trkpt lat="42.684701000" lon="-0.467312000">
        <ele>1916.1</ele>
        <time>2020-08-19T07:52:20Z</time>
      </trkpt>
      <trkpt lat="42.684630000" lon="-0.467248000">
        <ele>1918.4</ele>
        <time>2020-08-19T07:52:32Z</time>
      </trkpt>
      <trkpt lat="42.684550000" lon="-0.467199000">
        <ele>1920.8</ele>
        <time>2020-08-19T07:52:45Z</time>
      </trkpt>
      <trkpt lat="42.684471000" lon="-0.467220000">
        <ele>1923.1</ele>
        <time>2020-08-19T07:52:56Z</time>
      </trkpt>
      <trkpt lat="42.684390000" lon="-0.467179000">
        <ele>1925.3</ele>
        <time>2020-08-19T07:53:08Z</time>
      </trkpt>
      <trkpt lat="42.684308000" lon="-0.467167000">
        <ele>1927.3</ele>
        <time>2020-08-19T07:53:20Z</time>
      </trkpt>
      <trkpt lat="42.684238000" lon="-0.467096000">
        <ele>1929.3</ele>
        <time>2020-08-19T07:53:32Z</time>
      </trkpt>
      <trkpt lat="42.684169000" lon="-0.467024000">
        <ele>1931.0</ele>
        <time>2020-08-19T07:53:45Z</time>
      </trkpt>
      <trkpt lat="42.684088000" lon="-0.466993000">
        <ele>1932.7</ele>
        <time>2020-08-19T07:53:56Z</time>
      </trkpt>
      <trkpt lat="42.684020000" lon="-0.466931000">
        <ele>1934.4</ele>
        <time>2020-08-19T07:54:08Z</time>
      </trkpt>
      <trkpt lat="42.683941000" lon="-0.466903000">
        <ele>1936.1</ele>
        <time>2020-08-19T07:57:24Z</time>
      </trkpt>
      <trkpt lat="42.683865000" lon="-0.466854000">
        <ele>1937.9</ele>
        <time>2020-08-19T07:57:36Z</time>
      </trkpt>
      <trkpt lat="42.683804000" lon="-0.466773000">
        <ele>1940.1</ele>
        <time>2020-08-19T07:57:50Z</time>
      </trkpt>
      <trkpt lat="42.683769000" lon="-0.466665000">
        <ele>1942.4</ele>
        <time>2020-08-19T07:58:04Z</time>
      </trkpt>
      <trkpt lat="42.683803000" lon="-0.466564000">
        <ele>1945.0</ele>
        <time>2020-08-19T07:58:12Z</time>
      </trkpt>
      <trkpt lat="42.683841000" lon="-0.466461000">
        <ele>1947.8</ele>
        <time>2020-08-19T07:58:22Z</time>
      </trkpt>
      <trkpt lat="42.683796000" lon="-0.466364000">
        <ele>1950.9</ele>
        <time>2020-08-19T07:58:39Z</time>
      </trkpt>
      <trkpt lat="42.683801000" lon="-0.466252000">
        <ele>1954.0</ele>
        <time>2020-08-19T07:58:51Z</time>
      </trkpt>
      <trkpt lat="42.683856000" lon="-0.466161000">
        <ele>1957.2</ele>
        <time>2020-08-19T07:59:01Z</time>
      </trkpt>
      <trkpt lat="42.683815000" lon="-0.466061000">
        <ele>1960.3</ele>
        <time>2020-08-19T07:59:13Z</time>
      </trkpt>
      <trkpt lat="42.683784000" lon="-0.465957000">
        <ele>1963.5</ele>
        <time>2020-08-19T07:59:24Z</time>
      </trkpt>
      <trkpt lat="42.683736000" lon="-0.465865000">
        <ele>1966.6</ele>
        <time>2020-08-19T07:59:38Z</time>
      </trkpt>
      <trkpt lat="42.683791000" lon="-0.465782000">
        <ele>1969.6</ele>
        <time>2020-08-19T07:59:51Z</time>
      </trkpt>
      <trkpt lat="42.683855000" lon="-0.465712000">
        <ele>1972.4</ele>
        <time>2020-08-19T08:00:02Z</time>
      </trkpt>
      <trkpt lat="42.683921000" lon="-0.465644000">
        <ele>1975.1</ele>
        <time>2020-08-19T08:00:13Z</time>
      </trkpt>
      <trkpt lat="42.683977000" lon="-0.465556000">
        <ele>1977.5</ele>
        <time>2020-08-19T08:00:23Z</time>
      </trkpt>
      <trkpt lat="42.683897000" lon="-0.465513000">
        <ele>1979.8</ele>
        <time>2020-08-19T08:00:36Z</time>
      </trkpt>
      <trkpt lat="42.683817000" lon="-0.465491000">
        <ele>1981.9</ele>
        <time>2020-08-19T08:00:48Z</time>
      </trkpt>
      <trkpt lat="42.683731000" lon="-0.465470000">
        <ele>1983.9</ele>
        <time>2020-08-19T08:00:58Z</time>
      </trkpt>
      <trkpt lat="42.683671000" lon="-0.465388000">
        <ele>1986.0</ele>
        <time>2020-08-19T08:01:10Z</time>
      </trkpt>
      <trkpt lat="42.683595000" lon="-0.465339000">
        <ele>1988.2</ele>
        <time>2020-08-19T08:01:22Z</time>
      </trkpt>
      <trkpt lat="42.683528000" lon="-0.465272000">
        <ele>1990.4</ele>
        <time>2020-08-19T08:01:34Z</time>
      </trkpt>
      <trkpt lat="42.683458000" lon="-0.465212000">
        <ele>1992.4</ele>
        <time>2020-08-19T08:01:46Z</time>
      </trkpt>
      <trkpt lat="42.683376000" lon="-0.465172000">
        <ele>1994.6</ele>
        <time>2020-08-19T08:01:56Z</time>
      </trkpt>
      <trkpt lat="42.683313000" lon="-0.465102000">
        <ele>1997.2</ele>
        <time>2020-08-19T08:02:06Z</time>
      </trkpt>
      <trkpt lat="42.683241000" lon="-0.465034000">
        <ele>1999.7</ele>
        <time>2020-08-19T08:02:18Z</time>
      </trkpt>
      <trkpt lat="42.683166000" lon="-0.464976000">
        <ele>2002.5</ele>
        <time>2020-08-19T08:02:28Z</time>
      </trkpt>
      <trkpt lat="42.683086000" lon="-0.464946000">
        <ele>2005.3</ele>
        <time>2020-08-19T08:02:37Z</time>
      </trkpt>
      <trkpt lat="42.683024000" lon="-0.464869000">
        <ele>2008.1</ele>
        <time>2020-08-19T08:02:49Z</time>
      </trkpt>
      <trkpt lat="42.682961000" lon="-0.464789000">
        <ele>2010.9</ele>
        <time>2020-08-19T08:03:04Z</time>
      </trkpt>
      <trkpt lat="42.682885000" lon="-0.464749000">
        <ele>2013.5</ele>
        <time>2020-08-19T08:03:14Z</time>
      </trkpt>
      <trkpt lat="42.682815000" lon="-0.464679000">
        <ele>2016.0</ele>
        <time>2020-08-19T08:03:25Z</time>
      </trkpt>
      <trkpt lat="42.682734000" lon="-0.464642000">
        <ele>2018.3</ele>
        <time>2020-08-19T08:03:36Z</time>
      </trkpt>
      <trkpt lat="42.682745000" lon="-0.464530000">
        <ele>2020.5</ele>
        <time>2020-08-19T08:06:14Z</time>
      </trkpt>
      <trkpt lat="42.682787000" lon="-0.464430000">
        <ele>2022.5</ele>
        <time>2020-08-19T08:06:24Z</time>
      </trkpt>
      <trkpt lat="42.682836000" lon="-0.464334000">
        <ele>2024.4</ele>
        <time>2020-08-19T08:06:35Z</time>
      </trkpt>
      <trkpt lat="42.682855000" lon="-0.464226000">
        <ele>2026.2</ele>
        <time>2020-08-19T08:06:47Z</time>
      </trkpt>
      <trkpt lat="42.682917000" lon="-0.464143000">
        <ele>2028.0</ele>
        <time>2020-08-19T08:07:00Z</time>
      </trkpt>
      <trkpt lat="42.682983000" lon="-0.464074000">
        <ele>2029.8</ele>
        <time>2020-08-19T08:07:11Z</time>
      </trkpt>
      <trkpt lat="42.683051000" lon="-0.464008000">
        <ele>2031.6</ele>
        <time>2020-08-19T08:07:28Z</time>
      </trkpt>
      <trkpt lat="42.683130000" lon="-0.463980000">
        <ele>2033.5</ele>
        <time>2020-08-19T08:07:41Z</time>
      </trkpt>
      <trkpt lat="42.683194000" lon="-0.463909000">
        <ele>2035.6</ele>
        <time>2020-08-19T08:07:49Z</time>
      </trkpt>
      <trkpt lat="42.683276000" lon="-0.463859000">
        <ele>2037.8</ele>
        <time>2020-08-19T08:07:57Z</time>
      </trkpt>
      <trkpt lat="42.683356000" lon="-0.463814000">
        <ele>2040.1</ele>
        <time>2020-08-19T08:08:08Z</time>
      </trkpt>
      <trkpt lat="42.683421000" lon="-0.463744000">
        <ele>2042.5</ele>
        <time>2020-08-19T08:08:17Z</time>
      </trkpt>
      <trkpt lat="42.683497000" lon="-0.463693000">
        <ele>2045.0</ele>
        <time>2020-08-19T08:08:29Z</time>
      </trkpt>
      <trkpt lat="42.683565000" lon="-0.463628000">
        <ele>2047.5</ele>
        <time>2020-08-19T08:08:39Z</time>
      </trkpt>
      <trkpt lat="42.683646000" lon="-0.463606000">
        <ele>2049.9</ele>
        <time>2020-08-19T08:08:51Z</time>
      </trkpt>
      <trkpt lat="42.683730000" lon="-0.463582000">
        <ele>2052.3</ele>
        <time>2020-08-19T08:09:00Z</time>
      </trkpt>
      <trkpt lat="42.683814000" lon="-0.463553000">
        <ele>2054.6</ele>
        <time>2020-08-19T08:09:11Z</time>
      </trkpt>
      <trkpt lat="42.683874000" lon="-0.463473000">
        <ele>2057.1</ele>
        <time>2020-08-19T08:09:23Z</time>
      </trkpt>
      <trkpt lat="42.683942000" lon="-0.463408000">
        <ele>2059.6</ele>
        <time>2020-08-19T08:09:36Z</time>
      </trkpt>
      <trkpt lat="42.684007000" lon="-0.463339000">
        <ele>2062.0</ele>
        <time>2020-08-19T08:09:47Z</time>
      </trkpt>
      <trkpt lat="42.684020000" lon="-0.463225000">
        <ele>2064.4</ele>
        <time>2020-08-19T08:10:02Z</time>
      </trkpt>
      <trkpt lat="42.684047000" lon="-0.463115000">
        <ele>2066.6</ele>
        <time>2020-08-19T08:10:15Z</time>
      </trkpt>
      <trkpt lat="42.684071000" lon="-0.463000000">
        <ele>2069.1</ele>
        <time>2020-08-19T08:11:59Z</time>
      </trkpt>
      <trkpt lat="42.684108000" lon="-0.462891000">
        <ele>2071.6</ele>
        <time>2020-08-19T08:12:11Z</time>
      </trkpt>
      <trkpt lat="42.684181000" lon="-0.462949000">
        <ele>2074.3</ele>
        <time>2020-08-19T08:12:28Z</time>
      </trkpt>
      <trkpt lat="42.684261000" lon="-0.462988000">
        <ele>2076.8</ele>
        <time>2020-08-19T08:12:40Z</time>
      </trkpt>
      <trkpt lat="42.684345000" lon="-0.463030000">
        <ele>2079.4</ele>
        <time>2020-08-19T08:12:52Z</time>
      </trkpt>
      <trkpt lat="42.684417000" lon="-0.462976000">
        <ele>2081.8</ele>
        <time>2020-08-19T08:13:02Z</time>
      </trkpt>
      <trkpt lat="42.684445000" lon="-0.462871000">
        <ele>2084.3</ele>
        <time>2020-08-19T08:13:13Z</time>
      </trkpt>
      <trkpt lat="42.684518000" lon="-0.462815000">
        <ele>2086.6</ele>
        <time>2020-08-19T08:13:29Z</time>
      </trkpt>
      <trkpt lat="42.684602000" lon="-0.462800000">
        <ele>2089.1</ele>
        <time>2020-08-19T08:13:45Z</time>
      </trkpt>
      <trkpt lat="42.684681000" lon="-0.462761000">
        <ele>2091.6</ele>
        <time>2020-08-19T08:13:56Z</time>
      </trkpt>
      <trkpt lat="42.684697000" lon="-0.462651000">
        <ele>2094.2</ele>
        <time>2020-08-19T08:14:12Z</time>
      </trkpt>
      <trkpt lat="42.684696000" lon="-0.462540000">
        <ele>2096.6</ele>
        <time>2020-08-19T08:14:25Z</time>
      </trkpt>
      <trkpt lat="42.684694000" lon="-0.462425000">
        <ele>2099.1</ele>
        <time>2020-08-19T08:14:39Z</time>
      </trkpt>
      <trkpt lat="42.684683000" lon="-0.462311000">
        <ele>2101.6</ele>
        <time>2020-08-19T08:14:54Z</time>
      </trkpt>
      <trkpt lat="42.684705000" lon="-0.462198000">
        <ele>2104.4</ele>
        <time>2020-08-19T08:15:36Z</time>
      </trkpt>
      <trkpt lat="42.684698000" lon="-0.462081000">
        <ele>2107.2</ele>
        <time>2020-08-19T08:17:00Z</time>
      </trkpt>
      <trkpt lat="42.684706000" lon="-0.461965000">
        <ele>2110.1</ele>
        <time>2020-08-19T08:17:11Z</time>
      </trkpt>
      <trkpt lat="42.684716000" lon="-0.461850000">
        <ele>2112.8</ele>
        <time>2020-08-19T08:17:23Z</time>
      </trkpt>
      <trkpt lat="42.684714000" lon="-0.461734000">
        <ele>2115.5</ele>
        <time>2020-08-19T08:17:31Z</time>
      </trkpt>
      <trkpt lat="42.684721000" lon="-0.461615000">
        <ele>2118.2</ele>
        <time>2020-08-19T08:17:41Z</time>
      </trkpt>
      <trkpt lat="42.684731000" lon="-0.461503000">
        <ele>2120.5</ele>
        <time>2020-08-19T08:18:02Z</time>
      </trkpt>
      <trkpt lat="42.684727000" lon="-0.461385000">
        <ele>2122.9</ele>
        <time>2020-08-19T08:18:12Z</time>
      </trkpt>
      <trkpt lat="42.684721000" lon="-0.461274000">
        <ele>2125.2</ele>
        <time>2020-08-19T08:18:22Z</time>
      </trkpt>
      <trkpt lat="42.684732000" lon="-0.461156000">
        <ele>2127.2</ele>
        <time>2020-08-19T08:18:35Z</time>
      </trkpt>
      <trkpt lat="42.684732000" lon="-0.461041000">
        <ele>2129.1</ele>
        <time>2020-08-19T08:18:47Z</time>
      </trkpt>
      <trkpt lat="42.684731000" lon="-0.460931000">
        <ele>2130.9</ele>
        <time>2020-08-19T08:18:57Z</time>
      </trkpt>
      <trkpt lat="42.684727000" lon="-0.460810000">
        <ele>2132.7</ele>
        <time>2020-08-19T08:19:08Z</time>
      </trkpt>
      <trkpt lat="42.684730000" lon="-0.460698000">
        <ele>2134.5</ele>
        <time>2020-08-19T08:19:23Z</time>
      </trkpt>
      <trkpt lat="42.684730000" lon="-0.460580000">
        <ele>2136.5</ele>
        <time>2020-08-19T08:19:40Z</time>
      </trkpt>
      <trkpt lat="42.684764000" lon="-0.460476000">
        <ele>2138.6</ele>
        <time>2020-08-19T08:19:55Z</time>
      </trkpt>
      <trkpt lat="42.684778000" lon="-0.460364000">
        <ele>2140.6</ele>
        <time>2020-08-19T08:20:16Z</time>
      </trkpt>
      <trkpt lat="42.684794000" lon="-0.460254000">
        <ele>2142.5</ele>
        <time>2020-08-19T08:20:33Z</time>
      </trkpt>
      <trkpt lat="42.684783000" lon="-0.460139000">
        <ele>2144.2</ele>
        <time>2020-08-19T08:23:13Z</time>
      </trkpt>
      <trkpt lat="42.684779000" lon="-0.460028000">
        <ele>2145.5</ele>
        <time>2020-08-19T08:23:32Z</time>
      </trkpt>
      <trkpt lat="42.684782000" lon="-0.459914000">
        <ele>2147.2</ele>
        <time>2020-08-19T08:23:57Z</time>
      </trkpt>
      <trkpt lat="42.684827000" lon="-0.460014000">
        <ele>2148.8</ele>
        <time>2020-08-19T08:24:37Z</time>
      </trkpt>
      <trkpt lat="42.684876000" lon="-0.460105000">
        <ele>2150.5</ele>
        <time>2020-08-19T08:25:01Z</time>
      </trkpt>
      <trkpt lat="42.684917000" lon="-0.460210000">
        <ele>2152.0</ele>
        <time>2020-08-19T08:25:15Z</time>
      </trkpt>
      <trkpt lat="42.684966000" lon="-0.460302000">
        <ele>2153.0</ele>
        <time>2020-08-19T08:25:27Z</time>
      </trkpt>
      <trkpt lat="42.685011000" lon="-0.460205000">
        <ele>2153.8</ele>
        <time>2020-08-19T08:25:53Z</time>
      </trkpt>
      <trkpt lat="42.684975000" lon="-0.460095000">
        <ele>2154.5</ele>
        <time>2020-08-19T08:26:08Z</time>
      </trkpt>
      <trkpt lat="42.684978000" lon="-0.459982000">
        <ele>2155.0</ele>
        <time>2020-08-19T08:26:24Z</time>
      </trkpt>
      <trkpt lat="42.684984000" lon="-0.459871000">
        <ele>2155.6</ele>
        <time>2020-08-19T08:26:41Z</time>
      </trkpt>
      <trkpt lat="42.685068000" lon="-0.459852000">
        <ele>2156.8</ele>
        <time>2020-08-19T08:27:19Z</time>
      </trkpt>
      <trkpt lat="42.685116000" lon="-0.459760000">
        <ele>2158.7</ele>
        <time>2020-08-19T08:28:25Z</time>
      </trkpt>
      <trkpt lat="42.685130000" lon="-0.459647000">
        <ele>2160.5</ele>
        <time>2020-08-19T08:28:47Z</time>
      </trkpt>
      <trkpt lat="42.685139000" lon="-0.459528000">
        <ele>2161.8</ele>
        <time>2020-08-19T08:29:15Z</time>
      </trkpt>
      <trkpt lat="42.685159000" lon="-0.459419000">
        <ele>2162.8</ele>
        <time>2020-08-19T08:29:26Z</time>
      </trkpt>
      <trkpt lat="42.685178000" lon="-0.459309000">
        <ele>2163.4</ele>
        <time>2020-08-19T08:31:09Z</time>
      </trkpt>
      <trkpt lat="42.685154000" lon="-0.459203000">
        <ele>2163.8</ele>
        <time>2020-08-19T08:32:33Z</time>
      </trkpt>
      <trkpt lat="42.685085000" lon="-0.459137000">
        <ele>2164.0</ele>
        <time>2020-08-19T08:34:14Z</time>
      </trkpt>
      <trkpt lat="42.685109000" lon="-0.459032000">
        <ele>2164.5</ele>
        <time>2020-08-19T08:34:57Z</time>
      </trkpt>
      <trkpt lat="42.685146000" lon="-0.458930000">
        <ele>2165.2</ele>
        <time>2020-08-19T08:38:03Z</time>
      </trkpt>
      <trkpt lat="42.685158000" lon="-0.458821000">
        <ele>2166.1</ele>
        <time>2020-08-19T08:39:23Z</time>
      </trkpt>
      <trkpt lat="42.685153000" lon="-0.458706000">
        <ele>2166.7</ele>
        <time>2020-08-19T08:39:41Z</time>
      </trkpt>
      <trkpt lat="42.685184000" lon="-0.458698000">
        <ele>2166.3</ele>
        <time>2020-08-19T08:42:24Z</time>
      </trkpt>
      <trkpt lat="42.684686000" lon="-0.460650000">
        <ele>2129.5</ele>
        <time>2020-08-19T09:09:23Z</time>
      </trkpt>
      <trkpt lat="42.684712000" lon="-0.460772000">
        <ele>2128.9</ele>
        <time>2020-08-19T09:09:45Z</time>
      </trkpt>
      <trkpt lat="42.684713000" lon="-0.460891000">
        <ele>2128.1</ele>
        <time>2020-08-19T09:09:53Z</time>
      </trkpt>
      <trkpt lat="42.684717000" lon="-0.461002000">
        <ele>2127.2</ele>
        <time>2020-08-19T09:10:02Z</time>
      </trkpt>
      <trkpt lat="42.684714000" lon="-0.461113000">
        <ele>2126.2</ele>
        <time>2020-08-19T09:10:09Z</time>
      </trkpt>
      <trkpt lat="42.684680000" lon="-0.461215000">
        <ele>2125.1</ele>
        <time>2020-08-19T09:10:18Z</time>
      </trkpt>
      <trkpt lat="42.684694000" lon="-0.461338000">
        <ele>2123.2</ele>
        <time>2020-08-19T09:10:27Z</time>
      </trkpt>
      <trkpt lat="42.684705000" lon="-0.461461000">
        <ele>2121.1</ele>
        <time>2020-08-19T09:10:35Z</time>
      </trkpt>
      <trkpt lat="42.684709000" lon="-0.461591000">
        <ele>2118.8</ele>
        <time>2020-08-19T09:10:43Z</time>
      </trkpt>
      <trkpt lat="42.684719000" lon="-0.461704000">
        <ele>2116.3</ele>
        <time>2020-08-19T09:10:50Z</time>
      </trkpt>
      <trkpt lat="42.684740000" lon="-0.461821000">
        <ele>2113.5</ele>
        <time>2020-08-19T09:10:59Z</time>
      </trkpt>
      <trkpt lat="42.684736000" lon="-0.461937000">
        <ele>2110.9</ele>
        <time>2020-08-19T09:11:09Z</time>
      </trkpt>
      <trkpt lat="42.684746000" lon="-0.462055000">
        <ele>2108.2</ele>
        <time>2020-08-19T09:11:18Z</time>
      </trkpt>
      <trkpt lat="42.684745000" lon="-0.462172000">
        <ele>2105.4</ele>
        <time>2020-08-19T09:11:30Z</time>
      </trkpt>
      <trkpt lat="42.684716000" lon="-0.462283000">
        <ele>2102.6</ele>
        <time>2020-08-19T09:11:45Z</time>
      </trkpt>
      <trkpt lat="42.684697000" lon="-0.462396000">
        <ele>2100.0</ele>
        <time>2020-08-19T09:11:54Z</time>
      </trkpt>
      <trkpt lat="42.684678000" lon="-0.462505000">
        <ele>2097.5</ele>
        <time>2020-08-19T09:12:08Z</time>
      </trkpt>
      <trkpt lat="42.684696000" lon="-0.462621000">
        <ele>2094.8</ele>
        <time>2020-08-19T09:14:10Z</time>
      </trkpt>
      <trkpt lat="42.684691000" lon="-0.462739000">
        <ele>2092.0</ele>
        <time>2020-08-19T09:14:23Z</time>
      </trkpt>
      <trkpt lat="42.684626000" lon="-0.462810000">
        <ele>2089.3</ele>
        <time>2020-08-19T09:14:39Z</time>
      </trkpt>
      <trkpt lat="42.684541000" lon="-0.462819000">
        <ele>2086.7</ele>
        <time>2020-08-19T09:14:53Z</time>
      </trkpt>
      <trkpt lat="42.684464000" lon="-0.462855000">
        <ele>2084.1</ele>
        <time>2020-08-19T09:15:04Z</time>
      </trkpt>
      <trkpt lat="42.684396000" lon="-0.462932000">
        <ele>2081.4</ele>
        <time>2020-08-19T09:15:13Z</time>
      </trkpt>
      <trkpt lat="42.684340000" lon="-0.463023000">
        <ele>2078.5</ele>
        <time>2020-08-19T09:15:24Z</time>
      </trkpt>
      <trkpt lat="42.684253000" lon="-0.463018000">
        <ele>2075.7</ele>
        <time>2020-08-19T09:15:32Z</time>
      </trkpt>
      <trkpt lat="42.684173000" lon="-0.462975000">
        <ele>2072.9</ele>
        <time>2020-08-19T09:15:42Z</time>
      </trkpt>
      <trkpt lat="42.684097000" lon="-0.463028000">
        <ele>2070.1</ele>
        <time>2020-08-19T09:15:55Z</time>
      </trkpt>
      <trkpt lat="42.684079000" lon="-0.463141000">
        <ele>2067.2</ele>
        <time>2020-08-19T09:16:06Z</time>
      </trkpt>
      <trkpt lat="42.684041000" lon="-0.463249000">
        <ele>2064.5</ele>
        <time>2020-08-19T09:16:19Z</time>
      </trkpt>
      <trkpt lat="42.684024000" lon="-0.463366000">
        <ele>2062.1</ele>
        <time>2020-08-19T09:16:31Z</time>
      </trkpt>
      <trkpt lat="42.683953000" lon="-0.463426000">
        <ele>2059.6</ele>
        <time>2020-08-19T09:16:42Z</time>
      </trkpt>
      <trkpt lat="42.683877000" lon="-0.463484000">
        <ele>2057.0</ele>
        <time>2020-08-19T09:16:58Z</time>
      </trkpt>
      <trkpt lat="42.683812000" lon="-0.463550000">
        <ele>2054.5</ele>
        <time>2020-08-19T09:17:13Z</time>
      </trkpt>
      <trkpt lat="42.683728000" lon="-0.463569000">
        <ele>2052.1</ele>
        <time>2020-08-19T09:17:28Z</time>
      </trkpt>
      <trkpt lat="42.683647000" lon="-0.463588000">
        <ele>2049.7</ele>
        <time>2020-08-19T09:17:37Z</time>
      </trkpt>
      <trkpt lat="42.683562000" lon="-0.463625000">
        <ele>2047.4</ele>
        <time>2020-08-19T09:17:46Z</time>
      </trkpt>
      <trkpt lat="42.683493000" lon="-0.463685000">
        <ele>2044.9</ele>
        <time>2020-08-19T09:17:56Z</time>
      </trkpt>
      <trkpt lat="42.683418000" lon="-0.463744000">
        <ele>2042.3</ele>
        <time>2020-08-19T09:18:06Z</time>
      </trkpt>
      <trkpt lat="42.683352000" lon="-0.463823000">
        <ele>2039.9</ele>
        <time>2020-08-19T09:18:14Z</time>
      </trkpt>
      <trkpt lat="42.683273000" lon="-0.463862000">
        <ele>2037.5</ele>
        <time>2020-08-19T09:18:22Z</time>
      </trkpt>
      <trkpt lat="42.683193000" lon="-0.463911000">
        <ele>2035.4</ele>
        <time>2020-08-19T09:18:30Z</time>
      </trkpt>
      <trkpt lat="42.683122000" lon="-0.463971000">
        <ele>2033.2</ele>
        <time>2020-08-19T09:18:38Z</time>
      </trkpt>
      <trkpt lat="42.683055000" lon="-0.464052000">
        <ele>2031.3</ele>
        <time>2020-08-19T09:18:46Z</time>
      </trkpt>
      <trkpt lat="42.682976000" lon="-0.464091000">
        <ele>2029.4</ele>
        <time>2020-08-19T09:18:54Z</time>
      </trkpt>
      <trkpt lat="42.682925000" lon="-0.464179000">
        <ele>2027.5</ele>
        <time>2020-08-19T09:19:02Z</time>
      </trkpt>
      <trkpt lat="42.682853000" lon="-0.464233000">
        <ele>2025.6</ele>
        <time>2020-08-19T09:19:13Z</time>
      </trkpt>
      <trkpt lat="42.682855000" lon="-0.464347000">
        <ele>2023.7</ele>
        <time>2020-08-19T09:19:46Z</time>
      </trkpt>
      <trkpt lat="42.682800000" lon="-0.464439000">
        <ele>2021.7</ele>
        <time>2020-08-19T09:19:56Z</time>
      </trkpt>
      <trkpt lat="42.682758000" lon="-0.464537000">
        <ele>2019.9</ele>
        <time>2020-08-19T09:20:05Z</time>
      </trkpt>
      <trkpt lat="42.682765000" lon="-0.464648000">
        <ele>2017.6</ele>
        <time>2020-08-19T09:20:14Z</time>
      </trkpt>
      <trkpt lat="42.682844000" lon="-0.464694000">
        <ele>2015.4</ele>
        <time>2020-08-19T09:20:23Z</time>
      </trkpt>
      <trkpt lat="42.682916000" lon="-0.464763000">
        <ele>2012.8</ele>
        <time>2020-08-19T09:20:33Z</time>
      </trkpt>
      <trkpt lat="42.682990000" lon="-0.464811000">
        <ele>2010.2</ele>
        <time>2020-08-19T09:20:44Z</time>
      </trkpt>
      <trkpt lat="42.683070000" lon="-0.464837000">
        <ele>2007.3</ele>
        <time>2020-08-19T09:20:53Z</time>
      </trkpt>
      <trkpt lat="42.683120000" lon="-0.464942000">
        <ele>2004.4</ele>
        <time>2020-08-19T09:21:05Z</time>
      </trkpt>
      <trkpt lat="42.683194000" lon="-0.464991000">
        <ele>2001.5</ele>
        <time>2020-08-19T09:21:12Z</time>
      </trkpt>
      <trkpt lat="42.683264000" lon="-0.465046000">
        <ele>1998.7</ele>
        <time>2020-08-19T09:21:20Z</time>
      </trkpt>
      <trkpt lat="42.683332000" lon="-0.465113000">
        <ele>1996.1</ele>
        <time>2020-08-19T09:21:29Z</time>
      </trkpt>
      <trkpt lat="42.683402000" lon="-0.465188000">
        <ele>1993.5</ele>
        <time>2020-08-19T09:21:38Z</time>
      </trkpt>
      <trkpt lat="42.683481000" lon="-0.465246000">
        <ele>1990.9</ele>
        <time>2020-08-19T09:21:48Z</time>
      </trkpt>
      <trkpt lat="42.683549000" lon="-0.465315000">
        <ele>1988.5</ele>
        <time>2020-08-19T09:21:57Z</time>
      </trkpt>
      <trkpt lat="42.683630000" lon="-0.465366000">
        <ele>1985.8</ele>
        <time>2020-08-19T09:22:06Z</time>
      </trkpt>
      <trkpt lat="42.683701000" lon="-0.465435000">
        <ele>1983.0</ele>
        <time>2020-08-19T09:22:15Z</time>
      </trkpt>
      <trkpt lat="42.683771000" lon="-0.465511000">
        <ele>1980.1</ele>
        <time>2020-08-19T09:22:24Z</time>
      </trkpt>
      <trkpt lat="42.683844000" lon="-0.465567000">
        <ele>1977.3</ele>
        <time>2020-08-19T09:22:33Z</time>
      </trkpt>
      <trkpt lat="42.683914000" lon="-0.465623000">
        <ele>1974.3</ele>
        <time>2020-08-19T09:22:43Z</time>
      </trkpt>
      <trkpt lat="42.683920000" lon="-0.465735000">
        <ele>1971.0</ele>
        <time>2020-08-19T09:22:55Z</time>
      </trkpt>
      <trkpt lat="42.683927000" lon="-0.465847000">
        <ele>1967.4</ele>
        <time>2020-08-19T09:23:13Z</time>
      </trkpt>
      <trkpt lat="42.683916000" lon="-0.465964000">
        <ele>1963.5</ele>
        <time>2020-08-19T09:23:29Z</time>
      </trkpt>
      <trkpt lat="42.683867000" lon="-0.466053000">
        <ele>1959.7</ele>
        <time>2020-08-19T09:23:38Z</time>
      </trkpt>
      <trkpt lat="42.683848000" lon="-0.466167000">
        <ele>1955.9</ele>
        <time>2020-08-19T09:23:44Z</time>
      </trkpt>
      <trkpt lat="42.683877000" lon="-0.466282000">
        <ele>1952.3</ele>
        <time>2020-08-19T09:23:51Z</time>
      </trkpt>
      <trkpt lat="42.683894000" lon="-0.466397000">
        <ele>1948.8</ele>
        <time>2020-08-19T09:23:58Z</time>
      </trkpt>
      <trkpt lat="42.683925000" lon="-0.466505000">
        <ele>1945.6</ele>
        <time>2020-08-19T09:24:07Z</time>
      </trkpt>
      <trkpt lat="42.683954000" lon="-0.466626000">
        <ele>1942.8</ele>
        <time>2020-08-19T09:24:17Z</time>
      </trkpt>
      <trkpt lat="42.684008000" lon="-0.466717000">
        <ele>1940.1</ele>
        <time>2020-08-19T09:24:27Z</time>
      </trkpt>
      <trkpt lat="42.683985000" lon="-0.466827000">
        <ele>1937.6</ele>
        <time>2020-08-19T09:24:37Z</time>
      </trkpt>
      <trkpt lat="42.683991000" lon="-0.466939000">
        <ele>1935.5</ele>
        <time>2020-08-19T09:24:46Z</time>
      </trkpt>
      <trkpt lat="42.684024000" lon="-0.467045000">
        <ele>1933.6</ele>
        <time>2020-08-19T09:24:55Z</time>
      </trkpt>
      <trkpt lat="42.684106000" lon="-0.467060000">
        <ele>1932.0</ele>
        <time>2020-08-19T09:25:03Z</time>
      </trkpt>
      <trkpt lat="42.684187000" lon="-0.467061000">
        <ele>1930.4</ele>
        <time>2020-08-19T09:25:14Z</time>
      </trkpt>
      <trkpt lat="42.684236000" lon="-0.467153000">
        <ele>1928.8</ele>
        <time>2020-08-19T09:25:21Z</time>
      </trkpt>
      <trkpt lat="42.684291000" lon="-0.467247000">
        <ele>1927.3</ele>
        <time>2020-08-19T09:25:31Z</time>
      </trkpt>
      <trkpt lat="42.684359000" lon="-0.467311000">
        <ele>1925.8</ele>
        <time>2020-08-19T09:25:39Z</time>
      </trkpt>
      <trkpt lat="42.684435000" lon="-0.467361000">
        <ele>1924.6</ele>
        <time>2020-08-19T09:25:46Z</time>
      </trkpt>
      <trkpt lat="42.684524000" lon="-0.467391000">
        <ele>1923.5</ele>
        <time>2020-08-19T09:25:54Z</time>
      </trkpt>
      <trkpt lat="42.684587000" lon="-0.467321000">
        <ele>1922.2</ele>
        <time>2020-08-19T09:26:03Z</time>
      </trkpt>
      <trkpt lat="42.684637000" lon="-0.467229000">
        <ele>1920.6</ele>
        <time>2020-08-19T09:26:14Z</time>
      </trkpt>
      <trkpt lat="42.684698000" lon="-0.467155000">
        <ele>1919.0</ele>
        <time>2020-08-19T09:26:21Z</time>
      </trkpt>
      <trkpt lat="42.684747000" lon="-0.467059000">
        <ele>1917.2</ele>
        <time>2020-08-19T09:26:31Z</time>
      </trkpt>
      <trkpt lat="42.684803000" lon="-0.466977000">
        <ele>1915.2</ele>
        <time>2020-08-19T09:26:43Z</time>
      </trkpt>
      <trkpt lat="42.684821000" lon="-0.467091000">
        <ele>1913.1</ele>
        <time>2020-08-19T09:26:56Z</time>
      </trkpt>
      <trkpt lat="42.684885000" lon="-0.467159000">
        <ele>1911.0</ele>
        <time>2020-08-19T09:27:12Z</time>
      </trkpt>
      <trkpt lat="42.684962000" lon="-0.467195000">
        <ele>1908.7</ele>
        <time>2020-08-19T09:27:26Z</time>
      </trkpt>
      <trkpt lat="42.685045000" lon="-0.467227000">
        <ele>1906.3</ele>
        <time>2020-08-19T09:27:38Z</time>
      </trkpt>
      <trkpt lat="42.685100000" lon="-0.467311000">
        <ele>1903.4</ele>
        <time>2020-08-19T09:27:49Z</time>
      </trkpt>
      <trkpt lat="42.685157000" lon="-0.467397000">
        <ele>1899.7</ele>
        <time>2020-08-19T09:28:03Z</time>
      </trkpt>
      <trkpt lat="42.685189000" lon="-0.467504000">
        <ele>1895.9</ele>
        <time>2020-08-19T09:28:20Z</time>
      </trkpt>
      <trkpt lat="42.685231000" lon="-0.467601000">
        <ele>1891.7</ele>
        <time>2020-08-19T09:28:30Z</time>
      </trkpt>
      <trkpt lat="42.685284000" lon="-0.467698000">
        <ele>1887.3</ele>
        <time>2020-08-19T09:28:39Z</time>
      </trkpt>
      <trkpt lat="42.685345000" lon="-0.467775000">
        <ele>1882.6</ele>
        <time>2020-08-19T09:28:50Z</time>
      </trkpt>
      <trkpt lat="42.685403000" lon="-0.467860000">
        <ele>1877.9</ele>
        <time>2020-08-19T09:29:01Z</time>
      </trkpt>
      <trkpt lat="42.685451000" lon="-0.467950000">
        <ele>1873.1</ele>
        <time>2020-08-19T09:29:09Z</time>
      </trkpt>
      <trkpt lat="42.685499000" lon="-0.468047000">
        <ele>1868.0</ele>
        <time>2020-08-19T09:29:17Z</time>
      </trkpt>
      <trkpt lat="42.685542000" lon="-0.468155000">
        <ele>1862.7</ele>
        <time>2020-08-19T09:29:25Z</time>
      </trkpt>
      <trkpt lat="42.685609000" lon="-0.468220000">
        <ele>1857.2</ele>
        <time>2020-08-19T09:29:33Z</time>
      </trkpt>
      <trkpt lat="42.685685000" lon="-0.468276000">
        <ele>1851.6</ele>
        <time>2020-08-19T09:29:42Z</time>
      </trkpt>
      <trkpt lat="42.685741000" lon="-0.468356000">
        <ele>1846.5</ele>
        <time>2020-08-19T09:29:51Z</time>
      </trkpt>
      <trkpt lat="42.685782000" lon="-0.468453000">
        <ele>1841.6</ele>
        <time>2020-08-19T09:30:01Z</time>
      </trkpt>
      <trkpt lat="42.685831000" lon="-0.468543000">
        <ele>1837.6</ele>
        <time>2020-08-19T09:30:09Z</time>
      </trkpt>
      <trkpt lat="42.685880000" lon="-0.468634000">
        <ele>1834.1</ele>
        <time>2020-08-19T09:30:17Z</time>
      </trkpt>
      <trkpt lat="42.685909000" lon="-0.468739000">
        <ele>1830.8</ele>
        <time>2020-08-19T09:30:25Z</time>
      </trkpt>
      <trkpt lat="42.685930000" lon="-0.468852000">
        <ele>1827.8</ele>
        <time>2020-08-19T09:30:34Z</time>
      </trkpt>
      <trkpt lat="42.685943000" lon="-0.468970000">
        <ele>1825.1</ele>
        <time>2020-08-19T09:30:42Z</time>
      </trkpt>
      <trkpt lat="42.685913000" lon="-0.469076000">
        <ele>1822.7</ele>
        <time>2020-08-19T09:30:52Z</time>
      </trkpt>
      <trkpt lat="42.685916000" lon="-0.469189000">
        <ele>1820.5</ele>
        <time>2020-08-19T09:31:04Z</time>
      </trkpt>
      <trkpt lat="42.685946000" lon="-0.469299000">
        <ele>1818.5</ele>
        <time>2020-08-19T09:31:11Z</time>
      </trkpt>
      <trkpt lat="42.685967000" lon="-0.469418000">
        <ele>1816.7</ele>
        <time>2020-08-19T09:31:21Z</time>
      </trkpt>
      <trkpt lat="42.685981000" lon="-0.469533000">
        <ele>1815.2</ele>
        <time>2020-08-19T09:31:31Z</time>
      </trkpt>
      <trkpt lat="42.686014000" lon="-0.469635000">
        <ele>1813.7</ele>
        <time>2020-08-19T09:31:39Z</time>
      </trkpt>
      <trkpt lat="42.686068000" lon="-0.469727000">
        <ele>1812.0</ele>
        <time>2020-08-19T09:31:48Z</time>
      </trkpt>
      <trkpt lat="42.686133000" lon="-0.469804000">
        <ele>1810.3</ele>
        <time>2020-08-19T09:31:57Z</time>
      </trkpt>
      <trkpt lat="42.686211000" lon="-0.469836000">
        <ele>1808.6</ele>
        <time>2020-08-19T09:32:13Z</time>
      </trkpt>
      <trkpt lat="42.686290000" lon="-0.469809000">
        <ele>1807.1</ele>
        <time>2020-08-19T09:32:23Z</time>
      </trkpt>
      <trkpt lat="42.686362000" lon="-0.469757000">
        <ele>1805.6</ele>
        <time>2020-08-19T09:32:34Z</time>
      </trkpt>
      <trkpt lat="42.686421000" lon="-0.469668000">
        <ele>1804.2</ele>
        <time>2020-08-19T09:32:43Z</time>
      </trkpt>
      <trkpt lat="42.686490000" lon="-0.469603000">
        <ele>1802.9</ele>
        <time>2020-08-19T09:33:50Z</time>
      </trkpt>
      <trkpt lat="42.686554000" lon="-0.469534000">
        <ele>1801.9</ele>
        <time>2020-08-19T09:34:00Z</time>
      </trkpt>
      <trkpt lat="42.686643000" lon="-0.469518000">
        <ele>1801.0</ele>
        <time>2020-08-19T09:34:10Z</time>
      </trkpt>
      <trkpt lat="42.686726000" lon="-0.469544000">
        <ele>1800.0</ele>
        <time>2020-08-19T09:34:18Z</time>
      </trkpt>
      <trkpt lat="42.686759000" lon="-0.469428000">
        <ele>1799.1</ele>
        <time>2020-08-19T09:34:27Z</time>
      </trkpt>
      <trkpt lat="42.686816000" lon="-0.469343000">
        <ele>1798.2</ele>
        <time>2020-08-19T09:34:37Z</time>
      </trkpt>
      <trkpt lat="42.686881000" lon="-0.469273000">
        <ele>1797.4</ele>
        <time>2020-08-19T09:34:48Z</time>
      </trkpt>
      <trkpt lat="42.686942000" lon="-0.469194000">
        <ele>1796.6</ele>
        <time>2020-08-19T09:35:00Z</time>
      </trkpt>
      <trkpt lat="42.686930000" lon="-0.469080000">
        <ele>1795.9</ele>
        <time>2020-08-19T09:35:13Z</time>
      </trkpt>
      <trkpt lat="42.686904000" lon="-0.468973000">
        <ele>1795.1</ele>
        <time>2020-08-19T09:35:23Z</time>
      </trkpt>
      <trkpt lat="42.686886000" lon="-0.468866000">
        <ele>1794.0</ele>
        <time>2020-08-19T09:35:35Z</time>
      </trkpt>
      <trkpt lat="42.686892000" lon="-0.468756000">
        <ele>1792.5</ele>
        <time>2020-08-19T09:35:50Z</time>
      </trkpt>
      <trkpt lat="42.686893000" lon="-0.468642000">
        <ele>1790.9</ele>
        <time>2020-08-19T09:35:59Z</time>
      </trkpt>
      <trkpt lat="42.686903000" lon="-0.468520000">
        <ele>1789.2</ele>
        <time>2020-08-19T09:36:09Z</time>
      </trkpt>
      <trkpt lat="42.686907000" lon="-0.468396000">
        <ele>1787.5</ele>
        <time>2020-08-19T09:36:18Z</time>
      </trkpt>
      <trkpt lat="42.686962000" lon="-0.468311000">
        <ele>1785.5</ele>
        <time>2020-08-19T09:36:26Z</time>
      </trkpt>
      <trkpt lat="42.687021000" lon="-0.468215000">
        <ele>1783.6</ele>
        <time>2020-08-19T09:36:35Z</time>
      </trkpt>
      <trkpt lat="42.687060000" lon="-0.468118000">
        <ele>1781.6</ele>
        <time>2020-08-19T09:36:42Z</time>
      </trkpt>
      <trkpt lat="42.687117000" lon="-0.468030000">
        <ele>1779.5</ele>
        <time>2020-08-19T09:36:53Z</time>
      </trkpt>
      <trkpt lat="42.687155000" lon="-0.467923000">
        <ele>1777.5</ele>
        <time>2020-08-19T09:37:01Z</time>
      </trkpt>
      <trkpt lat="42.687221000" lon="-0.467841000">
        <ele>1775.6</ele>
        <time>2020-08-19T09:37:08Z</time>
      </trkpt>
      <trkpt lat="42.687291000" lon="-0.467785000">
        <ele>1774.0</ele>
        <time>2020-08-19T09:37:15Z</time>
      </trkpt>
      <trkpt lat="42.687378000" lon="-0.467758000">
        <ele>1772.7</ele>
        <time>2020-08-19T09:37:24Z</time>
      </trkpt>
      <trkpt lat="42.687459000" lon="-0.467789000">
        <ele>1771.7</ele>
        <time>2020-08-19T09:37:32Z</time>
      </trkpt>
      <trkpt lat="42.687539000" lon="-0.467840000">
        <ele>1770.8</ele>
        <time>2020-08-19T09:37:41Z</time>
      </trkpt>
      <trkpt lat="42.687568000" lon="-0.467944000">
        <ele>1770.0</ele>
        <time>2020-08-19T09:37:49Z</time>
      </trkpt>
      <trkpt lat="42.687620000" lon="-0.468042000">
        <ele>1769.4</ele>
        <time>2020-08-19T09:37:57Z</time>
      </trkpt>
      <trkpt lat="42.687674000" lon="-0.468140000">
        <ele>1768.7</ele>
        <time>2020-08-19T09:38:04Z</time>
      </trkpt>
      <trkpt lat="42.687698000" lon="-0.468255000">
        <ele>1768.0</ele>
        <time>2020-08-19T09:38:12Z</time>
      </trkpt>
      <trkpt lat="42.687722000" lon="-0.468362000">
        <ele>1767.2</ele>
        <time>2020-08-19T09:38:19Z</time>
      </trkpt>
      <trkpt lat="42.687755000" lon="-0.468467000">
        <ele>1766.3</ele>
        <time>2020-08-19T09:38:27Z</time>
      </trkpt>
      <trkpt lat="42.687811000" lon="-0.468563000">
        <ele>1765.0</ele>
        <time>2020-08-19T09:38:35Z</time>
      </trkpt>
      <trkpt lat="42.687858000" lon="-0.468663000">
        <ele>1763.9</ele>
        <time>2020-08-19T09:38:43Z</time>
      </trkpt>
      <trkpt lat="42.687902000" lon="-0.468766000">
        <ele>1762.8</ele>
        <time>2020-08-19T09:38:51Z</time>
      </trkpt>
      <trkpt lat="42.687956000" lon="-0.468857000">
        <ele>1761.6</ele>
        <time>2020-08-19T09:38:58Z</time>
      </trkpt>
      <trkpt lat="42.687989000" lon="-0.468957000">
        <ele>1760.4</ele>
        <time>2020-08-19T09:39:06Z</time>
      </trkpt>
      <trkpt lat="42.688058000" lon="-0.469026000">
        <ele>1758.9</ele>
        <time>2020-08-19T09:39:14Z</time>
      </trkpt>
      <trkpt lat="42.688110000" lon="-0.469125000">
        <ele>1757.3</ele>
        <time>2020-08-19T09:39:23Z</time>
      </trkpt>
      <trkpt lat="42.688178000" lon="-0.469189000">
        <ele>1755.5</ele>
        <time>2020-08-19T09:39:31Z</time>
      </trkpt>
      <trkpt lat="42.688228000" lon="-0.469285000">
        <ele>1753.5</ele>
        <time>2020-08-19T09:39:42Z</time>
      </trkpt>
      <trkpt lat="42.688226000" lon="-0.469405000">
        <ele>1751.6</ele>
        <time>2020-08-19T09:39:50Z</time>
      </trkpt>
      <trkpt lat="42.688231000" lon="-0.469522000">
        <ele>1749.8</ele>
        <time>2020-08-19T09:39:59Z</time>
      </trkpt>
      <trkpt lat="42.688282000" lon="-0.469612000">
        <ele>1748.3</ele>
        <time>2020-08-19T09:40:07Z</time>
      </trkpt>
      <trkpt lat="42.688343000" lon="-0.469697000">
        <ele>1746.7</ele>
        <time>2020-08-19T09:40:16Z</time>
      </trkpt>
      <trkpt lat="42.688341000" lon="-0.469817000">
        <ele>1745.1</ele>
        <time>2020-08-19T09:40:27Z</time>
      </trkpt>
      <trkpt lat="42.688318000" lon="-0.469926000">
        <ele>1743.4</ele>
        <time>2020-08-19T09:40:35Z</time>
      </trkpt>
      <trkpt lat="42.688350000" lon="-0.470036000">
        <ele>1741.6</ele>
        <time>2020-08-19T09:40:42Z</time>
      </trkpt>
      <trkpt lat="42.688358000" lon="-0.470151000">
        <ele>1740.0</ele>
        <time>2020-08-19T09:40:51Z</time>
      </trkpt>
      <trkpt lat="42.688371000" lon="-0.470269000">
        <ele>1738.5</ele>
        <time>2020-08-19T09:40:59Z</time>
      </trkpt>
      <trkpt lat="42.688392000" lon="-0.470384000">
        <ele>1737.3</ele>
        <time>2020-08-19T09:41:08Z</time>
      </trkpt>
      <trkpt lat="42.688397000" lon="-0.470504000">
        <ele>1736.0</ele>
        <time>2020-08-19T09:41:18Z</time>
      </trkpt>
      <trkpt lat="42.688369000" lon="-0.470616000">
        <ele>1734.9</ele>
        <time>2020-08-19T09:41:26Z</time>
      </trkpt>
      <trkpt lat="42.688369000" lon="-0.470731000">
        <ele>1733.8</ele>
        <time>2020-08-19T09:41:33Z</time>
      </trkpt>
      <trkpt lat="42.688377000" lon="-0.470848000">
        <ele>1732.5</ele>
        <time>2020-08-19T09:41:40Z</time>
      </trkpt>
      <trkpt lat="42.688406000" lon="-0.470969000">
        <ele>1730.9</ele>
        <time>2020-08-19T09:41:47Z</time>
      </trkpt>
      <trkpt lat="42.688398000" lon="-0.471094000">
        <ele>1729.2</ele>
        <time>2020-08-19T09:41:56Z</time>
      </trkpt>
      <trkpt lat="42.688408000" lon="-0.471203000">
        <ele>1727.6</ele>
        <time>2020-08-19T09:42:03Z</time>
      </trkpt>
      <trkpt lat="42.688396000" lon="-0.471321000">
        <ele>1726.2</ele>
        <time>2020-08-19T09:42:11Z</time>
      </trkpt>
      <trkpt lat="42.688403000" lon="-0.471449000">
        <ele>1724.6</ele>
        <time>2020-08-19T09:42:19Z</time>
      </trkpt>
      <trkpt lat="42.688411000" lon="-0.471571000">
        <ele>1722.8</ele>
        <time>2020-08-19T09:42:26Z</time>
      </trkpt>
      <trkpt lat="42.688427000" lon="-0.471684000">
        <ele>1720.9</ele>
        <time>2020-08-19T09:42:32Z</time>
      </trkpt>
      <trkpt lat="42.688413000" lon="-0.471805000">
        <ele>1719.1</ele>
        <time>2020-08-19T09:42:39Z</time>
      </trkpt>
      <trkpt lat="42.688422000" lon="-0.471920000">
        <ele>1717.2</ele>
        <time>2020-08-19T09:42:46Z</time>
      </trkpt>
      <trkpt lat="42.688447000" lon="-0.472040000">
        <ele>1715.3</ele>
        <time>2020-08-19T09:42:53Z</time>
      </trkpt>
      <trkpt lat="42.688464000" lon="-0.472162000">
        <ele>1713.4</ele>
        <time>2020-08-19T09:43:00Z</time>
      </trkpt>
      <trkpt lat="42.688484000" lon="-0.472278000">
        <ele>1711.6</ele>
        <time>2020-08-19T09:43:07Z</time>
      </trkpt>
      <trkpt lat="42.688479000" lon="-0.472395000">
        <ele>1710.1</ele>
        <time>2020-08-19T09:43:15Z</time>
      </trkpt>
      <trkpt lat="42.688446000" lon="-0.472497000">
        <ele>1708.5</ele>
        <time>2020-08-19T09:43:22Z</time>
      </trkpt>
      <trkpt lat="42.688471000" lon="-0.472604000">
        <ele>1706.6</ele>
        <time>2020-08-19T09:43:29Z</time>
      </trkpt>
      <trkpt lat="42.688497000" lon="-0.472718000">
        <ele>1704.8</ele>
        <time>2020-08-19T09:43:37Z</time>
      </trkpt>
      <trkpt lat="42.688488000" lon="-0.472838000">
        <ele>1703.2</ele>
        <time>2020-08-19T09:43:45Z</time>
      </trkpt>
      <trkpt lat="42.688470000" lon="-0.472952000">
        <ele>1701.7</ele>
        <time>2020-08-19T09:43:54Z</time>
      </trkpt>
      <trkpt lat="42.688465000" lon="-0.473069000">
        <ele>1700.4</ele>
        <time>2020-08-19T09:44:03Z</time>
      </trkpt>
      <trkpt lat="42.688428000" lon="-0.473173000">
        <ele>1699.0</ele>
        <time>2020-08-19T09:44:10Z</time>
      </trkpt>
      <trkpt lat="42.688403000" lon="-0.473289000">
        <ele>1697.7</ele>
        <time>2020-08-19T09:44:16Z</time>
      </trkpt>
      <trkpt lat="42.688462000" lon="-0.473371000">
        <ele>1696.6</ele>
        <time>2020-08-19T09:44:26Z</time>
      </trkpt>
      <trkpt lat="42.688529000" lon="-0.473453000">
        <ele>1695.7</ele>
        <time>2020-08-19T09:44:38Z</time>
      </trkpt>
      <trkpt lat="42.688552000" lon="-0.473559000">
        <ele>1694.8</ele>
        <time>2020-08-19T09:44:46Z</time>
      </trkpt>
      <trkpt lat="42.688578000" lon="-0.473664000">
        <ele>1693.9</ele>
        <time>2020-08-19T09:44:55Z</time>
      </trkpt>
      <trkpt lat="42.688621000" lon="-0.473761000">
        <ele>1693.1</ele>
        <time>2020-08-19T09:45:03Z</time>
      </trkpt>
      <trkpt lat="42.688662000" lon="-0.473868000">
        <ele>1692.4</ele>
        <time>2020-08-19T09:45:13Z</time>
      </trkpt>
      <trkpt lat="42.688673000" lon="-0.473981000">
        <ele>1691.5</ele>
        <time>2020-08-19T09:45:21Z</time>
      </trkpt>
      <trkpt lat="42.688647000" lon="-0.474092000">
        <ele>1690.7</ele>
        <time>2020-08-19T09:45:30Z</time>
      </trkpt>
      <trkpt lat="42.688623000" lon="-0.474197000">
        <ele>1689.9</ele>
        <time>2020-08-19T09:45:51Z</time>
      </trkpt>
      <trkpt lat="42.688573000" lon="-0.474293000">
        <ele>1689.2</ele>
        <time>2020-08-19T09:46:01Z</time>
      </trkpt>
      <trkpt lat="42.688523000" lon="-0.474389000">
        <ele>1688.5</ele>
        <time>2020-08-19T09:46:08Z</time>
      </trkpt>
      <trkpt lat="42.688461000" lon="-0.474474000">
        <ele>1688.0</ele>
        <time>2020-08-19T09:46:21Z</time>
      </trkpt>
      <trkpt lat="42.688417000" lon="-0.474571000">
        <ele>1687.4</ele>
        <time>2020-08-19T09:46:29Z</time>
      </trkpt>
      <trkpt lat="42.688404000" lon="-0.474680000">
        <ele>1686.9</ele>
        <time>2020-08-19T09:46:41Z</time>
      </trkpt>
      <trkpt lat="42.688376000" lon="-0.474785000">
        <ele>1686.3</ele>
        <time>2020-08-19T09:47:17Z</time>
      </trkpt>
      <trkpt lat="42.688364000" lon="-0.474850000">
        <ele>1685.8</ele>
        <time>2020-08-19T09:47:38Z</time>
      </trkpt>
      <trkpt lat="42.687174000" lon="-0.476594000">
        <ele>1625.0</ele>
        <time>2020-08-19T10:34:47Z</time>
      </trkpt>
      <trkpt lat="42.687202000" lon="-0.476702000">
        <ele>1624.7</ele>
        <time>2020-08-19T10:35:11Z</time>
      </trkpt>
      <trkpt lat="42.687208000" lon="-0.476816000">
        <ele>1624.6</ele>
        <time>2020-08-19T10:35:20Z</time>
      </trkpt>
      <trkpt lat="42.687230000" lon="-0.476933000">
        <ele>1624.8</ele>
        <time>2020-08-19T10:35:32Z</time>
      </trkpt>
      <trkpt lat="42.687259000" lon="-0.477045000">
        <ele>1624.9</ele>
        <time>2020-08-19T10:35:40Z</time>
      </trkpt>
      <trkpt lat="42.687273000" lon="-0.477157000">
        <ele>1625.0</ele>
        <time>2020-08-19T10:35:49Z</time>
      </trkpt>
      <trkpt lat="42.687298000" lon="-0.477262000">
        <ele>1624.7</ele>
        <time>2020-08-19T10:35:55Z</time>
      </trkpt>
      <trkpt lat="42.687289000" lon="-0.477374000">
        <ele>1624.6</ele>
        <time>2020-08-19T10:36:03Z</time>
      </trkpt>
      <trkpt lat="42.687320000" lon="-0.477486000">
        <ele>1624.5</ele>
        <time>2020-08-19T10:36:13Z</time>
      </trkpt>
      <trkpt lat="42.687330000" lon="-0.477598000">
        <ele>1624.5</ele>
        <time>2020-08-19T10:36:21Z</time>
      </trkpt>
      <trkpt lat="42.687333000" lon="-0.477715000">
        <ele>1624.3</ele>
        <time>2020-08-19T10:36:30Z</time>
      </trkpt>
      <trkpt lat="42.687338000" lon="-0.477829000">
        <ele>1624.0</ele>
        <time>2020-08-19T10:36:44Z</time>
      </trkpt>
      <trkpt lat="42.687368000" lon="-0.477934000">
        <ele>1623.6</ele>
        <time>2020-08-19T10:37:09Z</time>
      </trkpt>
      <trkpt lat="42.687362000" lon="-0.478050000">
        <ele>1622.9</ele>
        <time>2020-08-19T10:37:20Z</time>
      </trkpt>
      <trkpt lat="42.687361000" lon="-0.478170000">
        <ele>1621.8</ele>
        <time>2020-08-19T10:37:29Z</time>
      </trkpt>
      <trkpt lat="42.687355000" lon="-0.478280000">
        <ele>1620.5</ele>
        <time>2020-08-19T10:37:38Z</time>
      </trkpt>
      <trkpt lat="42.687339000" lon="-0.478391000">
        <ele>1619.1</ele>
        <time>2020-08-19T10:37:46Z</time>
      </trkpt>
      <trkpt lat="42.687310000" lon="-0.478498000">
        <ele>1617.6</ele>
        <time>2020-08-19T10:37:53Z</time>
      </trkpt>
      <trkpt lat="42.687280000" lon="-0.478612000">
        <ele>1616.1</ele>
        <time>2020-08-19T10:38:02Z</time>
      </trkpt>
      <trkpt lat="42.687255000" lon="-0.478727000">
        <ele>1614.5</ele>
        <time>2020-08-19T10:38:10Z</time>
      </trkpt>
      <trkpt lat="42.687243000" lon="-0.478837000">
        <ele>1613.2</ele>
        <time>2020-08-19T10:38:17Z</time>
      </trkpt>
      <trkpt lat="42.687231000" lon="-0.478958000">
        <ele>1611.9</ele>
        <time>2020-08-19T10:38:26Z</time>
      </trkpt>
      <trkpt lat="42.687231000" lon="-0.479073000">
        <ele>1610.8</ele>
        <time>2020-08-19T10:38:33Z</time>
      </trkpt>
      <trkpt lat="42.687221000" lon="-0.479197000">
        <ele>1609.7</ele>
        <time>2020-08-19T10:38:41Z</time>
      </trkpt>
      <trkpt lat="42.687202000" lon="-0.479308000">
        <ele>1608.7</ele>
        <time>2020-08-19T10:38:48Z</time>
      </trkpt>
      <trkpt lat="42.687211000" lon="-0.479422000">
        <ele>1607.8</ele>
        <time>2020-08-19T10:38:56Z</time>
      </trkpt>
      <trkpt lat="42.687214000" lon="-0.479537000">
        <ele>1607.0</ele>
        <time>2020-08-19T10:39:03Z</time>
      </trkpt>
      <trkpt lat="42.687211000" lon="-0.479661000">
        <ele>1606.3</ele>
        <time>2020-08-19T10:39:13Z</time>
      </trkpt>
      <trkpt lat="42.687213000" lon="-0.479784000">
        <ele>1605.5</ele>
        <time>2020-08-19T10:39:22Z</time>
      </trkpt>
      <trkpt lat="42.687189000" lon="-0.479904000">
        <ele>1604.8</ele>
        <time>2020-08-19T10:39:30Z</time>
      </trkpt>
      <trkpt lat="42.687185000" lon="-0.480015000">
        <ele>1604.0</ele>
        <time>2020-08-19T10:39:37Z</time>
      </trkpt>
      <trkpt lat="42.687190000" lon="-0.480128000">
        <ele>1603.0</ele>
        <time>2020-08-19T10:39:44Z</time>
      </trkpt>
      <trkpt lat="42.687192000" lon="-0.480244000">
        <ele>1601.9</ele>
        <time>2020-08-19T10:39:51Z</time>
      </trkpt>
      <trkpt lat="42.687197000" lon="-0.480356000">
        <ele>1600.8</ele>
        <time>2020-08-19T10:39:58Z</time>
      </trkpt>
      <trkpt lat="42.687208000" lon="-0.480473000">
        <ele>1599.7</ele>
        <time>2020-08-19T10:40:07Z</time>
      </trkpt>
      <trkpt lat="42.687207000" lon="-0.480595000">
        <ele>1598.8</ele>
        <time>2020-08-19T10:40:16Z</time>
      </trkpt>
      <trkpt lat="42.687213000" lon="-0.480707000">
        <ele>1597.9</ele>
        <time>2020-08-19T10:40:24Z</time>
      </trkpt>
      <trkpt lat="42.687226000" lon="-0.480817000">
        <ele>1597.1</ele>
        <time>2020-08-19T10:40:32Z</time>
      </trkpt>
      <trkpt lat="42.687235000" lon="-0.480930000">
        <ele>1596.4</ele>
        <time>2020-08-19T10:40:40Z</time>
      </trkpt>
      <trkpt lat="42.687254000" lon="-0.481041000">
        <ele>1595.6</ele>
        <time>2020-08-19T10:40:48Z</time>
      </trkpt>
      <trkpt lat="42.687270000" lon="-0.481155000">
        <ele>1595.0</ele>
        <time>2020-08-19T10:40:55Z</time>
      </trkpt>
      <trkpt lat="42.687286000" lon="-0.481280000">
        <ele>1594.5</ele>
        <time>2020-08-19T10:41:01Z</time>
      </trkpt>
      <trkpt lat="42.687300000" lon="-0.481394000">
        <ele>1594.2</ele>
        <time>2020-08-19T10:41:08Z</time>
      </trkpt>
      <trkpt lat="42.687329000" lon="-0.481499000">
        <ele>1593.8</ele>
        <time>2020-08-19T10:41:16Z</time>
      </trkpt>
      <trkpt lat="42.687343000" lon="-0.481618000">
        <ele>1593.5</ele>
        <time>2020-08-19T10:41:28Z</time>
      </trkpt>
      <trkpt lat="42.687375000" lon="-0.481724000">
        <ele>1593.1</ele>
        <time>2020-08-19T10:41:36Z</time>
      </trkpt>
      <trkpt lat="42.687409000" lon="-0.481825000">
        <ele>1592.5</ele>
        <time>2020-08-19T10:41:44Z</time>
      </trkpt>
      <trkpt lat="42.687431000" lon="-0.481941000">
        <ele>1591.8</ele>
        <time>2020-08-19T10:41:53Z</time>
      </trkpt>
      <trkpt lat="42.687468000" lon="-0.482052000">
        <ele>1591.0</ele>
        <time>2020-08-19T10:42:01Z</time>
      </trkpt>
      <trkpt lat="42.687514000" lon="-0.482150000">
        <ele>1590.1</ele>
        <time>2020-08-19T10:42:10Z</time>
      </trkpt>
      <trkpt lat="42.687501000" lon="-0.482261000">
        <ele>1589.5</ele>
        <time>2020-08-19T10:42:17Z</time>
      </trkpt>
      <trkpt lat="42.687516000" lon="-0.482370000">
        <ele>1588.9</ele>
        <time>2020-08-19T10:42:29Z</time>
      </trkpt>
      <trkpt lat="42.687504000" lon="-0.482491000">
        <ele>1588.2</ele>
        <time>2020-08-19T10:42:37Z</time>
      </trkpt>
      <trkpt lat="42.687501000" lon="-0.482608000">
        <ele>1587.4</ele>
        <time>2020-08-19T10:42:44Z</time>
      </trkpt>
      <trkpt lat="42.687518000" lon="-0.482723000">
        <ele>1586.6</ele>
        <time>2020-08-19T10:42:50Z</time>
      </trkpt>
      <trkpt lat="42.687580000" lon="-0.482802000">
        <ele>1585.9</ele>
        <time>2020-08-19T10:42:54Z</time>
      </trkpt>
      <trkpt lat="42.687593000" lon="-0.482915000">
        <ele>1585.5</ele>
        <time>2020-08-19T10:43:01Z</time>
      </trkpt>
      <trkpt lat="42.687588000" lon="-0.483031000">
        <ele>1585.0</ele>
        <time>2020-08-19T10:43:08Z</time>
      </trkpt>
      <trkpt lat="42.687593000" lon="-0.483142000">
        <ele>1584.8</ele>
        <time>2020-08-19T10:43:16Z</time>
      </trkpt>
      <trkpt lat="42.687613000" lon="-0.483252000">
        <ele>1584.6</ele>
        <time>2020-08-19T10:43:26Z</time>
      </trkpt>
      <trkpt lat="42.687654000" lon="-0.483359000">
        <ele>1584.5</ele>
        <time>2020-08-19T10:43:33Z</time>
      </trkpt>
      <trkpt lat="42.687669000" lon="-0.483475000">
        <ele>1583.8</ele>
        <time>2020-08-19T10:43:39Z</time>
      </trkpt>
      <trkpt lat="42.687670000" lon="-0.483597000">
        <ele>1583.2</ele>
        <time>2020-08-19T10:43:45Z</time>
      </trkpt>
      <trkpt lat="42.687684000" lon="-0.483717000">
        <ele>1582.4</ele>
        <time>2020-08-19T10:43:51Z</time>
      </trkpt>
      <trkpt lat="42.687683000" lon="-0.483834000">
        <ele>1581.4</ele>
        <time>2020-08-19T10:44:02Z</time>
      </trkpt>
      <trkpt lat="42.687688000" lon="-0.483948000">
        <ele>1580.1</ele>
        <time>2020-08-19T10:44:09Z</time>
      </trkpt>
      <trkpt lat="42.687678000" lon="-0.484068000">
        <ele>1578.6</ele>
        <time>2020-08-19T10:44:16Z</time>
      </trkpt>
      <trkpt lat="42.687682000" lon="-0.484181000">
        <ele>1577.1</ele>
        <time>2020-08-19T10:44:22Z</time>
      </trkpt>
      <trkpt lat="42.687660000" lon="-0.484298000">
        <ele>1575.5</ele>
        <time>2020-08-19T10:44:30Z</time>
      </trkpt>
      <trkpt lat="42.687624000" lon="-0.484399000">
        <ele>1573.9</ele>
        <time>2020-08-19T10:44:39Z</time>
      </trkpt>
      <trkpt lat="42.687612000" lon="-0.484522000">
        <ele>1572.2</ele>
        <time>2020-08-19T10:44:49Z</time>
      </trkpt>
      <trkpt lat="42.687617000" lon="-0.484641000">
        <ele>1570.6</ele>
        <time>2020-08-19T10:44:55Z</time>
      </trkpt>
      <trkpt lat="42.687612000" lon="-0.484769000">
        <ele>1569.3</ele>
        <time>2020-08-19T10:45:01Z</time>
      </trkpt>
      <trkpt lat="42.687602000" lon="-0.484898000">
        <ele>1567.9</ele>
        <time>2020-08-19T10:45:07Z</time>
      </trkpt>
      <trkpt lat="42.687586000" lon="-0.485009000">
        <ele>1566.5</ele>
        <time>2020-08-19T10:45:13Z</time>
      </trkpt>
      <trkpt lat="42.687576000" lon="-0.485123000">
        <ele>1565.3</ele>
        <time>2020-08-19T10:45:22Z</time>
      </trkpt>
      <trkpt lat="42.687597000" lon="-0.485242000">
        <ele>1564.2</ele>
        <time>2020-08-19T10:45:33Z</time>
      </trkpt>
      <trkpt lat="42.687617000" lon="-0.485356000">
        <ele>1563.1</ele>
        <time>2020-08-19T10:45:42Z</time>
      </trkpt>
      <trkpt lat="42.687620000" lon="-0.485478000">
        <ele>1562.1</ele>
        <time>2020-08-19T10:45:49Z</time>
      </trkpt>
      <trkpt lat="42.687595000" lon="-0.485583000">
        <ele>1561.1</ele>
        <time>2020-08-19T10:45:56Z</time>
      </trkpt>
      <trkpt lat="42.687559000" lon="-0.485695000">
        <ele>1560.3</ele>
        <time>2020-08-19T10:46:02Z</time>
      </trkpt>
      <trkpt lat="42.687548000" lon="-0.485806000">
        <ele>1559.6</ele>
        <time>2020-08-19T10:46:08Z</time>
      </trkpt>
      <trkpt lat="42.687529000" lon="-0.485925000">
        <ele>1559.1</ele>
        <time>2020-08-19T10:46:15Z</time>
      </trkpt>
      <trkpt lat="42.687516000" lon="-0.486043000">
        <ele>1558.5</ele>
        <time>2020-08-19T10:46:24Z</time>
      </trkpt>
      <trkpt lat="42.687504000" lon="-0.486158000">
        <ele>1558.0</ele>
        <time>2020-08-19T10:46:34Z</time>
      </trkpt>
      <trkpt lat="42.687500000" lon="-0.486275000">
        <ele>1557.7</ele>
        <time>2020-08-19T10:46:42Z</time>
      </trkpt>
      <trkpt lat="42.687491000" lon="-0.486401000">
        <ele>1557.5</ele>
        <time>2020-08-19T10:46:49Z</time>
      </trkpt>
      <trkpt lat="42.687521000" lon="-0.486516000">
        <ele>1557.1</ele>
        <time>2020-08-19T10:46:57Z</time>
      </trkpt>
      <trkpt lat="42.687532000" lon="-0.486630000">
        <ele>1556.8</ele>
        <time>2020-08-19T10:47:02Z</time>
      </trkpt>
      <trkpt lat="42.687535000" lon="-0.486741000">
        <ele>1556.7</ele>
        <time>2020-08-19T10:47:08Z</time>
      </trkpt>
      <trkpt lat="42.687564000" lon="-0.486852000">
        <ele>1556.9</ele>
        <time>2020-08-19T10:47:17Z</time>
      </trkpt>
      <trkpt lat="42.687558000" lon="-0.486965000">
        <ele>1557.1</ele>
        <time>2020-08-19T10:47:26Z</time>
      </trkpt>
      <trkpt lat="42.687566000" lon="-0.487085000">
        <ele>1557.2</ele>
        <time>2020-08-19T10:47:34Z</time>
      </trkpt>
      <trkpt lat="42.687591000" lon="-0.487193000">
        <ele>1557.1</ele>
        <time>2020-08-19T10:47:40Z</time>
      </trkpt>
      <trkpt lat="42.687637000" lon="-0.487308000">
        <ele>1556.8</ele>
        <time>2020-08-19T10:47:46Z</time>
      </trkpt>
      <trkpt lat="42.687681000" lon="-0.487414000">
        <ele>1556.5</ele>
        <time>2020-08-19T10:47:52Z</time>
      </trkpt>
      <trkpt lat="42.687716000" lon="-0.487526000">
        <ele>1556.1</ele>
        <time>2020-08-19T10:47:59Z</time>
      </trkpt>
      <trkpt lat="42.687747000" lon="-0.487633000">
        <ele>1555.6</ele>
        <time>2020-08-19T10:48:08Z</time>
      </trkpt>
      <trkpt lat="42.687782000" lon="-0.487744000">
        <ele>1555.2</ele>
        <time>2020-08-19T10:48:19Z</time>
      </trkpt>
      <trkpt lat="42.687813000" lon="-0.487853000">
        <ele>1554.5</ele>
        <time>2020-08-19T10:48:27Z</time>
      </trkpt>
      <trkpt lat="42.687855000" lon="-0.487953000">
        <ele>1553.6</ele>
        <time>2020-08-19T10:48:34Z</time>
      </trkpt>
      <trkpt lat="42.687876000" lon="-0.488064000">
        <ele>1552.2</ele>
        <time>2020-08-19T10:48:41Z</time>
      </trkpt>
      <trkpt lat="42.687904000" lon="-0.488173000">
        <ele>1550.5</ele>
        <time>2020-08-19T10:48:50Z</time>
      </trkpt>
      <trkpt lat="42.687943000" lon="-0.488289000">
        <ele>1548.6</ele>
        <time>2020-08-19T10:48:58Z</time>
      </trkpt>
      <trkpt lat="42.687967000" lon="-0.488395000">
        <ele>1546.7</ele>
        <time>2020-08-19T10:49:05Z</time>
      </trkpt>
      <trkpt lat="42.688006000" lon="-0.488498000">
        <ele>1544.7</ele>
        <time>2020-08-19T10:49:15Z</time>
      </trkpt>
      <trkpt lat="42.688002000" lon="-0.488611000">
        <ele>1542.7</ele>
        <time>2020-08-19T10:49:21Z</time>
      </trkpt>
      <trkpt lat="42.688022000" lon="-0.488723000">
        <ele>1541.0</ele>
        <time>2020-08-19T10:49:29Z</time>
      </trkpt>
      <trkpt lat="42.688049000" lon="-0.488841000">
        <ele>1539.4</ele>
        <time>2020-08-19T10:49:38Z</time>
      </trkpt>
      <trkpt lat="42.688093000" lon="-0.488953000">
        <ele>1537.9</ele>
        <time>2020-08-19T10:49:46Z</time>
      </trkpt>
      <trkpt lat="42.688108000" lon="-0.489065000">
        <ele>1536.7</ele>
        <time>2020-08-19T10:49:52Z</time>
      </trkpt>
      <trkpt lat="42.688156000" lon="-0.489163000">
        <ele>1535.8</ele>
        <time>2020-08-19T10:50:00Z</time>
      </trkpt>
      <trkpt lat="42.688218000" lon="-0.489247000">
        <ele>1535.2</ele>
        <time>2020-08-19T10:50:07Z</time>
      </trkpt>
      <trkpt lat="42.688246000" lon="-0.489359000">
        <ele>1534.8</ele>
        <time>2020-08-19T10:50:15Z</time>
      </trkpt>
      <trkpt lat="42.688294000" lon="-0.489448000">
        <ele>1534.5</ele>
        <time>2020-08-19T10:50:25Z</time>
      </trkpt>
      <trkpt lat="42.688347000" lon="-0.489547000">
        <ele>1534.2</ele>
        <time>2020-08-19T10:50:34Z</time>
      </trkpt>
      <trkpt lat="42.688407000" lon="-0.489624000">
        <ele>1533.9</ele>
        <time>2020-08-19T10:50:42Z</time>
      </trkpt>
      <trkpt lat="42.688434000" lon="-0.489738000">
        <ele>1533.5</ele>
        <time>2020-08-19T10:50:50Z</time>
      </trkpt>
      <trkpt lat="42.688482000" lon="-0.489828000">
        <ele>1533.0</ele>
        <time>2020-08-19T10:50:59Z</time>
      </trkpt>
      <trkpt lat="42.688517000" lon="-0.489942000">
        <ele>1532.3</ele>
        <time>2020-08-19T10:51:06Z</time>
      </trkpt>
      <trkpt lat="42.688524000" lon="-0.490066000">
        <ele>1531.4</ele>
        <time>2020-08-19T10:51:14Z</time>
      </trkpt>
      <trkpt lat="42.688509000" lon="-0.490186000">
        <ele>1530.2</ele>
        <time>2020-08-19T10:51:22Z</time>
      </trkpt>
      <trkpt lat="42.688493000" lon="-0.490300000">
        <ele>1528.7</ele>
        <time>2020-08-19T10:51:31Z</time>
      </trkpt>
      <trkpt lat="42.688492000" lon="-0.490412000">
        <ele>1527.4</ele>
        <time>2020-08-19T10:51:37Z</time>
      </trkpt>
      <trkpt lat="42.688466000" lon="-0.490521000">
        <ele>1526.1</ele>
        <time>2020-08-19T10:51:43Z</time>
      </trkpt>
      <trkpt lat="42.688437000" lon="-0.490626000">
        <ele>1525.0</ele>
        <time>2020-08-19T10:51:48Z</time>
      </trkpt>
      <trkpt lat="42.688407000" lon="-0.490739000">
        <ele>1524.1</ele>
        <time>2020-08-19T10:51:55Z</time>
      </trkpt>
      <trkpt lat="42.688407000" lon="-0.490852000">
        <ele>1523.4</ele>
        <time>2020-08-19T10:52:02Z</time>
      </trkpt>
      <trkpt lat="42.688432000" lon="-0.490970000">
        <ele>1522.6</ele>
        <time>2020-08-19T10:52:10Z</time>
      </trkpt>
      <trkpt lat="42.688492000" lon="-0.491066000">
        <ele>1521.9</ele>
        <time>2020-08-19T10:52:17Z</time>
      </trkpt>
      <trkpt lat="42.688555000" lon="-0.491143000">
        <ele>1520.7</ele>
        <time>2020-08-19T10:52:23Z</time>
      </trkpt>
      <trkpt lat="42.688626000" lon="-0.491216000">
        <ele>1519.6</ele>
        <time>2020-08-19T10:52:29Z</time>
      </trkpt>
      <trkpt lat="42.688685000" lon="-0.491295000">
        <ele>1519.1</ele>
        <time>2020-08-19T10:52:36Z</time>
      </trkpt>
      <trkpt lat="42.688729000" lon="-0.491393000">
        <ele>1518.3</ele>
        <time>2020-08-19T10:52:46Z</time>
      </trkpt>
      <trkpt lat="42.688789000" lon="-0.491473000">
        <ele>1517.5</ele>
        <time>2020-08-19T10:52:54Z</time>
      </trkpt>
      <trkpt lat="42.688743000" lon="-0.491570000">
        <ele>1516.5</ele>
        <time>2020-08-19T10:53:05Z</time>
      </trkpt>
      <trkpt lat="42.688667000" lon="-0.491525000">
        <ele>1515.3</ele>
        <time>2020-08-19T10:53:18Z</time>
      </trkpt>
      <trkpt lat="42.688629000" lon="-0.491427000">
        <ele>1514.1</ele>
        <time>2020-08-19T10:53:29Z</time>
      </trkpt>
      <trkpt lat="42.688514000" lon="-0.491399000">
        <ele>1512.7</ele>
        <time>2020-08-19T10:53:37Z</time>
      </trkpt>
      <trkpt lat="42.688454000" lon="-0.491323000">
        <ele>1511.5</ele>
        <time>2020-08-19T10:53:45Z</time>
      </trkpt>
      <trkpt lat="42.688391000" lon="-0.491241000">
        <ele>1510.5</ele>
        <time>2020-08-19T10:53:53Z</time>
      </trkpt>
      <trkpt lat="42.688309000" lon="-0.491177000">
        <ele>1510.2</ele>
        <time>2020-08-19T10:54:00Z</time>
      </trkpt>
      <trkpt lat="42.688228000" lon="-0.491106000">
        <ele>1510.2</ele>
        <time>2020-08-19T10:54:06Z</time>
      </trkpt>
      <trkpt lat="42.688163000" lon="-0.491036000">
        <ele>1509.9</ele>
        <time>2020-08-19T10:54:12Z</time>
      </trkpt>
      <trkpt lat="42.688113000" lon="-0.490935000">
        <ele>1510.2</ele>
        <time>2020-08-19T10:54:20Z</time>
      </trkpt>
      <trkpt lat="42.688141000" lon="-0.490825000">
        <ele>1510.5</ele>
        <time>2020-08-19T10:54:28Z</time>
      </trkpt>
      <trkpt lat="42.688116000" lon="-0.490711000">
        <ele>1510.9</ele>
        <time>2020-08-19T10:54:37Z</time>
      </trkpt>
      <trkpt lat="42.688130000" lon="-0.490595000">
        <ele>1511.3</ele>
        <time>2020-08-19T10:54:48Z</time>
      </trkpt>
      <trkpt lat="42.688130000" lon="-0.490468000">
        <ele>1511.5</ele>
        <time>2020-08-19T10:54:56Z</time>
      </trkpt>
      <trkpt lat="42.688131000" lon="-0.490355000">
        <ele>1511.9</ele>
        <time>2020-08-19T10:55:02Z</time>
      </trkpt>
      <trkpt lat="42.688142000" lon="-0.490238000">
        <ele>1512.4</ele>
        <time>2020-08-19T10:55:09Z</time>
      </trkpt>
      <trkpt lat="42.688098000" lon="-0.490124000">
        <ele>1512.5</ele>
        <time>2020-08-19T10:55:17Z</time>
      </trkpt>
      <trkpt lat="42.688069000" lon="-0.490004000">
        <ele>1512.8</ele>
        <time>2020-08-19T10:55:24Z</time>
      </trkpt>
      <trkpt lat="42.688010000" lon="-0.489910000">
        <ele>1512.8</ele>
        <time>2020-08-19T10:55:32Z</time>
      </trkpt>
      <trkpt lat="42.687969000" lon="-0.489805000">
        <ele>1512.7</ele>
        <time>2020-08-19T10:55:39Z</time>
      </trkpt>
      <trkpt lat="42.687921000" lon="-0.489695000">
        <ele>1512.4</ele>
        <time>2020-08-19T10:55:46Z</time>
      </trkpt>
      <trkpt lat="42.687866000" lon="-0.489593000">
        <ele>1511.6</ele>
        <time>2020-08-19T10:55:53Z</time>
      </trkpt>
      <trkpt lat="42.687829000" lon="-0.489490000">
        <ele>1510.5</ele>
        <time>2020-08-19T10:56:00Z</time>
      </trkpt>
      <trkpt lat="42.687767000" lon="-0.489407000">
        <ele>1509.1</ele>
        <time>2020-08-19T10:56:07Z</time>
      </trkpt>
      <trkpt lat="42.687708000" lon="-0.489327000">
        <ele>1507.7</ele>
        <time>2020-08-19T10:56:13Z</time>
      </trkpt>
      <trkpt lat="42.687653000" lon="-0.489231000">
        <ele>1506.5</ele>
        <time>2020-08-19T10:56:20Z</time>
      </trkpt>
      <trkpt lat="42.687570000" lon="-0.489184000">
        <ele>1505.3</ele>
        <time>2020-08-19T10:56:26Z</time>
      </trkpt>
      <trkpt lat="42.687485000" lon="-0.489233000">
        <ele>1504.3</ele>
        <time>2020-08-19T10:56:33Z</time>
      </trkpt>
      <trkpt lat="42.687459000" lon="-0.489348000">
        <ele>1503.2</ele>
        <time>2020-08-19T10:56:41Z</time>
      </trkpt>
      <trkpt lat="42.687496000" lon="-0.489448000">
        <ele>1502.2</ele>
        <time>2020-08-19T10:56:48Z</time>
      </trkpt>
      <trkpt lat="42.687538000" lon="-0.489555000">
        <ele>1501.1</ele>
        <time>2020-08-19T10:56:57Z</time>
      </trkpt>
      <trkpt lat="42.687592000" lon="-0.489644000">
        <ele>1500.0</ele>
        <time>2020-08-19T10:57:06Z</time>
      </trkpt>
      <trkpt lat="42.687649000" lon="-0.489729000">
        <ele>1499.2</ele>
        <time>2020-08-19T10:57:17Z</time>
      </trkpt>
      <trkpt lat="42.687674000" lon="-0.489847000">
        <ele>1498.7</ele>
        <time>2020-08-19T10:57:29Z</time>
      </trkpt>
      <trkpt lat="42.687689000" lon="-0.489966000">
        <ele>1498.4</ele>
        <time>2020-08-19T10:57:35Z</time>
      </trkpt>
      <trkpt lat="42.687688000" lon="-0.490084000">
        <ele>1497.8</ele>
        <time>2020-08-19T10:57:41Z</time>
      </trkpt>
      <trkpt lat="42.687696000" lon="-0.490210000">
        <ele>1497.0</ele>
        <time>2020-08-19T10:57:47Z</time>
      </trkpt>
      <trkpt lat="42.687711000" lon="-0.490330000">
        <ele>1495.8</ele>
        <time>2020-08-19T10:57:53Z</time>
      </trkpt>
      <trkpt lat="42.687702000" lon="-0.490444000">
        <ele>1494.4</ele>
        <time>2020-08-19T10:57:59Z</time>
      </trkpt>
      <trkpt lat="42.687659000" lon="-0.490557000">
        <ele>1492.6</ele>
        <time>2020-08-19T10:58:07Z</time>
      </trkpt>
      <trkpt lat="42.687587000" lon="-0.490617000">
        <ele>1490.7</ele>
        <time>2020-08-19T10:58:31Z</time>
      </trkpt>
      <trkpt lat="42.687529000" lon="-0.490694000">
        <ele>1488.7</ele>
        <time>2020-08-19T10:58:48Z</time>
      </trkpt>
      <trkpt lat="42.687463000" lon="-0.490769000">
        <ele>1486.5</ele>
        <time>2020-08-19T10:58:58Z</time>
      </trkpt>
      <trkpt lat="42.687418000" lon="-0.490862000">
        <ele>1483.9</ele>
        <time>2020-08-19T10:59:04Z</time>
      </trkpt>
      <trkpt lat="42.687373000" lon="-0.490956000">
        <ele>1481.2</ele>
        <time>2020-08-19T10:59:14Z</time>
      </trkpt>
      <trkpt lat="42.687349000" lon="-0.491064000">
        <ele>1478.4</ele>
        <time>2020-08-19T10:59:24Z</time>
      </trkpt>
      <trkpt lat="42.687269000" lon="-0.491100000">
        <ele>1475.5</ele>
        <time>2020-08-19T10:59:34Z</time>
      </trkpt>
      <trkpt lat="42.687187000" lon="-0.491148000">
        <ele>1472.5</ele>
        <time>2020-08-19T10:59:45Z</time>
      </trkpt>
      <trkpt lat="42.687099000" lon="-0.491178000">
        <ele>1469.5</ele>
        <time>2020-08-19T10:59:54Z</time>
      </trkpt>
      <trkpt lat="42.687009000" lon="-0.491199000">
        <ele>1466.8</ele>
        <time>2020-08-19T11:00:02Z</time>
      </trkpt>
      <trkpt lat="42.686947000" lon="-0.491281000">
        <ele>1464.5</ele>
        <time>2020-08-19T11:00:10Z</time>
      </trkpt>
      <trkpt lat="42.686877000" lon="-0.491355000">
        <ele>1462.3</ele>
        <time>2020-08-19T11:00:19Z</time>
      </trkpt>
      <trkpt lat="42.686874000" lon="-0.491471000">
        <ele>1460.4</ele>
        <time>2020-08-19T11:00:26Z</time>
      </trkpt>
      <trkpt lat="42.686840000" lon="-0.491575000">
        <ele>1458.7</ele>
        <time>2020-08-19T11:00:37Z</time>
      </trkpt>
      <trkpt lat="42.686801000" lon="-0.491477000">
        <ele>1457.3</ele>
        <time>2020-08-19T11:00:55Z</time>
      </trkpt>
      <trkpt lat="42.686770000" lon="-0.491375000">
        <ele>1456.1</ele>
        <time>2020-08-19T11:01:09Z</time>
      </trkpt>
      <trkpt lat="42.686750000" lon="-0.491266000">
        <ele>1455.1</ele>
        <time>2020-08-19T11:01:16Z</time>
      </trkpt>
      <trkpt lat="42.686732000" lon="-0.491151000">
        <ele>1454.2</ele>
        <time>2020-08-19T11:01:24Z</time>
      </trkpt>
      <trkpt lat="42.686699000" lon="-0.491036000">
        <ele>1453.3</ele>
        <time>2020-08-19T11:01:34Z</time>
      </trkpt>
      <trkpt lat="42.686654000" lon="-0.490934000">
        <ele>1452.5</ele>
        <time>2020-08-19T11:01:42Z</time>
      </trkpt>
      <trkpt lat="42.686644000" lon="-0.490820000">
        <ele>1451.3</ele>
        <time>2020-08-19T11:01:53Z</time>
      </trkpt>
      <trkpt lat="42.686605000" lon="-0.490721000">
        <ele>1450.0</ele>
        <time>2020-08-19T11:02:02Z</time>
      </trkpt>
      <trkpt lat="42.686555000" lon="-0.490626000">
        <ele>1448.6</ele>
        <time>2020-08-19T11:02:09Z</time>
      </trkpt>
      <trkpt lat="42.686485000" lon="-0.490557000">
        <ele>1447.1</ele>
        <time>2020-08-19T11:02:18Z</time>
      </trkpt>
      <trkpt lat="42.686420000" lon="-0.490484000">
        <ele>1445.3</ele>
        <time>2020-08-19T11:02:26Z</time>
      </trkpt>
      <trkpt lat="42.686371000" lon="-0.490382000">
        <ele>1443.3</ele>
        <time>2020-08-19T11:02:36Z</time>
      </trkpt>
      <trkpt lat="42.686367000" lon="-0.490262000">
        <ele>1441.0</ele>
        <time>2020-08-19T11:02:43Z</time>
      </trkpt>
      <trkpt lat="42.686338000" lon="-0.490148000">
        <ele>1438.6</ele>
        <time>2020-08-19T11:02:52Z</time>
      </trkpt>
      <trkpt lat="42.686297000" lon="-0.490044000">
        <ele>1436.5</ele>
        <time>2020-08-19T11:03:05Z</time>
      </trkpt>
      <trkpt lat="42.686234000" lon="-0.490119000">
        <ele>1434.3</ele>
        <time>2020-08-19T11:03:20Z</time>
      </trkpt>
      <trkpt lat="42.686189000" lon="-0.490214000">
        <ele>1432.2</ele>
        <time>2020-08-19T11:03:32Z</time>
      </trkpt>
      <trkpt lat="42.686132000" lon="-0.490313000">
        <ele>1430.1</ele>
        <time>2020-08-19T11:03:41Z</time>
      </trkpt>
      <trkpt lat="42.686089000" lon="-0.490410000">
        <ele>1427.6</ele>
        <time>2020-08-19T11:03:51Z</time>
      </trkpt>
      <trkpt lat="42.686066000" lon="-0.490517000">
        <ele>1425.1</ele>
        <time>2020-08-19T11:04:00Z</time>
      </trkpt>
      <trkpt lat="42.686027000" lon="-0.490621000">
        <ele>1422.5</ele>
        <time>2020-08-19T11:04:08Z</time>
      </trkpt>
      <trkpt lat="42.685987000" lon="-0.490723000">
        <ele>1420.2</ele>
        <time>2020-08-19T11:04:16Z</time>
      </trkpt>
      <trkpt lat="42.685943000" lon="-0.490816000">
        <ele>1417.9</ele>
        <time>2020-08-19T11:04:25Z</time>
      </trkpt>
      <trkpt lat="42.685878000" lon="-0.490898000">
        <ele>1415.9</ele>
        <time>2020-08-19T11:04:35Z</time>
      </trkpt>
      <trkpt lat="42.685865000" lon="-0.491015000">
        <ele>1414.0</ele>
        <time>2020-08-19T11:04:43Z</time>
      </trkpt>
      <trkpt lat="42.685848000" lon="-0.491144000">
        <ele>1412.1</ele>
        <time>2020-08-19T11:04:49Z</time>
      </trkpt>
      <trkpt lat="42.685799000" lon="-0.491235000">
        <ele>1410.4</ele>
        <time>2020-08-19T11:04:56Z</time>
      </trkpt>
      <trkpt lat="42.685760000" lon="-0.491336000">
        <ele>1408.7</ele>
        <time>2020-08-19T11:05:02Z</time>
      </trkpt>
      <trkpt lat="42.685749000" lon="-0.491461000">
        <ele>1407.3</ele>
        <time>2020-08-19T11:05:08Z</time>
      </trkpt>
      <trkpt lat="42.685708000" lon="-0.491558000">
        <ele>1406.0</ele>
        <time>2020-08-19T11:05:15Z</time>
      </trkpt>
      <trkpt lat="42.685693000" lon="-0.491667000">
        <ele>1404.6</ele>
        <time>2020-08-19T11:05:25Z</time>
      </trkpt>
      <trkpt lat="42.685668000" lon="-0.491783000">
        <ele>1403.2</ele>
        <time>2020-08-19T11:05:34Z</time>
      </trkpt>
      <trkpt lat="42.685627000" lon="-0.491881000">
        <ele>1401.7</ele>
        <time>2020-08-19T11:05:43Z</time>
      </trkpt>
      <trkpt lat="42.685610000" lon="-0.491994000">
        <ele>1400.2</ele>
        <time>2020-08-19T11:05:52Z</time>
      </trkpt>
      <trkpt lat="42.685546000" lon="-0.492078000">
        <ele>1398.5</ele>
        <time>2020-08-19T11:05:59Z</time>
      </trkpt>
      <trkpt lat="42.685490000" lon="-0.492171000">
        <ele>1396.5</ele>
        <time>2020-08-19T11:06:06Z</time>
      </trkpt>
      <trkpt lat="42.685456000" lon="-0.492275000">
        <ele>1394.5</ele>
        <time>2020-08-19T11:06:14Z</time>
      </trkpt>
      <trkpt lat="42.685413000" lon="-0.492369000">
        <ele>1392.2</ele>
        <time>2020-08-19T11:06:23Z</time>
      </trkpt>
      <trkpt lat="42.685361000" lon="-0.492475000">
        <ele>1389.7</ele>
        <time>2020-08-19T11:06:32Z</time>
      </trkpt>
      <trkpt lat="42.685316000" lon="-0.492569000">
        <ele>1387.1</ele>
        <time>2020-08-19T11:06:39Z</time>
      </trkpt>
      <trkpt lat="42.685239000" lon="-0.492625000">
        <ele>1384.5</ele>
        <time>2020-08-19T11:06:51Z</time>
      </trkpt>
      <trkpt lat="42.685157000" lon="-0.492650000">
        <ele>1382.0</ele>
        <time>2020-08-19T11:07:05Z</time>
      </trkpt>
      <trkpt lat="42.685074000" lon="-0.492649000">
        <ele>1379.5</ele>
        <time>2020-08-19T11:07:15Z</time>
      </trkpt>
      <trkpt lat="42.684987000" lon="-0.492659000">
        <ele>1377.2</ele>
        <time>2020-08-19T11:07:31Z</time>
      </trkpt>
      <trkpt lat="42.684899000" lon="-0.492670000">
        <ele>1374.9</ele>
        <time>2020-08-19T11:07:39Z</time>
      </trkpt>
      <trkpt lat="42.684818000" lon="-0.492685000">
        <ele>1372.6</ele>
        <time>2020-08-19T11:07:45Z</time>
      </trkpt>
      <trkpt lat="42.684762000" lon="-0.492770000">
        <ele>1370.5</ele>
        <time>2020-08-19T11:07:58Z</time>
      </trkpt>
      <trkpt lat="42.684680000" lon="-0.492800000">
        <ele>1368.4</ele>
        <time>2020-08-19T11:08:11Z</time>
      </trkpt>
      <trkpt lat="42.684589000" lon="-0.492808000">
        <ele>1366.4</ele>
        <time>2020-08-19T11:08:20Z</time>
      </trkpt>
      <trkpt lat="42.684512000" lon="-0.492866000">
        <ele>1364.5</ele>
        <time>2020-08-19T11:08:28Z</time>
      </trkpt>
      <trkpt lat="42.684437000" lon="-0.492913000">
        <ele>1362.7</ele>
        <time>2020-08-19T11:08:36Z</time>
      </trkpt>
      <trkpt lat="42.684357000" lon="-0.492964000">
        <ele>1361.0</ele>
        <time>2020-08-19T11:08:46Z</time>
      </trkpt>
      <trkpt lat="42.684282000" lon="-0.493013000">
        <ele>1359.2</ele>
        <time>2020-08-19T11:08:53Z</time>
      </trkpt>
      <trkpt lat="42.684214000" lon="-0.493075000">
        <ele>1357.4</ele>
        <time>2020-08-19T11:09:02Z</time>
      </trkpt>
      <trkpt lat="42.684131000" lon="-0.493112000">
        <ele>1355.4</ele>
        <time>2020-08-19T11:09:10Z</time>
      </trkpt>
      <trkpt lat="42.684084000" lon="-0.493203000">
        <ele>1353.5</ele>
        <time>2020-08-19T11:09:18Z</time>
      </trkpt>
      <trkpt lat="42.684024000" lon="-0.493292000">
        <ele>1351.8</ele>
        <time>2020-08-19T11:09:28Z</time>
      </trkpt>
      <trkpt lat="42.683965000" lon="-0.493374000">
        <ele>1350.2</ele>
        <time>2020-08-19T11:09:35Z</time>
      </trkpt>
      <trkpt lat="42.683928000" lon="-0.493490000">
        <ele>1348.6</ele>
        <time>2020-08-19T11:09:42Z</time>
      </trkpt>
      <trkpt lat="42.683895000" lon="-0.493605000">
        <ele>1347.3</ele>
        <time>2020-08-19T11:09:48Z</time>
      </trkpt>
      <trkpt lat="42.683902000" lon="-0.493726000">
        <ele>1346.1</ele>
        <time>2020-08-19T11:09:55Z</time>
      </trkpt>
      <trkpt lat="42.683914000" lon="-0.493847000">
        <ele>1344.7</ele>
        <time>2020-08-19T11:10:02Z</time>
      </trkpt>
      <trkpt lat="42.683898000" lon="-0.493965000">
        <ele>1343.5</ele>
        <time>2020-08-19T11:10:10Z</time>
      </trkpt>
      <trkpt lat="42.683889000" lon="-0.494087000">
        <ele>1342.5</ele>
        <time>2020-08-19T11:10:18Z</time>
      </trkpt>
      <trkpt lat="42.683887000" lon="-0.494210000">
        <ele>1341.6</ele>
        <time>2020-08-19T11:10:25Z</time>
      </trkpt>
      <trkpt lat="42.683915000" lon="-0.494316000">
        <ele>1340.8</ele>
        <time>2020-08-19T11:10:31Z</time>
      </trkpt>
      <trkpt lat="42.683896000" lon="-0.494427000">
        <ele>1339.9</ele>
        <time>2020-08-19T11:10:38Z</time>
      </trkpt>
      <trkpt lat="42.683898000" lon="-0.494546000">
        <ele>1339.1</ele>
        <time>2020-08-19T11:10:45Z</time>
      </trkpt>
      <trkpt lat="42.683872000" lon="-0.494654000">
        <ele>1338.2</ele>
        <time>2020-08-19T11:10:54Z</time>
      </trkpt>
      <trkpt lat="42.683845000" lon="-0.494769000">
        <ele>1337.3</ele>
        <time>2020-08-19T11:11:06Z</time>
      </trkpt>
      <trkpt lat="42.683784000" lon="-0.494845000">
        <ele>1336.3</ele>
        <time>2020-08-19T11:11:14Z</time>
      </trkpt>
      <trkpt lat="42.683747000" lon="-0.494952000">
        <ele>1335.2</ele>
        <time>2020-08-19T11:11:22Z</time>
      </trkpt>
      <trkpt lat="42.683709000" lon="-0.495062000">
        <ele>1334.4</ele>
        <time>2020-08-19T11:11:29Z</time>
      </trkpt>
      <trkpt lat="42.683658000" lon="-0.495166000">
        <ele>1333.4</ele>
        <time>2020-08-19T11:11:36Z</time>
      </trkpt>
      <trkpt lat="42.683610000" lon="-0.495265000">
        <ele>1332.2</ele>
        <time>2020-08-19T11:11:42Z</time>
      </trkpt>
      <trkpt lat="42.683542000" lon="-0.495332000">
        <ele>1330.8</ele>
        <time>2020-08-19T11:11:50Z</time>
      </trkpt>
      <trkpt lat="42.683493000" lon="-0.495440000">
        <ele>1329.5</ele>
        <time>2020-08-19T11:11:58Z</time>
      </trkpt>
      <trkpt lat="42.683450000" lon="-0.495552000">
        <ele>1328.1</ele>
        <time>2020-08-19T11:12:05Z</time>
      </trkpt>
      <trkpt lat="42.683400000" lon="-0.495658000">
        <ele>1326.7</ele>
        <time>2020-08-19T11:12:12Z</time>
      </trkpt>
      <trkpt lat="42.683342000" lon="-0.495756000">
        <ele>1325.4</ele>
        <time>2020-08-19T11:12:19Z</time>
      </trkpt>
      <trkpt lat="42.683277000" lon="-0.495845000">
        <ele>1324.0</ele>
        <time>2020-08-19T11:12:27Z</time>
      </trkpt>
      <trkpt lat="42.683225000" lon="-0.495947000">
        <ele>1322.5</ele>
        <time>2020-08-19T11:12:34Z</time>
      </trkpt>
      <trkpt lat="42.683203000" lon="-0.496062000">
        <ele>1321.0</ele>
        <time>2020-08-19T11:12:40Z</time>
      </trkpt>
      <trkpt lat="42.683190000" lon="-0.496194000">
        <ele>1319.3</ele>
        <time>2020-08-19T11:12:46Z</time>
      </trkpt>
      <trkpt lat="42.683163000" lon="-0.496302000">
        <ele>1317.6</ele>
        <time>2020-08-19T11:12:51Z</time>
      </trkpt>
      <trkpt lat="42.683118000" lon="-0.496403000">
        <ele>1316.0</ele>
        <time>2020-08-19T11:12:58Z</time>
      </trkpt>
      <trkpt lat="42.683079000" lon="-0.496505000">
        <ele>1314.5</ele>
        <time>2020-08-19T11:13:06Z</time>
      </trkpt>
      <trkpt lat="42.683035000" lon="-0.496614000">
        <ele>1313.0</ele>
        <time>2020-08-19T11:13:14Z</time>
      </trkpt>
      <trkpt lat="42.682985000" lon="-0.496709000">
        <ele>1311.5</ele>
        <time>2020-08-19T11:13:21Z</time>
      </trkpt>
      <trkpt lat="42.682942000" lon="-0.496812000">
        <ele>1309.9</ele>
        <time>2020-08-19T11:13:29Z</time>
      </trkpt>
      <trkpt lat="42.682915000" lon="-0.496929000">
        <ele>1308.5</ele>
        <time>2020-08-19T11:13:35Z</time>
      </trkpt>
      <trkpt lat="42.682873000" lon="-0.497041000">
        <ele>1306.9</ele>
        <time>2020-08-19T11:13:41Z</time>
      </trkpt>
      <trkpt lat="42.682808000" lon="-0.497126000">
        <ele>1305.4</ele>
        <time>2020-08-19T11:13:47Z</time>
      </trkpt>
      <trkpt lat="42.682775000" lon="-0.497240000">
        <ele>1303.9</ele>
        <time>2020-08-19T11:13:53Z</time>
      </trkpt>
      <trkpt lat="42.682761000" lon="-0.497357000">
        <ele>1302.5</ele>
        <time>2020-08-19T11:13:59Z</time>
      </trkpt>
      <trkpt lat="42.682723000" lon="-0.497470000">
        <ele>1300.9</ele>
        <time>2020-08-19T11:14:06Z</time>
      </trkpt>
      <trkpt lat="42.682673000" lon="-0.497569000">
        <ele>1299.5</ele>
        <time>2020-08-19T11:14:12Z</time>
      </trkpt>
      <trkpt lat="42.682616000" lon="-0.497668000">
        <ele>1298.0</ele>
        <time>2020-08-19T11:14:19Z</time>
      </trkpt>
      <trkpt lat="42.682586000" lon="-0.497776000">
        <ele>1296.7</ele>
        <time>2020-08-19T11:14:25Z</time>
      </trkpt>
      <trkpt lat="42.682534000" lon="-0.497865000">
        <ele>1295.5</ele>
        <time>2020-08-19T11:14:31Z</time>
      </trkpt>
      <trkpt lat="42.682468000" lon="-0.497953000">
        <ele>1294.0</ele>
        <time>2020-08-19T11:14:37Z</time>
      </trkpt>
      <trkpt lat="42.682402000" lon="-0.498037000">
        <ele>1292.5</ele>
        <time>2020-08-19T11:14:43Z</time>
      </trkpt>
      <trkpt lat="42.682350000" lon="-0.498140000">
        <ele>1290.9</ele>
        <time>2020-08-19T11:14:49Z</time>
      </trkpt>
      <trkpt lat="42.682315000" lon="-0.498253000">
        <ele>1289.4</ele>
        <time>2020-08-19T11:14:55Z</time>
      </trkpt>
      <trkpt lat="42.682328000" lon="-0.498367000">
        <ele>1287.6</ele>
        <time>2020-08-19T11:15:03Z</time>
      </trkpt>
      <trkpt lat="42.682283000" lon="-0.498464000">
        <ele>1286.0</ele>
        <time>2020-08-19T11:15:10Z</time>
      </trkpt>
      <trkpt lat="42.682243000" lon="-0.498579000">
        <ele>1284.4</ele>
        <time>2020-08-19T11:15:16Z</time>
      </trkpt>
      <trkpt lat="42.682234000" lon="-0.498706000">
        <ele>1282.6</ele>
        <time>2020-08-19T11:15:22Z</time>
      </trkpt>
      <trkpt lat="42.682214000" lon="-0.498825000">
        <ele>1280.9</ele>
        <time>2020-08-19T11:15:29Z</time>
      </trkpt>
      <trkpt lat="42.682174000" lon="-0.498932000">
        <ele>1279.2</ele>
        <time>2020-08-19T11:15:37Z</time>
      </trkpt>
      <trkpt lat="42.682170000" lon="-0.499054000">
        <ele>1277.5</ele>
        <time>2020-08-19T11:15:43Z</time>
      </trkpt>
      <trkpt lat="42.682158000" lon="-0.499165000">
        <ele>1275.7</ele>
        <time>2020-08-19T11:15:51Z</time>
      </trkpt>
      <trkpt lat="42.682101000" lon="-0.499262000">
        <ele>1274.0</ele>
        <time>2020-08-19T11:15:59Z</time>
      </trkpt>
      <trkpt lat="42.682054000" lon="-0.499368000">
        <ele>1272.5</ele>
        <time>2020-08-19T11:16:07Z</time>
      </trkpt>
      <trkpt lat="42.682039000" lon="-0.499498000">
        <ele>1271.0</ele>
        <time>2020-08-19T11:16:13Z</time>
      </trkpt>
      <trkpt lat="42.682029000" lon="-0.499621000">
        <ele>1269.7</ele>
        <time>2020-08-19T11:16:18Z</time>
      </trkpt>
      <trkpt lat="42.682003000" lon="-0.499731000">
        <ele>1268.5</ele>
        <time>2020-08-19T11:16:23Z</time>
      </trkpt>
      <trkpt lat="42.681975000" lon="-0.499850000">
        <ele>1267.2</ele>
        <time>2020-08-19T11:16:28Z</time>
      </trkpt>
      <trkpt lat="42.681980000" lon="-0.499969000">
        <ele>1265.9</ele>
        <time>2020-08-19T11:16:33Z</time>
      </trkpt>
      <trkpt lat="42.682006000" lon="-0.500075000">
        <ele>1264.6</ele>
        <time>2020-08-19T11:16:40Z</time>
      </trkpt>
      <trkpt lat="42.682012000" lon="-0.500198000">
        <ele>1263.4</ele>
        <time>2020-08-19T11:16:47Z</time>
      </trkpt>
      <trkpt lat="42.682024000" lon="-0.500320000">
        <ele>1262.0</ele>
        <time>2020-08-19T11:16:53Z</time>
      </trkpt>
      <trkpt lat="42.682018000" lon="-0.500430000">
        <ele>1260.7</ele>
        <time>2020-08-19T11:17:00Z</time>
      </trkpt>
      <trkpt lat="42.682019000" lon="-0.500563000">
        <ele>1259.6</ele>
        <time>2020-08-19T11:17:07Z</time>
      </trkpt>
      <trkpt lat="42.682044000" lon="-0.500680000">
        <ele>1258.5</ele>
        <time>2020-08-19T11:17:12Z</time>
      </trkpt>
      <trkpt lat="42.682054000" lon="-0.500798000">
        <ele>1257.3</ele>
        <time>2020-08-19T11:17:19Z</time>
      </trkpt>
      <trkpt lat="42.682058000" lon="-0.500922000">
        <ele>1256.0</ele>
        <time>2020-08-19T11:17:26Z</time>
      </trkpt>
      <trkpt lat="42.682071000" lon="-0.501037000">
        <ele>1255.0</ele>
        <time>2020-08-19T11:17:32Z</time>
      </trkpt>
      <trkpt lat="42.682101000" lon="-0.501149000">
        <ele>1254.3</ele>
        <time>2020-08-19T11:17:38Z</time>
      </trkpt>
      <trkpt lat="42.682103000" lon="-0.501262000">
        <ele>1253.8</ele>
        <time>2020-08-19T11:17:43Z</time>
      </trkpt>
      <trkpt lat="42.682021000" lon="-0.501305000">
        <ele>1253.4</ele>
        <time>2020-08-19T11:17:53Z</time>
      </trkpt>
      <trkpt lat="42.681959000" lon="-0.501226000">
        <ele>1253.0</ele>
        <time>2020-08-19T11:18:01Z</time>
      </trkpt>
      <trkpt lat="42.682020000" lon="-0.501131000">
        <ele>1252.7</ele>
        <time>2020-08-19T11:18:20Z</time>
      </trkpt>
      <trkpt lat="42.682026000" lon="-0.501009000">
        <ele>1252.5</ele>
        <time>2020-08-19T11:18:27Z</time>
      </trkpt>
      <trkpt lat="42.682010000" lon="-0.500895000">
        <ele>1252.3</ele>
        <time>2020-08-19T11:18:34Z</time>
      </trkpt>
      <trkpt lat="42.681939000" lon="-0.500828000">
        <ele>1252.2</ele>
        <time>2020-08-19T11:18:59Z</time>
      </trkpt>
      <trkpt lat="42.681867000" lon="-0.500770000">
        <ele>1252.5</ele>
        <time>2020-08-19T11:19:08Z</time>
      </trkpt>
      <trkpt lat="42.681783000" lon="-0.500725000">
        <ele>1253.0</ele>
        <time>2020-08-19T11:19:16Z</time>
      </trkpt>
      <trkpt lat="42.681700000" lon="-0.500693000">
        <ele>1253.5</ele>
        <time>2020-08-19T11:19:23Z</time>
      </trkpt>
      <trkpt lat="42.681623000" lon="-0.500637000">
        <ele>1253.8</ele>
        <time>2020-08-19T11:19:30Z</time>
      </trkpt>
      <trkpt lat="42.681547000" lon="-0.500591000">
        <ele>1254.1</ele>
        <time>2020-08-19T11:19:37Z</time>
      </trkpt>
      <trkpt lat="42.681463000" lon="-0.500542000">
        <ele>1254.4</ele>
        <time>2020-08-19T11:19:45Z</time>
      </trkpt>
      <trkpt lat="42.681378000" lon="-0.500510000">
        <ele>1254.7</ele>
        <time>2020-08-19T11:19:53Z</time>
      </trkpt>
      <trkpt lat="42.681314000" lon="-0.500597000">
        <ele>1255.2</ele>
        <time>2020-08-19T11:20:01Z</time>
      </trkpt>
      <trkpt lat="42.681286000" lon="-0.500702000">
        <ele>1255.6</ele>
        <time>2020-08-19T11:20:07Z</time>
      </trkpt>
      <trkpt lat="42.681282000" lon="-0.500819000">
        <ele>1255.7</ele>
        <time>2020-08-19T11:20:16Z</time>
      </trkpt>
      <trkpt lat="42.681260000" lon="-0.500934000">
        <ele>1255.5</ele>
        <time>2020-08-19T11:20:24Z</time>
      </trkpt>
      <trkpt lat="42.681220000" lon="-0.501031000">
        <ele>1255.1</ele>
        <time>2020-08-19T11:20:33Z</time>
      </trkpt>
      <trkpt lat="42.681164000" lon="-0.501125000">
        <ele>1254.3</ele>
        <time>2020-08-19T11:20:41Z</time>
      </trkpt>
      <trkpt lat="42.681158000" lon="-0.501236000">
        <ele>1253.4</ele>
        <time>2020-08-19T11:20:52Z</time>
      </trkpt>
      <trkpt lat="42.681177000" lon="-0.501343000">
        <ele>1252.5</ele>
        <time>2020-08-19T11:21:01Z</time>
      </trkpt>
      <trkpt lat="42.681204000" lon="-0.501453000">
        <ele>1251.5</ele>
        <time>2020-08-19T11:21:08Z</time>
      </trkpt>
      <trkpt lat="42.681243000" lon="-0.501552000">
        <ele>1250.8</ele>
        <time>2020-08-19T11:21:15Z</time>
      </trkpt>
      <trkpt lat="42.681285000" lon="-0.501662000">
        <ele>1250.1</ele>
        <time>2020-08-19T11:21:23Z</time>
      </trkpt>
      <trkpt lat="42.681279000" lon="-0.501782000">
        <ele>1249.4</ele>
        <time>2020-08-19T11:21:30Z</time>
      </trkpt>
      <trkpt lat="42.681240000" lon="-0.501881000">
        <ele>1248.7</ele>
        <time>2020-08-19T11:21:39Z</time>
      </trkpt>
      <trkpt lat="42.681213000" lon="-0.501999000">
        <ele>1248.4</ele>
        <time>2020-08-19T11:21:47Z</time>
      </trkpt>
      <trkpt lat="42.681165000" lon="-0.502088000">
        <ele>1248.1</ele>
        <time>2020-08-19T11:21:54Z</time>
      </trkpt>
      <trkpt lat="42.681127000" lon="-0.502186000">
        <ele>1248.0</ele>
        <time>2020-08-19T11:22:00Z</time>
      </trkpt>
      <trkpt lat="42.681118000" lon="-0.502304000">
        <ele>1247.9</ele>
        <time>2020-08-19T11:22:08Z</time>
      </trkpt>
      <trkpt lat="42.681106000" lon="-0.502425000">
        <ele>1247.7</ele>
        <time>2020-08-19T11:22:17Z</time>
      </trkpt>
      <trkpt lat="42.681122000" lon="-0.502533000">
        <ele>1247.5</ele>
        <time>2020-08-19T11:22:26Z</time>
      </trkpt>
      <trkpt lat="42.681113000" lon="-0.502658000">
        <ele>1247.2</ele>
        <time>2020-08-19T11:22:34Z</time>
      </trkpt>
      <trkpt lat="42.681109000" lon="-0.502787000">
        <ele>1246.7</ele>
        <time>2020-08-19T11:22:40Z</time>
      </trkpt>
      <trkpt lat="42.681151000" lon="-0.502888000">
        <ele>1246.0</ele>
        <time>2020-08-19T11:22:46Z</time>
      </trkpt>
      <trkpt lat="42.681148000" lon="-0.503001000">
        <ele>1245.4</ele>
        <time>2020-08-19T11:22:52Z</time>
      </trkpt>
      <trkpt lat="42.681149000" lon="-0.503112000">
        <ele>1244.5</ele>
        <time>2020-08-19T11:22:58Z</time>
      </trkpt>
      <trkpt lat="42.681188000" lon="-0.503226000">
        <ele>1243.6</ele>
        <time>2020-08-19T11:23:05Z</time>
      </trkpt>
      <trkpt lat="42.681188000" lon="-0.503342000">
        <ele>1242.7</ele>
        <time>2020-08-19T11:23:12Z</time>
      </trkpt>
      <trkpt lat="42.681212000" lon="-0.503462000">
        <ele>1241.7</ele>
        <time>2020-08-19T11:23:19Z</time>
      </trkpt>
      <trkpt lat="42.681201000" lon="-0.503577000">
        <ele>1241.0</ele>
        <time>2020-08-19T11:23:25Z</time>
      </trkpt>
      <trkpt lat="42.681221000" lon="-0.503698000">
        <ele>1240.4</ele>
        <time>2020-08-19T11:23:32Z</time>
      </trkpt>
      <trkpt lat="42.681234000" lon="-0.503811000">
        <ele>1239.8</ele>
        <time>2020-08-19T11:23:38Z</time>
      </trkpt>
      <trkpt lat="42.681247000" lon="-0.503938000">
        <ele>1239.5</ele>
        <time>2020-08-19T11:23:44Z</time>
      </trkpt>
      <trkpt lat="42.681227000" lon="-0.504054000">
        <ele>1239.0</ele>
        <time>2020-08-19T11:23:51Z</time>
      </trkpt>
      <trkpt lat="42.681190000" lon="-0.504155000">
        <ele>1238.6</ele>
        <time>2020-08-19T11:24:00Z</time>
      </trkpt>
      <trkpt lat="42.681157000" lon="-0.504264000">
        <ele>1238.1</ele>
        <time>2020-08-19T11:24:08Z</time>
      </trkpt>
      <trkpt lat="42.681122000" lon="-0.504379000">
        <ele>1237.9</ele>
        <time>2020-08-19T11:24:16Z</time>
      </trkpt>
      <trkpt lat="42.681095000" lon="-0.504498000">
        <ele>1237.8</ele>
        <time>2020-08-19T11:24:23Z</time>
      </trkpt>
      <trkpt lat="42.681118000" lon="-0.504612000">
        <ele>1237.9</ele>
        <time>2020-08-19T11:24:31Z</time>
      </trkpt>
      <trkpt lat="42.681131000" lon="-0.504731000">
        <ele>1238.2</ele>
        <time>2020-08-19T11:24:39Z</time>
      </trkpt>
      <trkpt lat="42.681129000" lon="-0.504847000">
        <ele>1238.3</ele>
        <time>2020-08-19T11:24:49Z</time>
      </trkpt>
      <trkpt lat="42.681059000" lon="-0.504926000">
        <ele>1238.1</ele>
        <time>2020-08-19T11:24:56Z</time>
      </trkpt>
      <trkpt lat="42.681010000" lon="-0.505038000">
        <ele>1237.5</ele>
        <time>2020-08-19T11:25:02Z</time>
      </trkpt>
      <trkpt lat="42.680948000" lon="-0.505130000">
        <ele>1237.0</ele>
        <time>2020-08-19T11:25:07Z</time>
      </trkpt>
      <trkpt lat="42.680889000" lon="-0.505223000">
        <ele>1236.6</ele>
        <time>2020-08-19T11:25:13Z</time>
      </trkpt>
      <trkpt lat="42.680877000" lon="-0.505343000">
        <ele>1236.5</ele>
        <time>2020-08-19T11:25:19Z</time>
      </trkpt>
      <trkpt lat="42.680909000" lon="-0.505455000">
        <ele>1236.7</ele>
        <time>2020-08-19T11:25:26Z</time>
      </trkpt>
      <trkpt lat="42.680934000" lon="-0.505572000">
        <ele>1236.8</ele>
        <time>2020-08-19T11:25:33Z</time>
      </trkpt>
      <trkpt lat="42.680916000" lon="-0.505687000">
        <ele>1237.2</ele>
        <time>2020-08-19T11:25:40Z</time>
      </trkpt>
      <trkpt lat="42.680884000" lon="-0.505791000">
        <ele>1237.5</ele>
        <time>2020-08-19T11:25:53Z</time>
      </trkpt>
      <trkpt lat="42.680831000" lon="-0.505883000">
        <ele>1237.9</ele>
        <time>2020-08-19T11:26:37Z</time>
      </trkpt>
      <trkpt lat="42.680768000" lon="-0.505957000">
        <ele>1238.5</ele>
        <time>2020-08-19T11:28:07Z</time>
      </trkpt>
      <trkpt lat="42.680750000" lon="-0.506067000">
        <ele>1239.4</ele>
        <time>2020-08-19T11:28:18Z</time>
      </trkpt>
      <trkpt lat="42.680697000" lon="-0.506164000">
        <ele>1240.5</ele>
        <time>2020-08-19T11:28:26Z</time>
      </trkpt>
      <trkpt lat="42.680665000" lon="-0.506268000">
        <ele>1241.6</ele>
        <time>2020-08-19T11:28:34Z</time>
      </trkpt>
      <trkpt lat="42.680635000" lon="-0.506382000">
        <ele>1242.4</ele>
        <time>2020-08-19T11:28:42Z</time>
      </trkpt>
      <trkpt lat="42.680617000" lon="-0.506492000">
        <ele>1242.7</ele>
        <time>2020-08-19T11:28:48Z</time>
      </trkpt>
      <trkpt lat="42.680606000" lon="-0.506616000">
        <ele>1242.9</ele>
        <time>2020-08-19T11:28:55Z</time>
      </trkpt>
      <trkpt lat="42.680613000" lon="-0.506735000">
        <ele>1243.0</ele>
        <time>2020-08-19T11:29:01Z</time>
      </trkpt>
      <trkpt lat="42.680630000" lon="-0.506855000">
        <ele>1242.7</ele>
        <time>2020-08-19T11:29:07Z</time>
      </trkpt>
      <trkpt lat="42.680688000" lon="-0.506939000">
        <ele>1242.0</ele>
        <time>2020-08-19T11:29:15Z</time>
      </trkpt>
      <trkpt lat="42.680720000" lon="-0.507056000">
        <ele>1240.9</ele>
        <time>2020-08-19T11:29:24Z</time>
      </trkpt>
      <trkpt lat="42.680709000" lon="-0.507171000">
        <ele>1239.8</ele>
        <time>2020-08-19T11:29:33Z</time>
      </trkpt>
      <trkpt lat="42.680675000" lon="-0.507286000">
        <ele>1238.8</ele>
        <time>2020-08-19T11:29:40Z</time>
      </trkpt>
      <trkpt lat="42.680698000" lon="-0.507411000">
        <ele>1237.8</ele>
        <time>2020-08-19T11:29:44Z</time>
      </trkpt>
      <trkpt lat="42.680781000" lon="-0.507383000">
        <ele>1236.9</ele>
        <time>2020-08-19T11:29:52Z</time>
      </trkpt>
      <trkpt lat="42.680838000" lon="-0.507485000">
        <ele>1236.5</ele>
        <time>2020-08-19T11:29:59Z</time>
      </trkpt>
      <trkpt lat="42.680803000" lon="-0.507619000">
        <ele>1236.2</ele>
        <time>2020-08-19T11:30:02Z</time>
      </trkpt>
      <trkpt lat="42.680779000" lon="-0.507728000">
        <ele>1235.8</ele>
        <time>2020-08-19T11:30:05Z</time>
      </trkpt>
      <trkpt lat="42.680796000" lon="-0.507853000">
        <ele>1235.5</ele>
        <time>2020-08-19T11:30:09Z</time>
      </trkpt>
      <trkpt lat="42.680810000" lon="-0.507968000">
        <ele>1234.9</ele>
        <time>2020-08-19T11:30:13Z</time>
      </trkpt>
      <trkpt lat="42.680792000" lon="-0.508078000">
        <ele>1234.4</ele>
        <time>2020-08-19T11:30:18Z</time>
      </trkpt>
      <trkpt lat="42.680805000" lon="-0.508204000">
        <ele>1233.9</ele>
        <time>2020-08-19T11:30:23Z</time>
      </trkpt>
      <trkpt lat="42.680812000" lon="-0.508330000">
        <ele>1233.3</ele>
        <time>2020-08-19T11:30:29Z</time>
      </trkpt>
      <trkpt lat="42.680819000" lon="-0.508443000">
        <ele>1232.5</ele>
        <time>2020-08-19T11:30:34Z</time>
      </trkpt>
      <trkpt lat="42.680871000" lon="-0.508538000">
        <ele>1231.6</ele>
        <time>2020-08-19T11:30:43Z</time>
      </trkpt>
      <trkpt lat="42.680938000" lon="-0.508635000">
        <ele>1230.6</ele>
        <time>2020-08-19T11:30:51Z</time>
      </trkpt>
      <trkpt lat="42.680970000" lon="-0.508755000">
        <ele>1229.7</ele>
        <time>2020-08-19T11:30:57Z</time>
      </trkpt>
      <trkpt lat="42.680990000" lon="-0.508863000">
        <ele>1229.1</ele>
        <time>2020-08-19T11:31:04Z</time>
      </trkpt>
      <trkpt lat="42.680999000" lon="-0.508990000">
        <ele>1228.6</ele>
        <time>2020-08-19T11:31:10Z</time>
      </trkpt>
      <trkpt lat="42.681048000" lon="-0.509086000">
        <ele>1228.1</ele>
        <time>2020-08-19T11:31:15Z</time>
      </trkpt>
      <trkpt lat="42.681082000" lon="-0.509202000">
        <ele>1227.9</ele>
        <time>2020-08-19T11:31:22Z</time>
      </trkpt>
      <trkpt lat="42.681058000" lon="-0.509314000">
        <ele>1227.9</ele>
        <time>2020-08-19T11:31:29Z</time>
      </trkpt>
      <trkpt lat="42.681016000" lon="-0.509410000">
        <ele>1228.0</ele>
        <time>2020-08-19T11:31:35Z</time>
      </trkpt>
      <trkpt lat="42.681004000" lon="-0.509521000">
        <ele>1228.2</ele>
        <time>2020-08-19T11:31:41Z</time>
      </trkpt>
      <trkpt lat="42.681033000" lon="-0.509644000">
        <ele>1228.3</ele>
        <time>2020-08-19T11:31:46Z</time>
      </trkpt>
      <trkpt lat="42.681030000" lon="-0.509765000">
        <ele>1228.4</ele>
        <time>2020-08-19T11:31:52Z</time>
      </trkpt>
      <trkpt lat="42.681080000" lon="-0.509862000">
        <ele>1228.5</ele>
        <time>2020-08-19T11:31:59Z</time>
      </trkpt>
      <trkpt lat="42.681116000" lon="-0.509966000">
        <ele>1228.3</ele>
        <time>2020-08-19T11:32:06Z</time>
      </trkpt>
      <trkpt lat="42.681160000" lon="-0.510071000">
        <ele>1227.8</ele>
        <time>2020-08-19T11:32:14Z</time>
      </trkpt>
      <trkpt lat="42.681180000" lon="-0.510191000">
        <ele>1227.4</ele>
        <time>2020-08-19T11:32:22Z</time>
      </trkpt>
      <trkpt lat="42.681256000" lon="-0.510254000">
        <ele>1226.8</ele>
        <time>2020-08-19T11:32:26Z</time>
      </trkpt>
      <trkpt lat="42.681323000" lon="-0.510335000">
        <ele>1226.1</ele>
        <time>2020-08-19T11:32:31Z</time>
      </trkpt>
      <trkpt lat="42.681337000" lon="-0.510452000">
        <ele>1225.3</ele>
        <time>2020-08-19T11:32:38Z</time>
      </trkpt>
      <trkpt lat="42.681369000" lon="-0.510553000">
        <ele>1224.4</ele>
        <time>2020-08-19T11:32:46Z</time>
      </trkpt>
      <trkpt lat="42.681354000" lon="-0.510667000">
        <ele>1223.7</ele>
        <time>2020-08-19T11:32:52Z</time>
      </trkpt>
      <trkpt lat="42.681410000" lon="-0.510765000">
        <ele>1223.1</ele>
        <time>2020-08-19T11:32:59Z</time>
      </trkpt>
      <trkpt lat="42.681459000" lon="-0.510858000">
        <ele>1222.4</ele>
        <time>2020-08-19T11:33:05Z</time>
      </trkpt>
      <trkpt lat="42.681519000" lon="-0.510956000">
        <ele>1221.4</ele>
        <time>2020-08-19T11:33:11Z</time>
      </trkpt>
      <trkpt lat="42.681567000" lon="-0.511050000">
        <ele>1220.0</ele>
        <time>2020-08-19T11:33:17Z</time>
      </trkpt>
      <trkpt lat="42.681539000" lon="-0.511156000">
        <ele>1218.4</ele>
        <time>2020-08-19T11:33:29Z</time>
      </trkpt>
      <trkpt lat="42.681553000" lon="-0.511279000">
        <ele>1216.7</ele>
        <time>2020-08-19T11:33:37Z</time>
      </trkpt>
      <trkpt lat="42.681604000" lon="-0.511383000">
        <ele>1215.6</ele>
        <time>2020-08-19T11:33:42Z</time>
      </trkpt>
      <trkpt lat="42.681680000" lon="-0.511452000">
        <ele>1214.7</ele>
        <time>2020-08-19T11:33:48Z</time>
      </trkpt>
      <trkpt lat="42.681762000" lon="-0.511437000">
        <ele>1214.3</ele>
        <time>2020-08-19T11:33:57Z</time>
      </trkpt>
      <trkpt lat="42.681826000" lon="-0.511530000">
        <ele>1213.8</ele>
        <time>2020-08-19T11:34:04Z</time>
      </trkpt>
      <trkpt lat="42.681828000" lon="-0.511651000">
        <ele>1213.0</ele>
        <time>2020-08-19T11:34:07Z</time>
      </trkpt>
      <trkpt lat="42.681801000" lon="-0.511775000">
        <ele>1211.9</ele>
        <time>2020-08-19T11:34:12Z</time>
      </trkpt>
      <trkpt lat="42.681823000" lon="-0.511883000">
        <ele>1210.9</ele>
        <time>2020-08-19T11:34:17Z</time>
      </trkpt>
      <trkpt lat="42.681832000" lon="-0.512020000">
        <ele>1210.4</ele>
        <time>2020-08-19T11:34:31Z</time>
      </trkpt>
      <trkpt lat="42.681884000" lon="-0.512111000">
        <ele>1210.5</ele>
        <time>2020-08-19T11:34:35Z</time>
      </trkpt>
      <trkpt lat="42.681914000" lon="-0.512217000">
        <ele>1211.1</ele>
        <time>2020-08-19T11:34:39Z</time>
      </trkpt>
      <trkpt lat="42.681971000" lon="-0.512307000">
        <ele>1211.5</ele>
        <time>2020-08-19T11:34:44Z</time>
      </trkpt>
      <trkpt lat="42.681999000" lon="-0.512416000">
        <ele>1211.3</ele>
        <time>2020-08-19T11:34:51Z</time>
      </trkpt>
      <trkpt lat="42.682006000" lon="-0.512529000">
        <ele>1210.6</ele>
        <time>2020-08-19T11:34:56Z</time>
      </trkpt>
      <trkpt lat="42.681985000" lon="-0.512653000">
        <ele>1209.6</ele>
        <time>2020-08-19T11:35:02Z</time>
      </trkpt>
      <trkpt lat="42.681985000" lon="-0.512772000">
        <ele>1208.7</ele>
        <time>2020-08-19T11:35:08Z</time>
      </trkpt>
      <trkpt lat="42.682009000" lon="-0.512882000">
        <ele>1207.8</ele>
        <time>2020-08-19T11:35:13Z</time>
      </trkpt>
      <trkpt lat="42.682045000" lon="-0.513004000">
        <ele>1207.4</ele>
        <time>2020-08-19T11:35:18Z</time>
      </trkpt>
      <trkpt lat="42.682110000" lon="-0.513089000">
        <ele>1207.3</ele>
        <time>2020-08-19T11:35:24Z</time>
      </trkpt>
      <trkpt lat="42.682146000" lon="-0.513197000">
        <ele>1207.2</ele>
        <time>2020-08-19T11:35:32Z</time>
      </trkpt>
      <trkpt lat="42.682181000" lon="-0.513320000">
        <ele>1206.8</ele>
        <time>2020-08-19T11:35:37Z</time>
      </trkpt>
      <trkpt lat="42.682216000" lon="-0.513420000">
        <ele>1205.8</ele>
        <time>2020-08-19T11:35:44Z</time>
      </trkpt>
      <trkpt lat="42.682205000" lon="-0.513538000">
        <ele>1204.2</ele>
        <time>2020-08-19T11:35:52Z</time>
      </trkpt>
      <trkpt lat="42.682198000" lon="-0.513658000">
        <ele>1202.6</ele>
        <time>2020-08-19T11:35:59Z</time>
      </trkpt>
      <trkpt lat="42.682184000" lon="-0.513774000">
        <ele>1200.9</ele>
        <time>2020-08-19T11:36:05Z</time>
      </trkpt>
      <trkpt lat="42.682172000" lon="-0.513892000">
        <ele>1199.6</ele>
        <time>2020-08-19T11:36:16Z</time>
      </trkpt>
      <trkpt lat="42.682235000" lon="-0.513973000">
        <ele>1198.7</ele>
        <time>2020-08-19T11:36:23Z</time>
      </trkpt>
      <trkpt lat="42.682298000" lon="-0.514086000">
        <ele>1197.9</ele>
        <time>2020-08-19T11:36:29Z</time>
      </trkpt>
      <trkpt lat="42.682280000" lon="-0.514196000">
        <ele>1196.8</ele>
        <time>2020-08-19T11:36:42Z</time>
      </trkpt>
      <trkpt lat="42.682320000" lon="-0.514301000">
        <ele>1195.7</ele>
        <time>2020-08-19T11:36:52Z</time>
      </trkpt>
      <trkpt lat="42.682265000" lon="-0.514385000">
        <ele>1195.0</ele>
        <time>2020-08-19T11:37:01Z</time>
      </trkpt>
      <trkpt lat="42.682209000" lon="-0.514480000">
        <ele>1193.5</ele>
        <time>2020-08-19T11:37:08Z</time>
      </trkpt>
      <trkpt lat="42.682171000" lon="-0.514586000">
        <ele>1192.0</ele>
        <time>2020-08-19T11:37:16Z</time>
      </trkpt>
      <trkpt lat="42.682155000" lon="-0.514698000">
        <ele>1190.5</ele>
        <time>2020-08-19T11:37:20Z</time>
      </trkpt>
      <trkpt lat="42.682096000" lon="-0.514779000">
        <ele>1188.6</ele>
        <time>2020-08-19T11:37:29Z</time>
      </trkpt>
      <trkpt lat="42.682012000" lon="-0.514827000">
        <ele>1186.7</ele>
        <time>2020-08-19T11:37:38Z</time>
      </trkpt>
      <trkpt lat="42.682070000" lon="-0.514909000">
        <ele>1185.5</ele>
        <time>2020-08-19T11:37:48Z</time>
      </trkpt>
      <trkpt lat="42.682151000" lon="-0.514910000">
        <ele>1184.1</ele>
        <time>2020-08-19T11:37:55Z</time>
      </trkpt>
      <trkpt lat="42.682236000" lon="-0.514947000">
        <ele>1182.7</ele>
        <time>2020-08-19T11:38:05Z</time>
      </trkpt>
      <trkpt lat="42.682322000" lon="-0.514964000">
        <ele>1181.5</ele>
        <time>2020-08-19T11:38:15Z</time>
      </trkpt>
      <trkpt lat="42.682375000" lon="-0.515055000">
        <ele>1180.1</ele>
        <time>2020-08-19T11:38:25Z</time>
      </trkpt>
      <trkpt lat="42.682010000" lon="-0.515521000">
        <ele>1178.5</ele>
        <time>2020-08-19T11:38:34Z</time>
      </trkpt>
      <trkpt lat="42.681954000" lon="-0.515625000">
        <ele>1177.7</ele>
        <time>2020-08-19T11:38:37Z</time>
      </trkpt>
      <trkpt lat="42.681909000" lon="-0.515720000">
        <ele>1177.5</ele>
        <time>2020-08-19T11:38:40Z</time>
      </trkpt>
      <trkpt lat="42.681856000" lon="-0.515834000">
        <ele>1177.9</ele>
        <time>2020-08-19T11:38:43Z</time>
      </trkpt>
      <trkpt lat="42.681794000" lon="-0.515918000">
        <ele>1178.8</ele>
        <time>2020-08-19T11:38:46Z</time>
      </trkpt>
      <trkpt lat="42.681713000" lon="-0.515996000">
        <ele>1180.5</ele>
        <time>2020-08-19T11:38:49Z</time>
      </trkpt>
      <trkpt lat="42.681655000" lon="-0.516075000">
        <ele>1181.0</ele>
        <time>2020-08-19T11:38:52Z</time>
      </trkpt>
      <trkpt lat="42.681599000" lon="-0.516185000">
        <ele>1181.2</ele>
        <time>2020-08-19T11:38:57Z</time>
      </trkpt>
      <trkpt lat="42.681562000" lon="-0.516284000">
        <ele>1180.8</ele>
        <time>2020-08-19T11:39:02Z</time>
      </trkpt>
      <trkpt lat="42.681499000" lon="-0.516378000">
        <ele>1180.2</ele>
        <time>2020-08-19T11:39:06Z</time>
      </trkpt>
      <trkpt lat="42.681434000" lon="-0.516447000">
        <ele>1179.2</ele>
        <time>2020-08-19T11:39:10Z</time>
      </trkpt>
      <trkpt lat="42.681413000" lon="-0.516554000">
        <ele>1178.1</ele>
        <time>2020-08-19T11:39:15Z</time>
      </trkpt>
      <trkpt lat="42.681438000" lon="-0.516668000">
        <ele>1177.0</ele>
        <time>2020-08-19T11:39:20Z</time>
      </trkpt>
      <trkpt lat="42.681455000" lon="-0.516779000">
        <ele>1176.2</ele>
        <time>2020-08-19T11:39:27Z</time>
      </trkpt>
      <trkpt lat="42.681438000" lon="-0.516898000">
        <ele>1175.5</ele>
        <time>2020-08-19T11:39:35Z</time>
      </trkpt>
      <trkpt lat="42.681446000" lon="-0.517019000">
        <ele>1174.9</ele>
        <time>2020-08-19T11:39:43Z</time>
      </trkpt>
      <trkpt lat="42.681410000" lon="-0.517124000">
        <ele>1174.1</ele>
        <time>2020-08-19T11:39:50Z</time>
      </trkpt>
      <trkpt lat="42.681377000" lon="-0.517231000">
        <ele>1173.1</ele>
        <time>2020-08-19T11:39:57Z</time>
      </trkpt>
      <trkpt lat="42.681337000" lon="-0.517342000">
        <ele>1172.3</ele>
        <time>2020-08-19T11:40:04Z</time>
      </trkpt>
      <trkpt lat="42.681316000" lon="-0.517466000">
        <ele>1172.1</ele>
        <time>2020-08-19T11:40:11Z</time>
      </trkpt>
      <trkpt lat="42.681291000" lon="-0.517588000">
        <ele>1172.3</ele>
        <time>2020-08-19T11:40:16Z</time>
      </trkpt>
      <trkpt lat="42.681261000" lon="-0.517709000">
        <ele>1172.5</ele>
        <time>2020-08-19T11:40:22Z</time>
      </trkpt>
      <trkpt lat="42.681291000" lon="-0.517825000">
        <ele>1172.5</ele>
        <time>2020-08-19T11:40:29Z</time>
      </trkpt>
      <trkpt lat="42.681304000" lon="-0.517934000">
        <ele>1172.0</ele>
        <time>2020-08-19T11:40:35Z</time>
      </trkpt>
      <trkpt lat="42.681262000" lon="-0.518032000">
        <ele>1171.0</ele>
        <time>2020-08-19T11:40:42Z</time>
      </trkpt>
      <trkpt lat="42.681228000" lon="-0.518137000">
        <ele>1169.6</ele>
        <time>2020-08-19T11:40:48Z</time>
      </trkpt>
      <trkpt lat="42.681230000" lon="-0.518264000">
        <ele>1168.1</ele>
        <time>2020-08-19T11:40:53Z</time>
      </trkpt>
      <trkpt lat="42.681229000" lon="-0.518379000">
        <ele>1166.5</ele>
        <time>2020-08-19T11:40:59Z</time>
      </trkpt>
      <trkpt lat="42.681241000" lon="-0.518505000">
        <ele>1165.2</ele>
        <time>2020-08-19T11:41:06Z</time>
      </trkpt>
      <trkpt lat="42.681261000" lon="-0.518620000">
        <ele>1163.9</ele>
        <time>2020-08-19T11:41:13Z</time>
      </trkpt>
      <trkpt lat="42.681262000" lon="-0.518745000">
        <ele>1162.5</ele>
        <time>2020-08-19T11:41:20Z</time>
      </trkpt>
      <trkpt lat="42.681255000" lon="-0.518863000">
        <ele>1160.8</ele>
        <time>2020-08-19T11:41:27Z</time>
      </trkpt>
      <trkpt lat="42.681241000" lon="-0.518978000">
        <ele>1159.2</ele>
        <time>2020-08-19T11:41:33Z</time>
      </trkpt>
      <trkpt lat="42.681210000" lon="-0.519095000">
        <ele>1157.6</ele>
        <time>2020-08-19T11:41:39Z</time>
      </trkpt>
      <trkpt lat="42.681213000" lon="-0.519220000">
        <ele>1156.1</ele>
        <time>2020-08-19T11:41:45Z</time>
      </trkpt>
      <trkpt lat="42.681196000" lon="-0.519337000">
        <ele>1154.6</ele>
        <time>2020-08-19T11:41:50Z</time>
      </trkpt>
      <trkpt lat="42.681188000" lon="-0.519458000">
        <ele>1153.4</ele>
        <time>2020-08-19T11:41:58Z</time>
      </trkpt>
      <trkpt lat="42.681184000" lon="-0.519571000">
        <ele>1152.2</ele>
        <time>2020-08-19T11:42:05Z</time>
      </trkpt>
      <trkpt lat="42.681185000" lon="-0.519688000">
        <ele>1150.5</ele>
        <time>2020-08-19T11:42:13Z</time>
      </trkpt>
      <trkpt lat="42.681197000" lon="-0.519802000">
        <ele>1148.5</ele>
        <time>2020-08-19T11:42:22Z</time>
      </trkpt>
      <trkpt lat="42.681207000" lon="-0.519927000">
        <ele>1146.0</ele>
        <time>2020-08-19T11:42:31Z</time>
      </trkpt>
      <trkpt lat="42.681209000" lon="-0.520042000">
        <ele>1143.5</ele>
        <time>2020-08-19T11:42:39Z</time>
      </trkpt>
      <trkpt lat="42.681222000" lon="-0.520152000">
        <ele>1140.8</ele>
        <time>2020-08-19T11:42:49Z</time>
      </trkpt>
      <trkpt lat="42.681282000" lon="-0.520239000">
        <ele>1138.0</ele>
        <time>2020-08-19T11:43:05Z</time>
      </trkpt>
      <trkpt lat="42.681324000" lon="-0.520335000">
        <ele>1135.3</ele>
        <time>2020-08-19T11:43:20Z</time>
      </trkpt>
      <trkpt lat="42.681381000" lon="-0.520418000">
        <ele>1132.8</ele>
        <time>2020-08-19T11:43:33Z</time>
      </trkpt>
      <trkpt lat="42.681366000" lon="-0.520528000">
        <ele>1130.4</ele>
        <time>2020-08-19T11:43:44Z</time>
      </trkpt>
      <trkpt lat="42.681398000" lon="-0.520641000">
        <ele>1127.5</ele>
        <time>2020-08-19T11:43:58Z</time>
      </trkpt>
      <trkpt lat="42.681436000" lon="-0.520751000">
        <ele>1124.7</ele>
        <time>2020-08-19T11:44:06Z</time>
      </trkpt>
      <trkpt lat="42.681430000" lon="-0.520868000">
        <ele>1122.5</ele>
        <time>2020-08-19T11:44:12Z</time>
      </trkpt>
      <trkpt lat="42.681399000" lon="-0.520981000">
        <ele>1120.5</ele>
        <time>2020-08-19T11:44:19Z</time>
      </trkpt>
      <trkpt lat="42.681423000" lon="-0.521087000">
        <ele>1118.7</ele>
        <time>2020-08-19T11:44:28Z</time>
      </trkpt>
      <trkpt lat="42.681486000" lon="-0.521171000">
        <ele>1116.9</ele>
        <time>2020-08-19T11:44:33Z</time>
      </trkpt>
      <trkpt lat="42.681438000" lon="-0.521282000">
        <ele>1115.4</ele>
        <time>2020-08-19T11:44:41Z</time>
      </trkpt>
      <trkpt lat="42.681376000" lon="-0.521368000">
        <ele>1114.0</ele>
        <time>2020-08-19T11:44:47Z</time>
      </trkpt>
      <trkpt lat="42.681359000" lon="-0.521484000">
        <ele>1112.7</ele>
        <time>2020-08-19T11:44:53Z</time>
      </trkpt>
      <trkpt lat="42.681325000" lon="-0.521586000">
        <ele>1111.4</ele>
        <time>2020-08-19T11:44:59Z</time>
      </trkpt>
      <trkpt lat="42.681269000" lon="-0.521680000">
        <ele>1110.3</ele>
        <time>2020-08-19T11:45:05Z</time>
      </trkpt>
      <trkpt lat="42.681213000" lon="-0.521771000">
        <ele>1109.6</ele>
        <time>2020-08-19T11:45:12Z</time>
      </trkpt>
      <trkpt lat="42.681155000" lon="-0.521860000">
        <ele>1109.1</ele>
        <time>2020-08-19T11:45:18Z</time>
      </trkpt>
      <trkpt lat="42.681086000" lon="-0.521928000">
        <ele>1108.0</ele>
        <time>2020-08-19T11:45:24Z</time>
      </trkpt>
      <trkpt lat="42.681033000" lon="-0.522017000">
        <ele>1106.8</ele>
        <time>2020-08-19T11:45:29Z</time>
      </trkpt>
      <trkpt lat="42.680959000" lon="-0.522089000">
        <ele>1105.2</ele>
        <time>2020-08-19T11:45:37Z</time>
      </trkpt>
      <trkpt lat="42.680904000" lon="-0.522171000">
        <ele>1103.2</ele>
        <time>2020-08-19T11:45:45Z</time>
      </trkpt>
      <trkpt lat="42.680841000" lon="-0.522256000">
        <ele>1101.0</ele>
        <time>2020-08-19T11:45:54Z</time>
      </trkpt>
      <trkpt lat="42.680833000" lon="-0.522371000">
        <ele>1098.7</ele>
        <time>2020-08-19T11:46:00Z</time>
      </trkpt>
      <trkpt lat="42.680816000" lon="-0.522481000">
        <ele>1095.9</ele>
        <time>2020-08-19T11:46:08Z</time>
      </trkpt>
      <trkpt lat="42.680838000" lon="-0.522598000">
        <ele>1093.4</ele>
        <time>2020-08-19T11:46:17Z</time>
      </trkpt>
      <trkpt lat="42.680831000" lon="-0.522708000">
        <ele>1090.7</ele>
        <time>2020-08-19T11:46:25Z</time>
      </trkpt>
      <trkpt lat="42.680817000" lon="-0.522818000">
        <ele>1087.8</ele>
        <time>2020-08-19T11:46:31Z</time>
      </trkpt>
      <trkpt lat="42.680775000" lon="-0.522924000">
        <ele>1084.7</ele>
        <time>2020-08-19T11:46:38Z</time>
      </trkpt>
      <trkpt lat="42.680771000" lon="-0.523038000">
        <ele>1081.8</ele>
        <time>2020-08-19T11:46:45Z</time>
      </trkpt>
      <trkpt lat="42.680695000" lon="-0.523118000">
        <ele>1079.1</ele>
        <time>2020-08-19T11:46:50Z</time>
      </trkpt>
      <trkpt lat="42.680627000" lon="-0.523187000">
        <ele>1076.7</ele>
        <time>2020-08-19T11:46:56Z</time>
      </trkpt>
      <trkpt lat="42.680600000" lon="-0.523294000">
        <ele>1074.5</ele>
        <time>2020-08-19T11:47:02Z</time>
      </trkpt>
      <trkpt lat="42.680559000" lon="-0.523397000">
        <ele>1072.3</ele>
        <time>2020-08-19T11:47:10Z</time>
      </trkpt>
      <trkpt lat="42.680539000" lon="-0.523508000">
        <ele>1070.0</ele>
        <time>2020-08-19T11:47:20Z</time>
      </trkpt>
      <trkpt lat="42.680484000" lon="-0.523596000">
        <ele>1068.0</ele>
        <time>2020-08-19T11:47:28Z</time>
      </trkpt>
      <trkpt lat="42.680453000" lon="-0.523716000">
        <ele>1065.5</ele>
        <time>2020-08-19T11:47:38Z</time>
      </trkpt>
      <trkpt lat="42.680404000" lon="-0.523823000">
        <ele>1062.8</ele>
        <time>2020-08-19T11:47:47Z</time>
      </trkpt>
      <trkpt lat="42.680454000" lon="-0.523917000">
        <ele>1060.5</ele>
        <time>2020-08-19T11:48:06Z</time>
      </trkpt>
      <trkpt lat="42.680540000" lon="-0.523922000">
        <ele>1058.3</ele>
        <time>2020-08-19T11:48:16Z</time>
      </trkpt>
      <trkpt lat="42.680623000" lon="-0.523889000">
        <ele>1056.2</ele>
        <time>2020-08-19T11:48:24Z</time>
      </trkpt>
      <trkpt lat="42.680711000" lon="-0.523901000">
        <ele>1054.3</ele>
        <time>2020-08-19T11:48:31Z</time>
      </trkpt>
      <trkpt lat="42.680796000" lon="-0.523850000">
        <ele>1052.4</ele>
        <time>2020-08-19T11:48:38Z</time>
      </trkpt>
      <trkpt lat="42.680865000" lon="-0.523770000">
        <ele>1050.3</ele>
        <time>2020-08-19T11:48:45Z</time>
      </trkpt>
      <trkpt lat="42.680941000" lon="-0.523704000">
        <ele>1048.4</ele>
        <time>2020-08-19T11:48:51Z</time>
      </trkpt>
      <trkpt lat="42.681022000" lon="-0.523657000">
        <ele>1046.2</ele>
        <time>2020-08-19T11:48:58Z</time>
      </trkpt>
      <trkpt lat="42.681089000" lon="-0.523588000">
        <ele>1044.0</ele>
        <time>2020-08-19T11:49:10Z</time>
      </trkpt>
      <trkpt lat="42.681173000" lon="-0.523543000">
        <ele>1042.0</ele>
        <time>2020-08-19T11:49:22Z</time>
      </trkpt>
      <trkpt lat="42.681264000" lon="-0.523530000">
        <ele>1039.9</ele>
        <time>2020-08-19T11:49:28Z</time>
      </trkpt>
      <trkpt lat="42.681340000" lon="-0.523489000">
        <ele>1037.6</ele>
        <time>2020-08-19T11:49:42Z</time>
      </trkpt>
      <trkpt lat="42.681434000" lon="-0.523490000">
        <ele>1035.1</ele>
        <time>2020-08-19T11:49:48Z</time>
      </trkpt>
      <trkpt lat="42.681520000" lon="-0.523468000">
        <ele>1032.5</ele>
        <time>2020-08-19T11:49:56Z</time>
      </trkpt>
      <trkpt lat="42.681599000" lon="-0.523418000">
        <ele>1029.5</ele>
        <time>2020-08-19T11:50:08Z</time>
      </trkpt>
      <trkpt lat="42.681686000" lon="-0.523395000">
        <ele>1026.6</ele>
        <time>2020-08-19T11:50:22Z</time>
      </trkpt>
      <trkpt lat="42.681769000" lon="-0.523423000">
        <ele>1024.0</ele>
        <time>2020-08-19T11:50:34Z</time>
      </trkpt>
      <trkpt lat="42.681849000" lon="-0.523446000">
        <ele>1021.5</ele>
        <time>2020-08-19T11:50:43Z</time>
      </trkpt>
      <trkpt lat="42.681933000" lon="-0.523500000">
        <ele>1019.3</ele>
        <time>2020-08-19T11:50:53Z</time>
      </trkpt>
      <trkpt lat="42.681976000" lon="-0.523604000">
        <ele>1017.1</ele>
        <time>2020-08-19T11:51:01Z</time>
      </trkpt>
      <trkpt lat="42.682056000" lon="-0.523683000">
        <ele>1014.9</ele>
        <time>2020-08-19T11:51:08Z</time>
      </trkpt>
      <trkpt lat="42.682133000" lon="-0.523754000">
        <ele>1012.8</ele>
        <time>2020-08-19T11:51:15Z</time>
      </trkpt>
      <trkpt lat="42.682217000" lon="-0.523761000">
        <ele>1010.8</ele>
        <time>2020-08-19T11:51:24Z</time>
      </trkpt>
      <trkpt lat="42.682262000" lon="-0.523861000">
        <ele>1009.0</ele>
        <time>2020-08-19T11:51:48Z</time>
      </trkpt>
      <trkpt lat="42.682274000" lon="-0.523971000">
        <ele>1007.4</ele>
        <time>2020-08-19T11:51:57Z</time>
      </trkpt>
      <trkpt lat="42.682275000" lon="-0.524092000">
        <ele>1005.9</ele>
        <time>2020-08-19T11:52:07Z</time>
      </trkpt>
      <trkpt lat="42.682319000" lon="-0.524198000">
        <ele>1004.6</ele>
        <time>2020-08-19T11:52:16Z</time>
      </trkpt>
      <trkpt lat="42.682357000" lon="-0.524307000">
        <ele>1003.5</ele>
        <time>2020-08-19T11:52:25Z</time>
      </trkpt>
      <trkpt lat="42.682382000" lon="-0.524413000">
        <ele>1002.3</ele>
        <time>2020-08-19T11:52:34Z</time>
      </trkpt>
      <trkpt lat="42.682403000" lon="-0.524528000">
        <ele>1001.1</ele>
        <time>2020-08-19T11:52:43Z</time>
      </trkpt>
      <trkpt lat="42.682426000" lon="-0.524647000">
        <ele>1000.0</ele>
        <time>2020-08-19T11:52:50Z</time>
      </trkpt>
      <trkpt lat="42.682449000" lon="-0.524763000">
        <ele>999.0</ele>
        <time>2020-08-19T11:52:57Z</time>
      </trkpt>
      <trkpt lat="42.682465000" lon="-0.524873000">
        <ele>998.0</ele>
        <time>2020-08-19T11:53:06Z</time>
      </trkpt>
      <trkpt lat="42.682483000" lon="-0.524985000">
        <ele>997.0</ele>
        <time>2020-08-19T11:53:14Z</time>
      </trkpt>
      <trkpt lat="42.682494000" lon="-0.525097000">
        <ele>996.0</ele>
        <time>2020-08-19T11:53:22Z</time>
      </trkpt>
      <trkpt lat="42.682492000" lon="-0.525223000">
        <ele>995.1</ele>
        <time>2020-08-19T11:53:30Z</time>
      </trkpt>
      <trkpt lat="42.682497000" lon="-0.525336000">
        <ele>994.2</ele>
        <time>2020-08-19T11:53:37Z</time>
      </trkpt>
      <trkpt lat="42.682495000" lon="-0.525449000">
        <ele>993.3</ele>
        <time>2020-08-19T11:53:43Z</time>
      </trkpt>
      <trkpt lat="42.682479000" lon="-0.525559000">
        <ele>992.4</ele>
        <time>2020-08-19T11:53:50Z</time>
      </trkpt>
      <trkpt lat="42.682464000" lon="-0.525683000">
        <ele>991.5</ele>
        <time>2020-08-19T11:53:58Z</time>
      </trkpt>
      <trkpt lat="42.682452000" lon="-0.525804000">
        <ele>990.7</ele>
        <time>2020-08-19T11:54:05Z</time>
      </trkpt>
      <trkpt lat="42.682459000" lon="-0.525914000">
        <ele>989.9</ele>
        <time>2020-08-19T11:54:12Z</time>
      </trkpt>
      <trkpt lat="42.682451000" lon="-0.526028000">
        <ele>989.1</ele>
        <time>2020-08-19T11:54:19Z</time>
      </trkpt>
      <trkpt lat="42.682455000" lon="-0.526152000">
        <ele>988.3</ele>
        <time>2020-08-19T11:54:26Z</time>
      </trkpt>
      <trkpt lat="42.682469000" lon="-0.526268000">
        <ele>987.4</ele>
        <time>2020-08-19T11:54:33Z</time>
      </trkpt>
      <trkpt lat="42.682464000" lon="-0.526388000">
        <ele>986.5</ele>
        <time>2020-08-19T11:54:41Z</time>
      </trkpt>
      <trkpt lat="42.682482000" lon="-0.526503000">
        <ele>985.6</ele>
        <time>2020-08-19T11:54:48Z</time>
      </trkpt>
      <trkpt lat="42.682501000" lon="-0.526622000">
        <ele>984.7</ele>
        <time>2020-08-19T11:54:56Z</time>
      </trkpt>
      <trkpt lat="42.682507000" lon="-0.526745000">
        <ele>983.8</ele>
        <time>2020-08-19T11:55:04Z</time>
      </trkpt>
      <trkpt lat="42.682493000" lon="-0.526873000">
        <ele>983.0</ele>
        <time>2020-08-19T11:55:10Z</time>
      </trkpt>
      <trkpt lat="42.682486000" lon="-0.526991000">
        <ele>982.1</ele>
        <time>2020-08-19T11:55:17Z</time>
      </trkpt>
      <trkpt lat="42.682484000" lon="-0.527116000">
        <ele>981.3</ele>
        <time>2020-08-19T11:55:25Z</time>
      </trkpt>
      <trkpt lat="42.682467000" lon="-0.527230000">
        <ele>980.5</ele>
        <time>2020-08-19T11:55:33Z</time>
      </trkpt>
      <trkpt lat="42.682483000" lon="-0.527339000">
        <ele>979.5</ele>
        <time>2020-08-19T11:55:40Z</time>
      </trkpt>
      <trkpt lat="42.682493000" lon="-0.527454000">
        <ele>978.6</ele>
        <time>2020-08-19T11:55:47Z</time>
      </trkpt>
      <trkpt lat="42.682481000" lon="-0.527565000">
        <ele>977.7</ele>
        <time>2020-08-19T11:55:53Z</time>
      </trkpt>
      <trkpt lat="42.682467000" lon="-0.527683000">
        <ele>976.7</ele>
        <time>2020-08-19T11:56:01Z</time>
      </trkpt>
      <trkpt lat="42.682460000" lon="-0.527795000">
        <ele>975.7</ele>
        <time>2020-08-19T11:56:10Z</time>
      </trkpt>
      <trkpt lat="42.682433000" lon="-0.527906000">
        <ele>974.7</ele>
        <time>2020-08-19T11:56:19Z</time>
      </trkpt>
      <trkpt lat="42.682413000" lon="-0.528030000">
        <ele>973.8</ele>
        <time>2020-08-19T11:56:26Z</time>
      </trkpt>
      <trkpt lat="42.682398000" lon="-0.528154000">
        <ele>972.8</ele>
        <time>2020-08-19T11:56:33Z</time>
      </trkpt>
      <trkpt lat="42.682380000" lon="-0.528265000">
        <ele>971.9</ele>
        <time>2020-08-19T11:56:40Z</time>
      </trkpt>
      <trkpt lat="42.682374000" lon="-0.528376000">
        <ele>970.9</ele>
        <time>2020-08-19T11:56:46Z</time>
      </trkpt>
      <trkpt lat="42.682378000" lon="-0.528491000">
        <ele>970.0</ele>
        <time>2020-08-19T11:56:53Z</time>
      </trkpt>
      <trkpt lat="42.682367000" lon="-0.528606000">
        <ele>969.2</ele>
        <time>2020-08-19T11:57:02Z</time>
      </trkpt>
      <trkpt lat="42.682348000" lon="-0.528730000">
        <ele>968.4</ele>
        <time>2020-08-19T11:57:10Z</time>
      </trkpt>
      <trkpt lat="42.682359000" lon="-0.528842000">
        <ele>967.7</ele>
        <time>2020-08-19T11:57:18Z</time>
      </trkpt>
      <trkpt lat="42.682353000" lon="-0.528962000">
        <ele>967.1</ele>
        <time>2020-08-19T11:57:24Z</time>
      </trkpt>
      <trkpt lat="42.682341000" lon="-0.529088000">
        <ele>966.5</ele>
        <time>2020-08-19T11:57:31Z</time>
      </trkpt>
      <trkpt lat="42.682316000" lon="-0.529198000">
        <ele>965.8</ele>
        <time>2020-08-19T11:57:37Z</time>
      </trkpt>
      <trkpt lat="42.682292000" lon="-0.529307000">
        <ele>965.1</ele>
        <time>2020-08-19T11:57:43Z</time>
      </trkpt>
      <trkpt lat="42.682277000" lon="-0.529428000">
        <ele>964.4</ele>
        <time>2020-08-19T11:57:50Z</time>
      </trkpt>
      <trkpt lat="42.682259000" lon="-0.529536000">
        <ele>963.6</ele>
        <time>2020-08-19T11:57:57Z</time>
      </trkpt>
      <trkpt lat="42.682250000" lon="-0.529655000">
        <ele>963.0</ele>
        <time>2020-08-19T11:58:05Z</time>
      </trkpt>
      <trkpt lat="42.682245000" lon="-0.529765000">
        <ele>962.4</ele>
        <time>2020-08-19T11:58:12Z</time>
      </trkpt>
      <trkpt lat="42.682243000" lon="-0.529882000">
        <ele>961.7</ele>
        <time>2020-08-19T11:58:19Z</time>
      </trkpt>
      <trkpt lat="42.682238000" lon="-0.529997000">
        <ele>961.2</ele>
        <time>2020-08-19T11:58:26Z</time>
      </trkpt>
      <trkpt lat="42.682212000" lon="-0.530114000">
        <ele>960.5</ele>
        <time>2020-08-19T11:58:34Z</time>
      </trkpt>
      <trkpt lat="42.682187000" lon="-0.530221000">
        <ele>959.9</ele>
        <time>2020-08-19T11:58:42Z</time>
      </trkpt>
      <trkpt lat="42.682179000" lon="-0.530336000">
        <ele>959.4</ele>
        <time>2020-08-19T11:58:49Z</time>
      </trkpt>
      <trkpt lat="42.682171000" lon="-0.530453000">
        <ele>958.8</ele>
        <time>2020-08-19T11:58:56Z</time>
      </trkpt>
      <trkpt lat="42.682165000" lon="-0.530574000">
        <ele>958.4</ele>
        <time>2020-08-19T11:59:04Z</time>
      </trkpt>
      <trkpt lat="42.682158000" lon="-0.530696000">
        <ele>958.0</ele>
        <time>2020-08-19T11:59:12Z</time>
      </trkpt>
      <trkpt lat="42.682137000" lon="-0.530813000">
        <ele>957.5</ele>
        <time>2020-08-19T11:59:20Z</time>
      </trkpt>
      <trkpt lat="42.682118000" lon="-0.530924000">
        <ele>957.1</ele>
        <time>2020-08-19T11:59:27Z</time>
      </trkpt>
      <trkpt lat="42.682088000" lon="-0.531029000">
        <ele>956.6</ele>
        <time>2020-08-19T11:59:33Z</time>
      </trkpt>
      <trkpt lat="42.682072000" lon="-0.531149000">
        <ele>956.3</ele>
        <time>2020-08-19T11:59:40Z</time>
      </trkpt>
      <trkpt lat="42.682051000" lon="-0.531259000">
        <ele>955.9</ele>
        <time>2020-08-19T11:59:48Z</time>
      </trkpt>
      <trkpt lat="42.682033000" lon="-0.531377000">
        <ele>955.6</ele>
        <time>2020-08-19T11:59:56Z</time>
      </trkpt>
      <trkpt lat="42.682024000" lon="-0.531495000">
        <ele>955.5</ele>
        <time>2020-08-19T12:00:05Z</time>
      </trkpt>
      <trkpt lat="42.682060000" lon="-0.531622000">
        <ele>955.3</ele>
        <time>2020-08-19T12:00:12Z</time>
      </trkpt>
      <trkpt lat="42.682066000" lon="-0.531739000">
        <ele>955.2</ele>
        <time>2020-08-19T12:00:21Z</time>
      </trkpt>
      <trkpt lat="42.682099000" lon="-0.531864000">
        <ele>955.2</ele>
        <time>2020-08-19T12:00:26Z</time>
      </trkpt>
      <trkpt lat="42.682155000" lon="-0.531965000">
        <ele>955.2</ele>
        <time>2020-08-19T12:00:32Z</time>
      </trkpt>
      <trkpt lat="42.682216000" lon="-0.532060000">
        <ele>955.3</ele>
        <time>2020-08-19T12:00:38Z</time>
      </trkpt>
      <trkpt lat="42.682266000" lon="-0.532162000">
        <ele>955.4</ele>
        <time>2020-08-19T12:00:45Z</time>
      </trkpt>
      <trkpt lat="42.682332000" lon="-0.532243000">
        <ele>955.4</ele>
        <time>2020-08-19T12:00:53Z</time>
      </trkpt>
      <trkpt lat="42.682403000" lon="-0.532302000">
        <ele>955.3</ele>
        <time>2020-08-19T12:01:01Z</time>
      </trkpt>
      <trkpt lat="42.682477000" lon="-0.532360000">
        <ele>955.1</ele>
        <time>2020-08-19T12:01:11Z</time>
      </trkpt>
      <trkpt lat="42.682507000" lon="-0.532471000">
        <ele>954.8</ele>
        <time>2020-08-19T12:01:19Z</time>
      </trkpt>
      <trkpt lat="42.682523000" lon="-0.532586000">
        <ele>954.5</ele>
        <time>2020-08-19T12:01:26Z</time>
      </trkpt>
      <trkpt lat="42.682538000" lon="-0.532695000">
        <ele>954.4</ele>
        <time>2020-08-19T12:01:33Z</time>
      </trkpt>
      <trkpt lat="42.682548000" lon="-0.532815000">
        <ele>954.2</ele>
        <time>2020-08-19T12:01:41Z</time>
      </trkpt>
      <trkpt lat="42.682567000" lon="-0.532935000">
        <ele>953.9</ele>
        <time>2020-08-19T12:01:48Z</time>
      </trkpt>
      <trkpt lat="42.682541000" lon="-0.533049000">
        <ele>953.7</ele>
        <time>2020-08-19T12:01:56Z</time>
      </trkpt>
      <trkpt lat="42.682500000" lon="-0.533149000">
        <ele>953.6</ele>
        <time>2020-08-19T12:02:04Z</time>
      </trkpt>
      <trkpt lat="42.682470000" lon="-0.533264000">
        <ele>953.6</ele>
        <time>2020-08-19T12:02:12Z</time>
      </trkpt>
      <trkpt lat="42.682444000" lon="-0.533382000">
        <ele>953.7</ele>
        <time>2020-08-19T12:02:20Z</time>
      </trkpt>
      <trkpt lat="42.682447000" lon="-0.533493000">
        <ele>953.9</ele>
        <time>2020-08-19T12:02:26Z</time>
      </trkpt>
      <trkpt lat="42.682467000" lon="-0.533604000">
        <ele>954.2</ele>
        <time>2020-08-19T12:02:31Z</time>
      </trkpt>
      <trkpt lat="42.682479000" lon="-0.533728000">
        <ele>954.6</ele>
        <time>2020-08-19T12:02:37Z</time>
      </trkpt>
      <trkpt lat="42.682489000" lon="-0.533850000">
        <ele>955.1</ele>
        <time>2020-08-19T12:02:44Z</time>
      </trkpt>
      <trkpt lat="42.682504000" lon="-0.533966000">
        <ele>955.5</ele>
        <time>2020-08-19T12:02:51Z</time>
      </trkpt>
      <trkpt lat="42.682483000" lon="-0.534080000">
        <ele>955.9</ele>
        <time>2020-08-19T12:03:00Z</time>
      </trkpt>
      <trkpt lat="42.682504000" lon="-0.534201000">
        <ele>956.3</ele>
        <time>2020-08-19T12:03:06Z</time>
      </trkpt>
      <trkpt lat="42.682521000" lon="-0.534311000">
        <ele>956.5</ele>
        <time>2020-08-19T12:03:12Z</time>
      </trkpt>
      <trkpt lat="42.682523000" lon="-0.534428000">
        <ele>956.6</ele>
        <time>2020-08-19T12:03:21Z</time>
      </trkpt>
      <trkpt lat="42.682523000" lon="-0.534540000">
        <ele>956.5</ele>
        <time>2020-08-19T12:03:27Z</time>
      </trkpt>
      <trkpt lat="42.682512000" lon="-0.534657000">
        <ele>956.4</ele>
        <time>2020-08-19T12:03:34Z</time>
      </trkpt>
      <trkpt lat="42.682500000" lon="-0.534771000">
        <ele>956.2</ele>
        <time>2020-08-19T12:03:41Z</time>
      </trkpt>
      <trkpt lat="42.682546000" lon="-0.534876000">
        <ele>956.0</ele>
        <time>2020-08-19T12:03:48Z</time>
      </trkpt>
      <trkpt lat="42.682565000" lon="-0.534985000">
        <ele>955.7</ele>
        <time>2020-08-19T12:03:55Z</time>
      </trkpt>
      <trkpt lat="42.682529000" lon="-0.535086000">
        <ele>955.5</ele>
        <time>2020-08-19T12:04:03Z</time>
      </trkpt>
      <trkpt lat="42.682492000" lon="-0.535189000">
        <ele>955.2</ele>
        <time>2020-08-19T12:04:10Z</time>
      </trkpt>
      <trkpt lat="42.682465000" lon="-0.535299000">
        <ele>955.1</ele>
        <time>2020-08-19T12:04:17Z</time>
      </trkpt>
      <trkpt lat="42.682434000" lon="-0.535419000">
        <ele>955.0</ele>
        <time>2020-08-19T12:04:25Z</time>
      </trkpt>
      <trkpt lat="42.682427000" lon="-0.535537000">
        <ele>955.0</ele>
        <time>2020-08-19T12:04:31Z</time>
      </trkpt>
      <trkpt lat="42.682411000" lon="-0.535659000">
        <ele>955.2</ele>
        <time>2020-08-19T12:04:38Z</time>
      </trkpt>
      <trkpt lat="42.682430000" lon="-0.535770000">
        <ele>955.5</ele>
        <time>2020-08-19T12:04:44Z</time>
      </trkpt>
      <trkpt lat="42.682431000" lon="-0.535887000">
        <ele>956.2</ele>
        <time>2020-08-19T12:04:51Z</time>
      </trkpt>
      <trkpt lat="42.682428000" lon="-0.535999000">
        <ele>956.9</ele>
        <time>2020-08-19T12:04:59Z</time>
      </trkpt>
      <trkpt lat="42.682418000" lon="-0.536123000">
        <ele>957.8</ele>
        <time>2020-08-19T12:05:06Z</time>
      </trkpt>
      <trkpt lat="42.682415000" lon="-0.536257000">
        <ele>958.8</ele>
        <time>2020-08-19T12:05:12Z</time>
      </trkpt>
      <trkpt lat="42.682397000" lon="-0.536379000">
        <ele>959.8</ele>
        <time>2020-08-19T12:05:18Z</time>
      </trkpt>
      <trkpt lat="42.682386000" lon="-0.536501000">
        <ele>960.8</ele>
        <time>2020-08-19T12:05:40Z</time>
      </trkpt>
      <trkpt lat="42.682369000" lon="-0.536621000">
        <ele>961.8</ele>
        <time>2020-08-19T12:05:47Z</time>
      </trkpt>
      <trkpt lat="42.682367000" lon="-0.536732000">
        <ele>962.8</ele>
        <time>2020-08-19T12:05:59Z</time>
      </trkpt>
      <trkpt lat="42.682325000" lon="-0.536831000">
        <ele>963.4</ele>
        <time>2020-08-19T12:06:06Z</time>
      </trkpt>
      <trkpt lat="42.682299000" lon="-0.536941000">
        <ele>964.0</ele>
        <time>2020-08-19T12:06:12Z</time>
      </trkpt>
      <trkpt lat="42.682295000" lon="-0.537067000">
        <ele>964.6</ele>
        <time>2020-08-19T12:06:19Z</time>
      </trkpt>
      <trkpt lat="42.682248000" lon="-0.537165000">
        <ele>965.1</ele>
        <time>2020-08-19T12:06:27Z</time>
      </trkpt>
      <trkpt lat="42.682238000" lon="-0.537219000">
        <ele>965.7</ele>
        <time>2020-08-19T12:06:32Z</time>
      </trkpt>
    </trkseg>
  </trk>
</gpx>
